     2              OBSERVATION DATA    GPS                 RINEX VERSION / TYPE
TRRINEXO-V2.3.1-LH UCLA/SCEC 08-FEB-1994                    PGM / RUN BY / DATE
                                                            COMMENT
Original Marker Name: CHATSWORTH RE62 1933                  COMMENT
Campaign Name: Northridge 1994                              COMMENT
4-Character Station Name: CHT1                              COMMENT
6-Character Antenna Code: TRMSST                            COMMENT
Vertical Measurement Point: TGP                             COMMENT
Vertical Offset to Rinex Ref. Point: 0.0629                 COMMENT
Radial Measurement Point: OGP                               COMMENT
Radial Offset to Rinex Ref. Point: 0.2413                   COMMENT
Antenna Height from Field Measurement: 0.9795 m             COMMENT
Original XYZ: -2529725.8864 -4632038.9491 3570427.4204      COMMENT
New XYZ position is based on association with SCEC monument COMMENT
E1E9I1E1+0071. Position of that monument is believed to be  COMMENT
valid to within 1 m horizontally; vertical accuracy         COMMENT
should be no worse than 3-times this value.                 COMMENT
                                                            COMMENT
Revised Rinex header created by UCSD GPS archive for        COMMENT
GSAC on 26-May-1999 (1999:146) 22:48:39 GMT                 COMMENT
For assistance contact dagnew@ucsd.edu or hjohnson@ucsd.edu COMMENT
                                                            COMMENT
CHATSWORTH RE62 1933                                        MARKER NAME
D. POTTER UCLA                                              OBSERVER / AGENCY
930 TRIMBLE 4000 SST 4.81                                   REC # / TYPE / VERS
S/N UNKNOWN TR 4000SST L1/L2 GEO                            ANT # / TYPE
 -2529753.0000 -4632035.0000  3570415.0000                  APPROX POSITION XYZ
        0.8864        0.0000        0.0000                  ANTENNA: DELTA H/E/N
     1     2     0                                          WAVELENGTH FACT L1/2
     3    C1    L1    L2                                    # / TYPES OF OBSERV
    30                                                      INTERVAL
  1994     2     3     0     1   30.000000                  TIME OF FIRST OBS
  1994     2     3    23    33   60.000000                  TIME OF LAST OBS
     0                                                      # OF SATELLITES
                                                            END OF HEADER
 94  2  3  0  1 30.0000000  0  7 27  2  7 18 16 19 31
  20411346.938          -0.18817
  21590221.930          -0.67917
  23725946.273          -0.31215
  22765552.164          -0.96216
  24009092.070          -0.02715
  20990102.922          -0.05417
  22757308.055          -0.20416
 94  2  3  0  2  0.0000000  0  7 27  2  7 18 16 19 31
  20398945.641      -65163.726 7        -0.04619
  21574005.367      -85218.497 7
  23697469.578     -149654.864 5
  22776558.391       57854.111 6        -0.44416
  24004999.719      -21525.713 5
  20986848.664      -17104.401 7        -0.26119
  22761700.469       23067.849 6
 94  2  3  0  2 30.0000000  0  7 27  2  7 18 16 19 31
  20386595.172     -130068.628 7    -50575.276 9
  21557832.102     -170212.478 7        -0.37218
  23669003.344     -299242.153 5        -0.24715
  22787604.000      115914.239 6     45241.166 6
  24000984.695      -42620.796 5        -0.26813
  20983636.211      -33984.085 7    -13153.248 9
  22766171.453       46578.568 6        -0.04416
 94  2  3  0  3  0.0000000  0  7 27  2  7 18 16 19 31
  20374296.078     -194697.950 7   -100935.764 9
  21541701.695     -254974.417 7    -66048.608 8
  23640559.875     -448720.553 5   -116476.843 5
  22798697.047      174188.758 6     90649.842 6
  23997052.453      -63277.062 5    -16096.087 4
  20980475.516      -50597.225 7    -26098.545 9
  22770735.000       70555.254 6     18683.078 6
 94  2  3  0  3 30.0000000  0  7 27  2  7 18 16 19 31
  20362048.984     -259055.324 7   -151084.352 9
  21525618.953     -339499.941 7   -131912.625 8
  23612133.672     -598097.696 5   -232874.523 5
  22809824.195      232664.761 6    136215.514 6
  23993202.844      -83519.253 4    -31869.266 5
  20977363.984      -66941.096 7    -38834.036 9
  22775382.125       94974.803 6     37711.279 6
 94  2  3  0  4  0.0000000  0  7 27  2  7 18 16 19 31
  20349853.203     -323139.777 7   -201020.262 9
  21509587.984     -423747.322 7   -197559.910 8
  23583724.391     -747356.494 5   -349179.983 5
  22820990.375      291335.507 6    181932.942 6
  23989425.797     -103348.771 5    -47320.885 3
  20974307.695      -83004.950 7    -51351.316 9
  22780114.672      119838.370 6     57085.465 6
 94  2  3  0  4 30.0000000  0  7 27  2  7 18 16 19 31
  20337709.469     -386947.554 7   -250740.591 9
  21493612.563     -507702.768 7   -262979.716 8
  23555344.648     -896500.001 5   -465395.602 5
  22832194.234      350214.519 6    227812.652 6
  23985738.258     -122752.362 5    -62440.582 4
  20971306.234      -98778.601 7    -63642.466 9
  22784929.859      145151.697 6     76810.119 6
 94  2  3  0  4 59.9990000  0  7 27  2  7 18 16 19 31
  20325621.479     -450472.169 7   -300240.271 9
  21477693.573     -591357.944 7   -328165.540 8
  23526986.222    -1045535.980 5   -581527.441 5
  22843434.315      409297.018 6    273850.915 6
  23982124.894     -141738.378 5    -77234.938 4
  20968355.151     -114286.354 7    -75726.420 9
  22789832.558      170912.866 6     96883.740 6
 94  2  3  0  5 29.9990000  0  7 27  2  7 18 16 19 31
  20313589.354     -513701.806 7   -349510.097 9
  21461832.151     -674712.446 7   -393117.077 8
  23498640.597    -1194465.314 5   -697576.186 5
  22854719.347      468591.950 6    320054.708 6
  23978593.026     -160293.936 5    -91693.858 2
  20965449.644     -129553.270 7    -87622.716 9
  22794820.276      197121.647 6    117306.155 6
 94  2  3  0  5 59.9990000  0  7 27  2  7 18 16 19 31
  20301610.683     -576650.870 7   -398561.301 9
  21446022.987     -757787.555 7   -457850.912 8
  23470322.683    -1343286.944 5   -813541.006 5
  22866038.112      528086.473 6    366414.032 5
  23975142.253     -178412.088 4   -105811.928 2
  20962586.729     -144600.088 7    -99347.506 9
  22799890.472      223773.458 6    138073.794 6
 94  2  3  0  6 29.9990000  0  7 27  2  7 18 16 19 31
  20289688.589     -639306.962 7   -447384.211 9
  21430263.628     -840595.186 7   -522376.308 8
  23442025.214    -1491990.367 5   -929413.710 5
  22877400.979      587789.883 6    412936.122 5
  23971784.698     -196076.409 5   -119576.331 4
  20959767.104     -159416.286 7   -110892.581 9
  22805050.042      250883.651 6    159198.609 6
 94  2  3  0  6 59.9990000  0  7 27  2  7 18 16 19 31
  20277819.409     -701681.693 7   -495987.885 9
  21414553.472     -923139.777 7   -586696.747 8
  23413755.464    -1640569.790 5  -1045189.813 5
  22888797.308      647685.023 6    459607.591 5
  23968508.917     -213285.861 5   -132986.341 3
  20956992.183     -173997.925 7   -122254.911 9
  22810293.886      278437.707 6    180669.290 6
 94  2  3  0  7 29.9990000  0  7 27  2  7 18 16 19 31
  20266002.792     -763788.720 7   -544382.955 9
  21398894.722    -1005431.060 7   -650819.792 8
  23385505.534    -1789016.919 5  -1160862.813 5
  22900234.769      707778.836 6    506433.879 5
  23965319.815     -230036.738 4   -146039.006 4
  20954267.019     -188318.724 7   -133413.970 9
  22815620.339      306427.335 6    202479.386 6
 94  2  3  0  7 59.9990000  0  7 27  2  7 18 16 19 31
  20254236.784     -825620.002 7   -592563.157 9
  21383284.972    -1087463.461 7   -714741.122 8
  23357280.370    -1937339.477 5  -1276438.743 5
  22911708.722      768075.836 6    553418.492 5
  23962223.558     -246317.334 5   -158725.232 4
  20951597.120     -202347.846 7   -144345.737 9
  22821031.003      334860.695 6    224635.257 6
 94  2  3  0  8 29.9990000  0  7 27  2  7 18 16 19 31
  20242524.987     -887162.867 7   -640518.617 9
  21367724.753    -1169235.199 7   -778459.332 8
  23329079.698    -2085541.188 5  -1391920.496 5
  22923222.573      828577.646 6    600562.710 5
  23959211.050     -262133.336 5   -171049.417 3
  20948984.229     -216080.625 7   -155046.602 9
  22826522.917      363725.727 6    247127.492 6
 94  2  3  0  8 59.9990000  0  7 27  2  7 18 16 19 31
  20230870.081     -948404.226 7   -688239.137 9
  21352217.167    -1250733.941 7   -841964.808 8
  23300906.136    -2233611.456 5  -1507299.822 5
  22934778.347      889302.234 6    647880.507 5
  23956292.120     -277480.755 5   -183008.479 3
  20946427.636     -229515.112 7   -165515.033 8
  22832097.604      393025.217 6    269958.256 6
 94  2  3  0  9 29.9990000  0  7 27  2  7 18 16 19 31
  20219278.245    -1009319.072 7   -735705.228 9
  21336764.784    -1331944.846 7   -905245.995 8
  23272754.972    -2381543.227 5  -1622571.219 5
  22946376.667      950258.876 6    695379.119 5
  23953460.144     -292361.888 4   -194604.201 2
  20943925.370     -242663.142 7   -175760.243 9
  22837760.144      422777.466 6    293141.823 6
 94  2  3  0  9 59.9990000  0  7 27  2  7 18 16 19 31
  20207748.761    -1069905.448 7   -782915.375 9
  21321363.737    -1412865.825 7   -968301.272 8
  23244621.909    -2529338.947 5  -1737736.608 5
  22958017.886     1011440.301 5    743052.904 5
  23950716.479     -306779.260 5   -205838.556 3
  20941476.909     -255540.264 7   -185794.365 9
  22843510.120      452985.880 6    316680.835 6
 94  2  3  0 10 29.9990000  0  7 27  2  7 18 16 19 31
  20196279.987    -1130180.292 7   -829882.758 9
  21306016.769    -1493496.360 7  -1031130.215 8
  23216529.573    -2676990.263 5  -1852789.440 5
  22969696.925     1072832.352 5    790890.807 5
  23948057.050     -320755.040 5   -216728.767 3
  20939071.636     -268169.523 7   -195635.330 8
  22849342.651      483637.799 6    340565.454 6
 94  2  3  0 10 59.9990000  0  7 27  2  7 18 16 19 31
  20184863.761    -1190171.746 7   -876629.325 9
  21290729.386    -1573847.753 7  -1093741.665 8
  23188457.433    -2824500.759 5  -1967732.566 5
  22981417.808     1134395.595 6    838862.105 5
  23945477.104     -334326.780 5   -227304.170 4
  20936712.901     -280569.268 7   -205297.469 9
  22855255.823      514719.663 6    364785.077 6
 94  2  3  0 11 29.9990000  0  7 27  2  7 18 16 19 31
  20173506.440    -1249851.885 7   -923133.322 9
  21275500.339    -1653892.952 7  -1156114.525 8
  23160422.425    -2971843.619 5  -2082545.058 5
  22993172.214     1196146.857 5    886979.896 5
  23942973.378     -347480.896 5   -237554.194 3
  20934403.448     -292705.203 7   -214754.066 9
  22861254.925      546251.397 6    389355.240 6
 94  2  3  0 11 59.9990000  0  7 27  2  7 18 16 19 31
  20162202.901    -1309244.092 7   -969412.942 9
  21260321.964    -1733649.928 7  -1218262.789 8
  23132414.534    -3119015.447 5  -2197224.270 5
  23004955.753     1258076.604 5    935236.764 5
  23940543.667     -360235.198 5   -247492.649 1
  20932146.323     -304568.247 7   -223997.980 9
  22867337.815      578205.533 6    414254.560 6
 94  2  3  0 12 29.9990000  0  7 27  2  7 18 16 19 31
  20150957.073    -1368343.116 7  -1015464.102 9
  21245194.808    -1813124.898 7  -1280191.300 8
  23104441.011    -3266017.553 5  -2311771.236 5
  23016768.425     1320164.185 5    983616.655 5
  23938194.487     -372612.615 5   -257137.442 2
  20929937.683     -316167.971 7   -233036.711 9
  22873497.800      610569.061 6    439472.894 5
 94  2  3  0 12 59.9990000  0  7 27  2  7 18 16 19 31
  20139770.651    -1427136.273 7  -1061276.939 9
  21230122.409    -1892332.533 7  -1341911.521 8
  23076496.433    -3412860.270 5  -2426194.009 5
  23028614.019     1382421.813 5   1032129.032 5
  23935901.925     -384620.316 5   -266494.069 2
  20927784.104     -327489.186 7   -241858.433 9
  22879732.315      643341.766 6    465010.058 6
 94  2  3  0 13 29.9990000  0  7 27  2  7 18 16 19 31
  20128640.550    -1485622.367 7  -1106850.509 9
  21215102.792    -1971278.370 7  -1403427.739 8
  23048592.128    -3559541.686 6  -2540491.103 5
  23040498.597     1444870.712 5   1080790.435 5
  23933692.690     -396245.655 4   -275552.807 1
  20925682.503     -338525.921 7   -250458.504 8
  22886048.112      676526.949 6    490868.621 5
 94  2  3  0 13 59.9990000  0  7 27  2  7 18 16 19 31
  20117572.550    -1543781.411 7  -1152169.225 9
  21200131.011    -2049950.708 7  -1464730.834 8
  23020705.839    -3706041.666 5  -2654646.822 5
  23052421.144     1507524.697 5   1129611.657 5
  23931558.589     -407456.553 4   -284288.633 3
  20923641.034     -349262.061 7   -258824.327 8
  22892445.729      710147.991 6    517066.827 6
 94  2  3  0 14 29.9990000  0  7 27  2  7 18 16 19 31
  20106563.253    -1601644.199 7  -1197257.092 9
  21185201.097    -2128395.230 7  -1525856.411 8
  22992853.917    -3852405.755 5  -2768696.650 5
  23064377.315     1570356.811 5   1178571.681 5
  23929495.831     -418279.172 4   -292721.931 3
  20921648.089     -359733.002 7   -266983.494 9
  22898924.362      744187.912 6    543591.439 6
 94  2  3  0 14 59.9990000  0  7 27  2  7 18 16 19 31
  20095607.987    -1659201.542 7  -1242106.951 9
  21170323.683    -2206593.566 7  -1586790.147 8
  22965035.222    -3998607.776 5  -2882620.180 5
  23076373.347     1633396.951 5   1227693.801 5
  23927517.354     -428676.595 5
  20919712.284     -369910.669 7
  22905482.245      778669.711 6    570460.353 6
 94  2  3  0 15 29.9990000  0  7 27  2  7 18 16 19 31
  20084714.456    -1716462.045 7  -1286725.502 9
  21155487.612    -2284538.413 7  -1647526.351 8
  22937246.550    -4144645.050 5  -2996415.337 6
  23088407.347     1696622.335 5   1276960.273 5
  23925626.394     -438630.420 4
  20917826.761     -379808.759 7
  22912127.722      813577.177 6    597660.970 6
 94  2  3  0 15 59.9990000  0  7 27  2  7 18 16 19 31
  20073875.464    -1773412.177 7  -1331102.210 9
  21140709.644    -2362212.364 7  -1708051.474 8
  22909487.972    -4290509.999 5  -3110076.220 6
  23100472.503     1760023.446 5   1326363.663 5
  23923817.909     -448134.731 4
  20915996.097     -389429.914 7   -290123.947 8
  22918850.995      848911.407 6    625194.106 6
 94  2  3  0 16 29.9990000  0  7 27  2  7 18 16 19 31
  20063096.495    -1830059.173 7  -1375242.700 9
  21125980.339    -2439607.129 7  -1768359.042 8
  22881759.644    -4436194.947 5  -3223596.847 6
  23112565.011     1823585.291 5   1375892.307 5
  23922093.979     -457199.141 5
  20914215.347     -398788.588 7   -297416.417 9
  22925653.386      884660.925 6    653050.865 6
 94  2  3  0 16 59.9990000  0  7 27  2  7 18 16 19 31
  20052375.487    -1886397.037 7  -1419142.316 9
  21111307.550    -2516717.329 7  -1828444.870 8
  22854071.956    -4581690.633 5  -3336969.995 5
  23124686.097     1887283.814 5   1425527.460 5
  23920453.815     -465833.157 5        -0.06013
  20912482.276     -407891.242 7   -304509.380 8
  22932532.519      920804.383 6    681214.588 6
 94  2  3  0 17 29.9990000  0  7 27  2  7 18 16 19 31
  20041715.815    -1942421.610 7  -1462797.799 9
  21096684.550    -2593552.718 7  -1888316.554 9
  22826422.558    -4726998.965 5  -3450197.149 5
  23136833.597     1951105.064 5   1475258.254 5
  23918885.698     -474050.559 5     -6403.231 4
  20910799.120     -416744.125 7   -311407.732 9
  22939481.776      957332.386 6    709677.950 6
 94  2  3  0 17 59.9990000  0  7 27  2  7 18 16 19 31
  20031114.448    -1998119.926 7  -1506199.069 9
  21082118.690    -2670112.063 7  -1947973.153 8
  22798815.519    -4872094.056 6  -3563258.157 6
  23149001.425     2015068.329 5   1525099.686 5
  23917400.081     -481868.415 4    -12495.130 5
  20909166.065     -425329.768 7   -318097.846 8
  22946512.050      994267.583 6    738458.601 6
 94  2  3  0 18 29.9990000  0  7 27  2  7 18 16 19 31
  20020579.823    -2053493.218 7  -1549347.063 9
  21067594.534    -2746416.687 7  -2007431.254 8
  22771235.050    -5017003.409 6  -3676174.428 6
  23161200.776     2079172.408 5   1575050.846 5
  23915983.636     -489305.631 4    -18290.407 3
  20907583.292     -433645.440 7   -324577.582 8
  22953613.050     1031590.484 6    767541.373 5
 94  2  3  0 18 59.9990000  0  8 27  2  7 18 16 19 31 26
  20010101.636    -2108538.250 7  -1592239.282 9
  21053124.800    -2822473.263 7  -2066696.076 8
  22743694.862    -5161742.229 6  -3788957.830 6
  23173429.175     2143419.661 5   1625113.558 4
  23914639.284     -496383.789 5    -23805.895 2
  20906053.823     -441681.008 7   -330839.066 8
  22960788.753     1069292.506 6    796919.557 5
  24541971.370          -0.94713
 94  2  3  0 19 29.9990000  0  8 27  2  7 18 16 19 31 26
  19999693.050    -2163243.138 7  -1634866.453 9
  21038702.019    -2898263.123 7  -2125753.073 8
  22716183.472    -5306298.283 6  -3901598.822 6
  23185688.698     2207832.328 5   1675305.172 5
  23913360.128     -503090.783 5    -29032.091 2
  20904577.972     -449430.727 7   -336877.805 8
  22968037.417     1107386.295 6    826603.018 5
  24515587.144     -138585.668 3        -0.45312
 94  2  3  0 19 59.9990000  0  8 27  2  7 18 16 19 31 26
  19989348.972    -2217609.609 7  -1677229.916 9
  21024329.011    -2973781.077 7  -2184598.195 8
  22688710.440    -5450679.561 6  -4014103.629 6
  23197979.472     2272409.245 5   1725624.765 5
  23912156.112     -509431.299 5    -33972.762 2
  20903159.862     -456894.184 7   -342693.478 8
  22975358.526     1145865.568 6    856586.856 5
  24489252.604     -276973.240 3   -107834.817 2
 94  2  3  0 20 29.9990000  0  8 27  2  7 18 16 19 31 26
  19979068.690    -2271628.147 7  -1719322.256 9
  21010011.433    -3049019.646 7  -2243225.605 8
  22661271.073    -5594880.237 6  -4126467.697 6
  23210292.698     2337145.043 5   1776068.184 5
  23911019.800     -515389.547 4    -38615.597 3
  20901793.792     -464068.038 7   -348283.496 8
  22982757.972     1184734.233 6    886874.125 5
  24462959.870     -415173.714 3   -215523.379 2
 94  2  3  0 20 59.9990000  0  8 27  2  7 18 16 19 31 26
  19968851.269    -2325309.709 7  -1761152.045 9
  20995747.675    -3123988.687 7  -2301643.012 8
  22633868.823    -5738871.848 6  -4238668.894 6
  23222639.565     2402030.748 5   1826628.373 5
  23909962.144     -520956.827 4    -42953.801 4
  20900480.815     -470966.093 7   -353658.609 8
  22990226.105     1223988.473 6    917461.814 5
  24436693.104     -553187.644 3   -323066.612 3
 94  2  3  0 21 29.9990000  0  8 27  2  7 18 16 19 31 26
  19958696.503    -2378670.159 7  -1802731.596 9
  20981533.261    -3198695.216 7  -2359855.847 8
  22606509.167    -5882656.733 6  -4350708.988 6
  23235014.034     2467055.335 5   1877296.792 5
  23908975.378     -526124.315 4    -46980.438 4
  20899220.886     -477593.526 7   -358822.829 8
  22997767.394     1263621.384 6    948344.597 5
  24410473.128     -691010.778 3   -430461.153 2
 94  2  3  0 21 59.9990000  0  8 27  2  7 18 16 19 31 26
  19948603.745    -2431720.650 7  -1844069.627 9
  20967363.972    -3273152.157 7  -2417874.217 9
  22579184.636    -6026243.377 6  -4462594.628 6
  23247413.214     2532206.220 5   1928063.640 4
  23908070.839     -530908.096 4    -50708.120 3
  20898008.886     -483949.296 7   -363775.373 8
  23005383.925     1303633.516 6    979522.869 5
  24384273.456     -828651.384 3   -537713.489 2
 94  2  3  0 22 29.9990000  0  8 27  2  7 18 16 19 31 26
  19938567.769    -2484454.472 7  -1885160.896 9
  20953241.784    -3347358.283 7  -2475697.145 9
  22551906.159    -6169614.345 6  -4574312.204 6
  23259836.136     2597494.032 5   1978937.191 5
  23907229.729     -535304.243 3    -54133.725 2
  20896853.784     -490026.025 7   -368510.476 8
  23013070.112     1344027.865 6   1010998.976 5
  24358125.347     -966091.174 4   -644809.343 1
 94  2  3  0 22 59.9980000  0  8 27  2  7 18 16 19 31 26
  19928593.943    -2536866.929 7  -1926001.759 9
  20939172.365    -3421296.921 7  -2533311.637 9
  22524667.076    -6312762.547 6  -4685856.194 6
  23272286.834     2662924.236 5   2029921.696 5
  23906466.014     -539310.674 3    -57255.665 2
  20895755.271     -495804.669 7   -373013.312 8
  23020827.709     1384802.562 6   1042771.454 5
  24332009.068    -1103312.565 3   -751734.979 2
 94  2  3  0 23 29.9980000  0  8 27  2  7 18 16 19 31 26
  19918679.295    -2588973.854 7  -1966604.545 9
  20925150.334    -3494982.933 7  -2590729.278 9
  22497460.123    -6455712.820 6  -4797245.952 6
  23284764.037     2728487.565 5   2081009.921 5
  23905774.951     -542949.047 4    -60090.790 4
  20894712.201     -501281.433 7   -377280.916 8
  23028659.740     1425959.525 6   1074841.803 5
  24305935.232    -1240345.585 3   -858513.856 2
 94  2  3  0 23 59.9980000  0  8 27  2  7 18 16 19 31 26
  19908823.662    -2640759.055 7  -2006956.639 9
  20911176.436    -3568415.989 7  -2647949.810 9
  22470302.068    -6598440.046 6  -4908461.911 6
  23297269.186     2794193.596 5   2132209.347 5
  23905158.592     -546211.280 4    -62632.845 3
  20893726.834     -506456.303 7   -381313.280 8
  23036565.779     1467504.742 6   1107214.697 5
  24279887.553    -1377190.951 4   -965146.533 2
 94  2  3  0 24 29.9980000  0  8 27  2  7 18 16 19 31 26
  19899030.201    -2692222.013 7  -2047057.636 9
  20897252.881    -3641586.209 7  -2704965.539 9
  22443183.904    -6740934.339 6  -5019496.375 6
  23309797.787     2860043.737 5   2183521.075 4
  23904611.631     -549082.109 3    -64869.894 3
  20892799.904     -511332.542 7   -385112.944 8
  23044542.092     1509421.520 6   1139877.106 5
  24253889.123    -1513848.330 4  -1071632.684 2
 94  2  3  0 24 59.9980000  0  8 27  2  7 18 16 19 31 26
  19889295.576    -2743379.090 7  -2086920.275 9
  20883378.537    -3714497.595 7  -2761779.580 9
  22416112.982    -6883200.175 6  -5130352.824 6
  23322353.748     2926020.814 5   2234931.712 4
  23904135.373     -551572.373 4    -66810.377 3
  20891925.803     -515929.480 7   -388694.971 8
  23052585.428     1551688.378 6   1172812.310 5
  24227912.311    -1650327.814 3  -1177980.218 3
 94  2  3  0 25 29.9980000  0  8 27  2  7 18 16 19 31 26
  19879623.123    -2794216.644 7  -2126533.953 9
  20869554.232    -3787136.109 7  -2818380.985 9
  22389086.350    -7025220.499 6  -5241017.975 6
  23334936.451     2992146.048 5   2286457.799 5
  23903740.607     -553668.062 4    -68443.452 2
  20891101.225     -520255.384 7   -392065.799 8
  23060696.053     1594312.254 6   1206025.720 5
  24201982.959    -1786617.540 4  -1284179.887 1
 94  2  3  0 25 59.9980000  0  8 27  2  7 18 16 19 31 26
  19870014.420    -2844721.985 7  -2165888.743 9
  20855785.209    -3859483.974 7  -2874755.913 9
  22362109.412    -7166986.923 6  -5351485.284 6
  23347549.709     3058407.966 5   2338090.400 4
  23903409.897     -555366.545 3    -69766.973 1
  20890327.662     -524321.039 7   -395233.849 8
  23068873.654     1637277.906 5   1239505.429 5
  24176091.709    -1922694.986 4  -1390214.148 2
 94  2  3  0 26 29.9980000  0  8 27  2  7 18 16 19 31 26
  19860466.709    -2894897.444 7  -2204986.480 9
  20842071.592    -3931549.239 7  -2930910.645 9
  22335176.670    -7308511.185 6  -5461763.901 6
  23360178.076     3124780.590 5   2389809.250 4
  23903163.397     -556699.687 4    -70805.817 1
  20889601.451     -528128.300 7   -398200.536 8
  23077111.006     1680574.387 5   1273242.936 5
  24150229.154    -2058549.437 4  -1496074.666 2
 94  2  3  0 26 59.9980000  0  8 27  2  7 18 16 19 31 26
  19850981.576    -2944726.329 7  -2243814.163 9
  20828409.654    -4003353.916 7  -2986862.306 9
  22308291.467    -7449797.301 6  -5571856.959 6
  23372824.584     3191250.383 5   2441603.813 4
  23902971.021     -557690.702 3    -71578.103 2
  20888929.139     -531672.942 7   -400962.603 8
  23085415.240     1724208.962 5   1307243.880 6
  24124431.357    -2194165.617 4  -1601749.518 4
 94  2  3  0 27 29.9980000  0  8 27  2  7 18 16 19 31 26
  19841567.717    -2994195.825 7  -2282361.805 9
  20814791.115    -4074910.154 7  -3042620.384 8
  22281449.209    -7590862.917 6  -5681778.202 6
  23385491.443     3257798.879 5   2493459.687 4
  23902840.021     -558354.832 3    -72095.669 3
  20888309.647     -534938.312 7   -403507.050 8
  23093784.646     1768195.086 5   1341518.763 5
  24098662.186    -2329539.491 4  -1707235.541 2
 94  2  3  0 27 59.9980000  0  8 27  2  7 18 16 19 31 26
  19832228.357    -3043282.547 7  -2320611.186 9
  20801223.779    -4146208.285 7  -3098177.340 9
  22254650.256    -7731698.826 6  -5791520.454 6
  23398164.404     3324423.681 5   2545375.021 4
  23902782.506     -558697.828 3
  20887741.443     -537898.858 7   -405813.963 8
  23102224.865     1812550.961 5   1376081.760 5
  24072968.725    -2464643.625 4  -1812511.399 2
 94  2  3  0 28 29.9980000  0  8 27  2  7 18 16 19 31 26
  19822955.998    -3091997.374 7  -2358570.778 9
  20787704.318    -4217257.715 7  -3153540.493 9
  22227887.389    -7872317.590 6  -5901093.503 6
  23410859.982     3391134.095 5   2597357.057 3
  23902772.537     -558736.548 3
  20887240.787     -540548.950 7   -407878.973 8
  23110736.842     1857281.308 5   1410936.552 5
  24047301.154    -2599498.768 4  -1917593.237 2
 94  2  3  0 28 59.9980000  0  8 27  2  7 18 16 19 31 26
  19813756.326    -3140347.891 7  -2396246.484 9
  20774231.850    -4288055.891 7  -3208707.847 9
  22201169.248    -8012718.374 6  -6010496.691 6
  23423575.037     3457937.316 5   2649411.442 3
  23902823.662     -558460.432 3
  20886791.311     -542897.432 7   -409708.945 8
  23119319.654     1902380.327 5   1446078.640 5
  24021677.850    -2734115.694 4  -2022489.464 2
 94  2  3  0 29 29.9980000  0  8 27  2  7 18 16 19 31 26
  19804622.576    -3188348.521 7  -2433649.568 9
  20760808.271    -4358591.480 7  -3263670.630 9
  22174500.818    -8152894.106 6  -6119724.525 6
  23436305.459     3524836.050 5   2701540.240 3
  23902939.404     -557859.590 3    -71709.950 1
  20886403.225     -544952.884 7   -411310.603 8
  23127971.771     1947844.051 6   1481504.901 5
  23996105.670    -2868509.640 4  -2127211.933 2
 94  2  3  0 29 59.9980000  0  8 27  2  7 18 16 19 31 26
  19795551.850    -3236001.230 7  -2470781.527 9
  20747438.615    -4428862.221 7  -3318427.018 9
  22147871.826    -8292819.376 6  -6228757.182 6
  23449057.537     3591849.690 5   2753758.582 4
  23903119.998     -556917.755 3    -70976.099 1
  20886062.725     -546734.747 7   -412699.071 8
  23136688.381     1993650.764 5   1517198.438 5
  23970570.201    -3002687.566 4  -2231766.070 1
 94  2  3  0 30 29.9980000  0  8 27  2  7 18 16 19 31 26
  19786550.818    -3283310.695 7  -2507646.023 9
  20734114.092    -4498879.944 7  -3372986.243 9
  22121297.264    -8432479.619 6  -6337583.324 6
  23461829.295     3658981.527 5   2806069.035 3
  23903368.350     -555614.130 3    -69960.340 2
  20885776.803     -548242.958 7   -413874.311 8
  23145467.451     2039789.863 6   1553150.970 5
  23945076.850    -3136647.558 4  -2336150.405 3
 94  2  3  0 30 59.9980000  0  8 27  2  7 18 16 19 31 26
  19777615.615    -3330270.061 7  -2544237.715 9
  20720835.186    -4568654.212 7  -3427355.758 9
  22094769.186    -8571871.345 6  -6446200.208 6
  23474633.787     3726228.355 5   2858469.086 4
  23903684.607     -553930.562 3    -68648.486 2
  20885538.920     -549480.236 7   -414838.407 8
  23154307.373     2086243.871 5   1589348.905 5
  23919627.482    -3270371.202 4  -2440350.533 4
 94  2  3  0 31 29.9980000  0  8 27  2  7 18 16 19 31 26
  19768746.795    -3376878.737 7  -2580556.159 9
  20707601.186    -4638191.752 7  -3481540.827 9
  22068293.631    -8711003.945 6  -6554615.193 6
  23487446.451     3793588.106 5   2910957.099 3
  23904078.084     -551878.485 3    -67049.528 3
  20885355.967     -550441.984 7   -415587.822 8
  23163206.147     2133003.288 5   1625784.803 5
  23894230.529    -3403851.792 4  -2544361.284 3
 94  2  3  0 31 59.9980000  0  8 27  2  7 18 16 19 31 26
  19759945.748    -3423133.589 7  -2616598.892 9
  20694416.514    -4707480.633 7  -3535532.132 8
  22041866.529    -8849874.003 6  -6662825.583 6
  23500285.396     3861066.325 5   2963537.440 2
  23904539.498     -549459.504 3    -65164.672 2
  20885232.834     -551104.661 7   -416104.187 8
  23172162.615     2180068.141 5   1662458.709 5
  23868876.662    -3537070.317 5  -2648167.818 2
 94  2  3  0 32 29.9980000  0  8 27  2  7 18 16 19 31 26
  19751207.428    -3469051.220 7  -2652378.851 9
  20681276.709    -4776525.271 7  -3589333.113 9
  22015487.357    -8988503.693 6  -6770848.662 6
  23513146.248     3928647.169 5   3016197.736 4
  23905061.272     -546696.717 3    -63011.890 4
  20885164.826     -551457.252 7
  23181177.389     2227447.157 5   1699377.423 5
  23843581.326    -3670026.060 5  -2751769.590 2
 94  2  3  0 32 59.9980000  0  8 27  2  7 18 16 19 31 26
  19742535.068    -3514625.770 7  -2687891.481 9
  20668188.389    -4845310.264 7  -3642931.778 9
  21989153.897    -9126896.638 6  -6878687.256 6
  23526031.889     3996330.096 5   3068937.573 3
  23905651.170     -543611.635 3    -60607.981 2
  20885156.318     -551500.231 7
  23190253.490     2275149.208 5   1736547.839 5
  23818322.920    -3802729.411 5  -2855174.700 2
 94  2  3  0 33 29.9980000  0  8 27  2  7 18 16 19 31 26
  19733925.139    -3559862.426 7  -2723140.803 9
  20655151.521    -4913826.450 7  -3696320.977 9
  21962859.693    -9265046.920 6  -6986336.746 6
  23538920.842     4064103.667 5   3121748.064 3
  23906294.443     -540233.502 3    -57975.724 3
  20885203.881     -551239.238 7
  23199394.146     2323181.122 5   1773975.305 5
  23793115.896    -3935191.743 5  -2958391.991 2
 94  2  3  0 33 59.9980000  0  8 27  2  7 18 16 19 31 26
  19725381.686    -3604747.273 7  -2758116.006 9
  20642169.146    -4982053.389 7  -3749484.800 9
  21936620.623    -9402930.072 6  -7093778.082 6
  23551838.811     4131966.185 5   3174627.826 2
  23906995.717     -536550.102 3    -55105.587 4
  20885313.748     -550669.357 7   -415764.986 8
  23208599.561     2371555.937 5   1811669.970 5
  23767957.279    -4067410.368 5  -3061419.413 3
 94  2  3  0 34 29.9980000  0  8 27  2  7 18 16 19 31 26
  19716909.131    -3649275.661 7  -2792813.441 9
  20629237.365    -5050013.963 7  -3802441.069 9
  21910437.396    -9540551.598 6  -7201015.551 7
  23564761.029     4199897.053 5   3227560.869 4
  23907752.240     -532576.278 3    -52009.167 2
  20885475.342     -549821.979 7   -415104.695 8
  23217866.748     2420249.334 5   1849612.868 5
  23742838.928    -4199407.437 5  -3164274.165 3
 94  2  3  0 34 59.9980000  0  8 27  2  7 18 16 19 31 26
  19708512.271    -3693412.524 7  -2827205.791 9
  20616354.709    -5117702.568 7  -3855185.415 9
  21884303.006    -9677880.400 6  -7308024.905 6
  23577708.592     4267905.181 5   3280554.127 2
  23908569.225     -528283.333 3    -48664.070 3
  20885692.404     -548681.207 7   -414215.784 8
  23227194.748     2469262.833 5   1887805.212 5
  23717767.272    -4331155.580 5  -3266934.961 3
 94  2  3  0 35 29.9980000  0  8 27  2  7 18 16 19 31 26
  19700185.928    -3737159.533 7  -2861294.366 9
  20603522.795    -5185135.646 7  -3907730.649 9
  21858224.936    -9814915.735 6  -7414805.583 6
  23590662.709     4335984.966 5   3333603.223 3
  23909450.482     -523660.227 3    -45061.677 1
  20885967.873     -547242.380 7   -413094.616 8
  23236579.357     2518578.891 5   1926233.329 5
  23692752.326    -4462650.907 5  -3369398.734 3
 94  2  3  0 35 59.9980000  0  8 27  2  7 18 16 19 31 26
  19691936.959    -3780516.529 7  -2895079.029 9
  20590735.209    -5252335.468 7  -3960094.120 9
  21832201.584    -9951661.472 6  -7521360.592 6
  23603628.420     4404121.699 5   3386696.672 3
  23910390.639     -518701.996 3    -41198.164 3
  20886297.670     -545509.735 7   -411744.507 8
  23246018.670     2568186.911 5   1964888.927 5
  23667773.623    -4593882.390 5  -3471656.935 3
 94  2  3  0 36 29.9980000  0  8 27  2  7 18 16 19 31 26
  19683758.396    -3823485.938 7  -2928561.664 9
  20577989.686    -5319321.522 7  -4012291.018 9
  21806237.295   -10088113.810 6  -7627686.971 6
  23616606.850     4472325.010 4   3439842.038 2
  23911401.022     -513410.083 3    -37074.617 2
  20886681.131     -543477.286 7   -410160.777 8
  23255513.240     2618087.030 5   2003772.155 5
  23642858.256    -4724829.570 5  -3573693.614 3
 94  2  3  0 36 59.9980000  0  8 27  2  7 18 16 19 31 26
  19675653.537    -3866087.602 7  -2961757.755 9
  20565281.725    -5386090.696 7  -4064318.931 9
  21780323.545   -10224287.361 6  -7733796.125 7
  23629599.818     4540590.333 4   3493035.707 2
  23912466.014     -507797.821 3    -32701.456 3
  20887126.123     -541147.077 7   -408345.038 8
  23265063.678     2668279.190 5   2042882.941 5
  23617994.389    -4855490.988 5  -3675507.631 2
 94  2  3  0 37 29.9980000  0  8 27  2  7 18 16 19 31 26
  19667611.920    -3908335.478 7  -2994678.159 9
  20552621.803    -5452623.655 7  -4116162.768 9
  21754463.092   -10360177.711 6  -7839684.603 7
  23642603.061     4608921.091 5   3546280.342 2
  23913590.818     -501880.142 3    -28090.302 2
  20887621.607     -538539.947 7   -406313.494 8
  23274672.193     2718766.960 5   2082224.065 5
  23593183.154    -4985864.952 5  -3777097.644 4
 94  2  3  0 37 59.9980000  0  8 27  2  7 18 16 19 31 26
  19659638.584    -3950234.864 7  -3027327.030 9
  20540009.381    -5518905.997 7  -4167811.322 9
  21728662.732   -10495765.520 6  -7945337.348 7
  23655618.943     4677319.735 5   3599577.883 2
  23914773.607     -495661.011 3    -23244.268 3
  20888171.123     -535652.898 7   -404063.847 8
  23284340.709     2769560.671 5   2121803.584 5
  23568432.607    -5115937.191 5  -3878452.550 3
 94  2  3  0 38 29.9980000  0  8 27  2  7 18 16 19 31 26
  19651727.811    -3991800.845 7  -3059716.104 9
  20527446.693    -5584932.307 7  -4219260.370 9
  21702918.279   -10631055.062 6  -8050757.668 7
  23668646.482     4745784.542 5   3652926.973 2
  23916011.943     -489158.302 3    -18177.289 2
  20888772.365     -532495.097 7   -401603.237 8
  23294056.240     2820640.395 5   2161605.958 5
  23543730.904    -5245731.814 5  -3979591.114 3
 94  2  3  0 38 59.9980000  0  8 27  2  7 18 16 19 31 26
  19643884.521    -4033017.082 7  -3091832.648 9
  20514935.975    -5650672.578 7  -4270486.529 9
  21677232.162   -10766037.132 6  -8155938.412 7
  23681685.303     4814311.174 4   3706324.247 3
  23917308.959     -482363.217 3    -12882.449 2
  20889425.443     -529060.327 7   -398926.805 8
  23303834.264     2872012.170 5   2201635.919 5
  23519083.873    -5375243.893 5  -4080509.537 4
 94  2  3  0 39 29.9980000  0  8 27  2  7 18 16 19 31 26
  19636106.662    -4073892.786 7  -3123683.836 9
  20502475.357    -5716147.797 7  -4321506.153 9
  21651607.006   -10900706.764 6  -8260875.695 7
  23694733.678     4882887.025 4   3759759.849 3
  23918651.607     -475286.032 3     -7367.800 4
  20890133.397     -525351.773 7   -396037.023 8
  23313665.264     2923669.209 5   2241888.176 5
  23494494.076    -5504476.931 5  -4181210.506 4
 94  2  3  0 39 59.9980000  0  8 27  2  7 18 16 19 31 26
  19628396.772    -4114404.060 7  -3155251.056 9
  20490067.787    -5781354.016 7  -4372316.165 9
  21626034.787   -11035065.055 6  -8365570.370 7
  23707793.646     4951514.494 4   3813235.657 1
  23920049.248     -467919.578 3     -1627.728 2
  20890895.779     -521337.309 7   -392908.871 8
  23323551.561     2975622.011 5   2282370.884 5
  23469952.936    -5633425.005 5  -4281689.436 4
 94  2  3  0 40 29.9980000  0  8 27  2  7 18 16 19 31 26
  19620759.154    -4154545.664 7  -3186530.228 9
  20477708.818    -5846296.721 7  -4422920.848 9
  21600522.522   -11169144.766 6  -8470047.978 7
  23720862.850     5020177.532 4   3866739.188 2
  23921509.795     -460272.216 3      4331.190 2
  20891716.850     -517028.054 7   -389551.019 8
  23333492.365     3027868.367 5   2323082.345 5
  23445466.498    -5762099.565 5  -4381955.234 4
 94  2  3  0 40 59.9970000  0  8 27  2  7 18 16 19 31 26
  19613193.821    -4194306.154 7  -3217512.423 9
  20465399.095    -5910979.791 7  -4473323.208 9
  21575059.665   -11302947.123 6  -8574309.474 7
  23733935.649     5088867.335 4   3920263.598 2
  23923018.774     -452342.988 3     10509.728 1
  20892593.220     -512416.611 7   -385957.680 8
  23343493.306     3080417.437 5   2364029.684 5
  23421039.306    -5890487.552 5  -4481997.740 3
 94  2  3  0 41 29.9970000  0  8 27  2  7 18 16 19 31 26
  19605702.048    -4233687.979 7  -3248199.555 9
  20453134.829    -5975420.569 7  -4523536.785 9
  21549648.790   -11436482.543 6  -8678362.962 7
  23747007.985     5157599.589 3   3973821.090 2
  23924579.845     -444135.258 3     16905.341 1
  20893530.064     -507488.720 7   -382117.770 8
  23353546.978     3133263.593 5   2405208.517 5
  23396658.228    -6018594.337 5  -4581821.116 5
 94  2  3  0 41 59.9970000  0  8 27  2  7 18 16 19 31 26
  19598278.142    -4272680.757 7  -3278583.521 9
  20440921.103    -6039615.761 7  -4573558.988 9
  21524288.837   -11569749.376 6  -8782207.157 7
  23760098.064     5226368.571 4   4027407.226 3
  23926197.939     -435641.975 3     23523.437 2
  20894528.345     -502247.034 7   -378033.340 8
  23363657.931     3186389.923 5   2446605.669 5
  23372337.923    -6146419.844 5  -4681425.311 4
 94  2  3  0 42 29.9970000  0  8 27  2  7 18 16 19 31 26
  19590934.587    -4311284.380 7  -3308664.247 9
  20428749.353    -6103573.872 7  -4623396.451 9
  21498988.876   -11702711.977 6  -8885814.294 7
  23773198.853     5295197.149 4   4081039.796 2
  23927877.728     -426847.612 3     30376.147 1
  20895585.767     -496685.760 7   -373699.883 8
  23373820.993     3239794.374 5   2488219.542 5
  23348063.814    -6273952.363 5  -4780801.208 3
 94  2  3  0 42 59.9970000  0  8 27  2  7 18 16 19 31 26
  19583659.149    -4349509.131 7  -3338449.765 9
  20416623.774    -6167309.960 7  -4673060.913 9
  21473749.798   -11835346.290 6  -8989165.630 7
  23786299.907     5364090.565 3   4134722.856 2
  23929601.376     -417760.965 3     37456.603 1
  20896703.939     -490808.208 7   -369119.983 8
  23384032.743     3293449.509 5   2530028.742 5
  23323855.634    -6401188.995 5  -4879946.562 2
 94  2  3  0 43 29.9970000  0  8 27  2  7 18 16 19 31 26
  19576458.759    -4387355.214 7  -3367940.212 9
  20404533.610    -6230822.708 7  -4722551.342 9
  21448576.860   -11967627.278 6  -9092241.639 7
  23799427.696     5433052.467 3   4188459.318 2
  23931381.501     -408379.587 3     44766.732 1
  20897882.618     -484620.814 7   -364298.662 8
  23394287.563     3347350.891 5   2572029.833 4
  23299698.696    -6528113.025 5  -4978848.324 3
 94  2  3  0 43 59.9970000  0  8 27  2  7 18 16 19 31 26
  19569330.853    -4424815.106 7  -3397129.736 9
  20392492.407    -6294101.195 7  -4771859.238 9
  21423474.657   -12099540.215 6  -9195030.853 7
  23812564.813     5502066.317 3   4242236.220 3
  23933228.235     -398702.676 3     52307.114 3
  20899115.899     -478140.037 7   -359248.717 8
  23404592.837     3401503.795 5   2614226.912 4
  23275611.907    -6654716.644 5  -5077500.424 4
 94  2  3  0 44 29.9970000  0  8 27  2  7 18 16 19 31 26
  19562273.306    -4461895.020 7  -3426023.171 9
  20380494.954    -6357155.032 7  -4820992.086 9
  21398439.626   -12231100.723 6  -9297545.449 7
  23825699.189     5571119.047 3   4296043.447 2
  23935119.009     -388756.809 3     60057.065 3
  20900402.415     -471376.336 7   -353978.300 8
  23414947.563     3455905.785 5   2656618.078 5
  23251581.329    -6780990.870 5  -5175895.834 5
 94  2  3  0 44 59.9970000  0  8 27  2  7 18 16 19 31 26
  19555290.970    -4498585.355 7  -3454613.023 9
  20368541.970    -6419973.309 7  -4869941.374 9
  21373463.642   -12362339.854 6  -9399809.614 7
  23838842.712     5640184.881 3   4349860.847 1
  23937058.673     -378554.325 3     68006.984 4
  20901741.978     -464342.506 7   -348497.400 8
  23425343.704     3510558.505 5   2699204.640 3
  23227616.876    -6906933.374 5  -5274032.760 4
 94  2  3  0 45 29.9970000  0  8 27  2  7 18 16 19 31 26
  19548388.431    -4534859.197 7  -3482878.345 9
  20356634.532    -6482541.147 7  -4918695.508 9
  21348550.954   -12493260.119 6  -9501825.319 7
  23851996.540     5709272.997 3   4403695.637 2
  23939052.228     -368080.511 3     76168.367 3
  20903132.696     -457029.883 7   -342799.264 8
  23435796.829     3565491.143 5   2742009.317 4
  23203715.673    -7032531.999 5  -5371901.745 4
 94  2  3  0 45 59.9970000  0  8 27  2  7 18 15 19 31 26
  19541561.626    -4570742.501 7  -3510839.376 9
  20344771.384    -6544878.084 7  -4967269.727 9
  21323692.298   -12623890.146 6  -9603614.861 7
  23865135.720     5778368.453 3   4457536.128 2
  23895155.056          -0.86214
  20904574.517     -449450.236 7   -336893.075 8
  23446301.282     3620688.388 5   2785020.168 4
  23179874.243    -7157815.281 5  -5469525.006 4
 94  2  3  0 46 29.9970000  0  8 27  2  7 18 15 19 31 26
  19534810.306    -4606220.282 7  -3538484.399 9
  20332955.571    -6606978.682 7  -5015659.779 9
  21298893.157   -12754213.915 6  -9705165.764 7
  23878291.860     5847490.320 3   4511397.208 2
  23875832.720     -101504.509 3
  20906073.110     -441582.054 7   -330762.029 8
  23456856.478     3676165.085 5   2828248.793 3
  23156090.485    -7282779.915 5  -5566899.975 4
 94  2  3  0 46 59.9970000  0  8 27  2  7 18 15 19 31 26
  19528130.626    -4641308.978 7  -3565826.238 9
  20321185.353    -6668834.929 7  -5063859.423 9
  21274155.259   -12884211.389 6  -9806462.414 8
  23891455.392     5916632.745 3   4565274.328 1
  23856575.767     -202738.285 3
  20907623.751     -433431.670 7   -324411.081 8
  23467464.673     3731910.370 5   2871686.714 5
  23132367.642    -7407442.208 5  -5664039.350 4
 94  2  3  0 47 29.9970000  0  8 27  2  7 18 15 19 31 26
  19521528.321    -4676018.389 7  -3592872.530 9
  20309460.407    -6730433.310 7  -5111858.135 9
  21249487.946   -13013847.563 6  -9907477.518 7
  23904618.735     5985810.852 3   4619179.273 3
  23837343.462     -303690.776 3        -0.11912
  20909232.290     -424982.910 7   -317827.637 8
  23478121.829     3787916.691 5   2915328.026 4
  23108707.290    -7531796.668 5  -5760938.853 3
 94  2  3  0 47 59.9970000  0  8 27  2  7 18 15 19 31 26
  19514990.071    -4710361.393 7  -3619633.313 9
  20297791.126    -6791771.553 7  -5159654.144 9
  21224889.478   -13143116.918 6 -10008206.797 7
  23917786.978     6055012.784 3   4673102.717 2
  23818199.212     -404359.585 3    -78443.343 2
  20910899.665     -416225.067 7   -311003.354 8
  23488831.485     3844166.810 5   2959159.313 5
  23085095.939    -7655842.065 5  -5857597.543 5
 94  2  3  0 48 29.9970000  0  8 27  2  7 18 15 19 31 26
  19508529.556    -4744326.499 7  -3646099.635 9
  20286168.118    -6852840.835 7  -5207240.577 9
  21200356.853   -13272020.633 6 -10108651.157 8
  23930958.688     6124229.799 3   4727037.970 1
  23799099.642     -504737.124 3   -156659.577 2
  20912623.970     -407155.153 7   -303935.903 8
  23499578.571     3900647.075 5   3003169.923 5
  23061558.610    -7779561.857 5  -5954002.513 4
 94  2  3  0 48 59.9970000  0  8 27  2  7 18 15 19 31 26
  19502133.853    -4777929.750 7  -3672283.994 9
  20274596.720    -6913648.296 7  -5254622.978 9
  21175895.720   -13400572.710 6 -10208821.514 8
  23944122.376     6193460.880 3   4780984.176 1
  23780055.985     -604823.496 3   -234648.923 4
  20914409.813     -397775.725 7   -296627.275 8
  23510368.353     3957334.807 5   3047342.216 5
  23038079.337    -7902953.020 5  -6050151.413 5
 94  2  3  0 49 29.9970000  0  8 27  2  7 18 15 19 31 26
  19495811.681    -4811143.443 7  -3698164.795 9
  20263075.587    -6974200.797 7  -5301806.713 9
  21151500.267   -13528775.768 6 -10308719.908 8
  23957314.212     6262726.978 3   4834957.692 2
  23761069.993     -704598.632 4   -312395.741 3
  20916257.532     -388057.742 7   -289054.833 8
  23521194.056     4014239.067 5   3091683.206 4
  23014664.634    -8025989.583 5  -6146023.993 4
 94  2  3  0 49 59.9970000  0  8 27  2  7 18 15 19 31 26
  19489570.782    -4843942.542 7  -3723722.538 9
  20251598.814    -7034511.281 7  -5348801.877 9
  21127168.056   -13656637.627 6 -10408352.445 8
  23970506.876     6332031.412 3   4888961.079 2
  23742145.509     -804057.364 4   -389896.021 2
  20918173.001     -377997.150 7   -281215.416 8
  23532062.970     4071367.123 5   3136198.601 5
  22991323.017    -8148651.767 5  -6241604.860 4
 94  2  3  0 50 29.9970000  0  8 27  2  7 18 15 19 31 26
  19483406.274    -4876340.251 7  -3748967.509 9
  20240164.657    -7094598.084 7  -5395622.745 9
  21102898.204   -13784174.633 6 -10507731.855 8
  23983689.938     6401354.007 3   4942978.617 2
  23723276.915     -903219.241 4   -467164.934 2
  20920145.157     -367625.249 7   -273133.416 8
  23542972.110     4128697.713 5   3180871.815 4
  22968049.860    -8270960.563 5  -6336910.343 5
 94  2  3  0 50 59.9970000  0  8 27  2  7 18 15 19 31 26
  19477320.282    -4908321.085 7  -3773887.637 9
  20228774.587    -7154453.400 7  -5442263.224 9
  21078693.634   -13911364.827 6 -10606841.022 8
  23996885.407     6470707.509 3   4997020.250 1
  23704452.204    -1002073.344 3   -544194.065 3
  20922182.110     -356928.089 7   -264797.971 7
  23553927.665     4186249.164 5   3225717.129 4
  22944835.853    -8392920.784 5  -6431944.216 4
 94  2  3  0 51 29.9970000  0  8 27  2  7 18 15 19 31 26
  19471318.876    -4939865.778 7  -3798467.911 9
  20217429.595    -7214064.603 7  -5488713.490 9
  21054558.009   -14038201.785 6 -10705674.938 8
  24010090.876     6540092.510 3   5051086.405 1
  23685695.767    -1100612.425 3   -620977.701 3
  20924277.493     -345907.005 6   -256210.133 7
  23564922.415     4244038.932 5   3270748.146 4
  22921699.938    -8514533.849 5  -6526707.575 5
 94  2  3  0 51 59.9970000  0  8 27  2  7 18 15 19 31 26
  19465396.040    -4971003.559 7  -3822731.114 9
  20206131.564    -7273432.670 7  -5534974.299 9
  21030488.556   -14164696.988 6 -10804242.567 8
  24023298.485     6609468.489 3   5105145.514 1
  23667016.024    -1198853.795 4   -697529.354 2
  20926431.321     -334597.018 7   -247397.174 7
  23575961.892     4302053.151 5   3315954.056 3
  22898612.978    -8635830.457 5  -6621224.347 5
 94  2  3  0 52 29.9970000  0  8 27  2  7 18 15 19 31 26
  19459538.462    -5001754.178 7  -3846692.631 9
  20194882.532    -7332556.275 7  -5581044.622 9
  21006481.274   -14290844.763 6 -10902539.477 8
  24036483.579     6678825.973 3   5159190.240 1
  23648384.415    -1296792.823 4   -773845.382 4
  20928636.157     -323005.964 7   -238365.215 7
  23587045.978     4360299.266 5   3361340.666 4
  22875591.415    -8756821.395 5  -6715502.939 5
 94  2  3  0 52 59.9970000  0  8 27  2  7 18 15 19 31 26
  19453767.118    -5032109.859 7  -3870346.413 9
  20183676.353    -7391430.476 7  -5626920.610 9
  20982546.157   -14416627.627 6 -11000552.043 8
  24049686.665     6748172.377 3   5213226.334 1
  23629800.868    -1394409.802 4   -849910.459 2
  20930899.532     -311118.103 7   -229101.949 7
  23598176.509     4418796.622 5   3406923.056 3
  22852632.259    -8877477.213 5  -6809520.393 5
 94  2  3  0 53 29.9970000  0  8 27  2  7 18 15 19 31 26
  19448059.813    -5062083.797 7  -3893702.735 9
  20172520.438    -7450067.843 7  -5672612.046 9
  20958679.571   -14542048.285 6 -11098282.375 8
  24062879.485     6817488.375 3   5267238.762 1
  23611271.954    -1491711.257 4   -925729.699 4
  20933214.931     -298945.125 7   -219616.531 7
  23609354.095     4477535.162 5   3452693.388 3
  22829735.048    -8997784.129 5  -6903265.969 5
 94  2  3  0 53 59.9970000  0  7 27  2  7 15 19 31 26
  19442427.407    -5091684.539 7  -3916768.249 9
  20161403.899    -7508485.842 7  -5718132.549 9
  20934880.493   -14667101.487 6 -11195726.385 8
  23592840.189    -1588702.709 4  -1001307.337 4
  20935586.790     -286490.906 7   -209911.971 7
  23620576.837     4536491.917 5   3498633.747 2
  22806913.337    -9117722.106 5  -6996724.076 5
 94  2  3  0 54 29.9970000  0  7 27  2  7 15 19 31 26
  19436873.556    -5120880.461 7  -3939518.303 9
  20150329.407    -7566677.873 7  -5763476.967 9
  20911158.837   -14791765.290 6 -11292866.974 8
  23574431.798    -1685366.239 4  -1076629.476 4
  20938012.993     -273736.793 7   -199973.735 7
  23631837.798     4595676.796 5   3544751.868 3
  22784165.282    -9237264.148 5  -7089873.666 5
 94  2  3  0 54 59.9970000  0  7 27  2  7 15 19 31 26
  19431398.415    -5149654.611 7  -3961939.712 9
  20139300.438    -7624637.272 7  -5808640.122 9
  20887512.243   -14916034.977 6 -11389700.465 8
  23556091.228    -1781701.834 4  -1151696.059 4
  20940496.439     -260674.241 6   -189795.143 7
  23643137.126     4655068.387 5   3591031.042 3
  22761492.360    -9356413.939 5  -7182717.596 5
 94  2  3  0 55 29.9970000  0  7 27  2  7 15 19 31 26
  19426005.024    -5177997.092 7  -3984024.755 9
  20128316.454    -7682356.832 7  -5853616.376 9
  20863937.798   -15039913.475 6 -11486229.132 8
  23537827.353    -1877706.705 4  -1226504.953 4
  20943040.126     -247308.288 6   -179380.130 7
  23654479.689     4714652.356 5   3637460.159 4
  22738890.282    -9475182.661 5  -7275264.606 5
 94  2  3  0 55 59.9970000  0  7 27  2  7 15 19 31 26
  19420690.954    -5205908.218 7  -4005773.682 9
  20117379.595    -7739844.130 7  -5898411.671 9
  20840436.712   -15163414.062 6 -11582463.327 8
  23519621.649    -1973380.136 4  -1301055.584 5
  20945640.368     -233643.345 6   -168732.138 7
  23665850.353     4774417.954 5   3684030.789 2
  22716363.704    -9593586.863 5  -7367527.575 5
 94  2  3  0 56 29.9970000  0  7 27  2  7 15 19 31 26
  19415461.665    -5233398.943 7  -4027195.012 9
  20106481.837    -7797098.554 7  -5943025.487 9
  20817009.501   -15286530.692 6 -11678398.332 8
  23501484.837    -2068715.436 4  -1375342.742 4
  20948300.774     -219671.564 6   -157845.049 7
  23677260.790     4834375.664 4   3730751.113 4
  22693894.813    -9711642.486 5  -7459518.941 5
 94  2  3  0 56 59.9970000  0  7 27  2  7 15 19 31 26
  19410309.649    -5260475.873 7  -4048293.904 9
  20095629.376    -7854125.261 7  -5987461.870 9
  20793651.532   -15409273.664 6 -11774042.183 8
  23483406.384    -2163712.873 4  -1449366.604 4
  20951017.814     -205393.128 6   -146719.014 7
  23688703.704     4894515.388 5   3777613.283 5
  22671494.829    -9829344.577 5  -7551234.808 5
 94  2  3  0 57 29.9970000  0  7 27  2  7 15 19 31 26
  19405231.532    -5287151.484 7  -4069080.100 9
  20084819.649    -7910936.492 7  -6031730.345 9
  20770362.485   -15531653.615 6 -11869403.159 8
  23465388.501    -2258373.320 4  -1523127.892 4
  20953790.829     -190820.416 6   -135363.663 7
  23700185.665     4954855.872 4   3824631.882 5
  22649168.267    -9946684.893 5  -7642668.767 5
 94  2  3  0 57 59.9970000  0  7 27  2  7 15 19 31 26
  19400231.579    -5313426.255 7  -4089553.944 9
  20074050.126    -7967537.521 7  -6075835.022 9
  20747146.399   -15653655.710 6 -11964469.699 8
  23447442.540    -2352690.592 4  -1596621.741 3
  20956621.079     -175948.006 6   -123774.793 7
  23711709.782     5015417.005 4   3871822.419 4
  22626911.306   -10063651.184 5  -7733811.282 5
 94  2  3  0 58 29.9970000  0  7 27  2  7 15 19 31 26
  19395310.938    -5339293.453 7  -4109710.194 9
  20063321.829    -8023909.612 7  -6119761.314 9
  20724004.353   -15775275.445 6 -12059238.298 8
  23429558.837    -2446659.547 4  -1669844.198 4
  20959507.767     -160780.262 6   -111955.790 7
  23723274.814     5076195.601 3   3919182.402 4
  22604723.970   -10180229.798 5  -7824651.717 5
 94  2  3  0 58 59.9960000  0  7 27  2  7 15 19 31 26
  19390467.684    -5364738.063 7  -4129537.180 9
  20052638.418    -8080047.113 7  -6163504.804 9
  20700933.520   -15896510.890 6 -12153707.441 8
  23411745.770    -2540278.574 4  -1742793.975 4
  20962449.988     -145328.632 6    -99915.595 7
  23734879.152     5137179.412 3   3966702.292 4
  22582619.621   -10296409.257 5  -7915181.119 5
 94  2  3  0 59 29.9960000  0  7 27  2  7 15 19 31 26
  19385707.270    -5389762.419 7  -4149036.675 9
  20042000.168    -8135952.825 7  -6207067.682 9
  20677938.082   -16017349.582 7 -12247867.433 8
  23393998.074    -2633550.961 4  -1815473.645 4
  20965443.551     -129582.229 6    -87645.687 7
  23746524.832     5198362.708 3   4014377.631 3
  22560585.535   -10412202.075 5  -8005409.230 5
 94  2  3  0 59 59.9960000  0  7 27  2  7 15 19 31 26
  19381022.066    -5414371.389 7  -4168212.501 9
  20031407.168    -8191627.759 7  -6250450.732 9
  20655020.488   -16137782.009 7 -12341710.852 8
  23376323.887    -2726470.700 4  -1887878.540 3
  20968499.129     -113530.009 6    -75137.482 7
  23758193.832     5259706.163 4   4062177.762 4
  22538623.004   -10527595.014 5  -8095325.768 5
 94  2  3  1  0 29.9960000  0  6 27  2  7 15 19 26
  19376417.762    -5438569.193 7  -4187067.930 9
  20020854.848    -8247077.023 7  -6293657.935 9
  20632179.137   -16257810.687 7 -12435239.663 8
  23358694.434    -2819031.520 4  -1960003.754 4
  20971614.973      -97162.546 6    -62383.627 7
  22516740.270   -10642580.630 5  -8184924.896 5
 94  2  3  1  0 59.9960000  0  6 27  2  7 15 19 26
  19371890.106    -5462374.727 7  -4205617.691 9
  20010340.832    -8302321.547 7  -6336705.603 9
  20609414.457   -16377440.084 7 -12528457.339 8
  23341152.191    -2911234.959 4  -2031850.490 4
  20974786.730      -80481.925 6    -49385.742 7
  22494935.629   -10757169.324 5  -8274214.732 5
 94  2  3  1  1 29.9960000  0  6 27  2  7 15 19 26
  19367428.965    -5485804.271 7  -4223874.463 9
  19999867.832    -8357367.216 7  -6379598.312 9
  20586721.848   -16496691.980 7 -12621380.853 8
  23323679.668    -3003079.575 4  -2103417.652 4
  20978021.301      -63487.265 6    -36143.162 7
  22473207.926   -10871371.726 5  -8363203.546 5
 94  2  3  1  1 59.9960000  0  6 27  2  7 15 19 26
  19363041.426    -5508864.155 7  -4241843.219 9
  19989429.598    -8412212.968 7  -6422335.258 9
  20564098.387   -16615579.048 7 -12714020.106 8
  23306267.902    -3094560.485 4  -2174701.408 5
  20981314.816      -46193.398 6    -22667.463 7
  22451546.559   -10985191.116 5  -8451893.954 5
 94  2  3  1  2 29.9960000  0  6 27  2  7 15 19 26
  19358727.457    -5531541.042 7  -4259513.524 9
  19979033.340    -8466839.143 7  -6464901.088 9
  20541545.379   -16734097.300 7 -12806371.956 9
  23288930.996    -3185676.437 4  -2245700.778 5
  20984658.801      -28614.171 6     -8969.383 7
  22429954.551   -11098646.613 5  -8540300.781 5
 94  2  3  1  2 59.9960000  0  6 27  2  7 15 19 26
  19354487.199    -5553821.170 7  -4276874.651 9
  19968685.145    -8521225.056 7  -6507279.694 9
  20519064.418   -16852235.627 7 -12898427.752 9
  23271654.871    -3276424.988 4  -2316413.859 4
  20988058.168      -10745.234 6      4954.454 7
  22408433.356   -11211747.444 5  -8628431.256 5
 94  2  3  1  3 29.9960000  0  6 27  2  7 15 19 26
  19350325.629    -5575689.239 7  -4293914.705 9
  19958381.973    -8575366.212 7  -6549467.584 9
  20496660.316   -16969976.501 7 -12990173.860 9
  23254460.356    -3366807.276 4  -2386841.559 5
  20991516.051        7420.656 6     19109.672 7
  22386982.176   -11324481.675 5  -8716276.066 5
 94  2  3  1  3 59.9960000  0  6 27  2  7 15 19 26
  19346248.457    -5597117.187 7  -4310611.786 9
  19948129.434    -8629241.339 7  -6591448.173 9
  20474335.855   -17087286.944 7 -13081584.553 9
  23237333.074    -3456809.241 4  -2456972.882 3
  20995029.449       25885.361 6     33497.729 7
  22365601.199   -11436823.093 5  -8803814.755 5
 94  2  3  1  4 29.9960000  0  6 27  2  7 15 19 26
  19342258.129    -5618093.166 7  -4326956.711 9
  19937928.129    -8682851.269 7  -6633222.133 9
  20452094.488   -17204165.151 7 -13172658.448 9
  23220277.723    -3546431.790 4  -2526808.604 4
  20998601.387       44654.851 6     48123.277 7
  22344301.809   -11548756.729 5  -8891035.715 5
 94  2  3  1  4 59.9960000  0  6 27  2  7 15 19 26
  19338347.059    -5638627.213 7  -4342957.256 9
  19927773.934    -8736222.092 7  -6674809.755 9
  20429931.785   -17320629.918 7 -13263410.164 9
  23203298.488    -3635680.890 4  -2596353.305 4
  21002227.473       63724.989 6     62983.111 7
  22323082.199   -11660278.423 5  -8977935.679 5
 94  2  3  1  5 29.9960000  0  6 27  2  7 15 19 26
  19334524.660    -5658723.210 7  -4358616.475 9
  19917657.879    -8789372.341 7  -6716225.511 9
  20407845.770   -17436693.065 7 -13353848.943 9
  23186392.410    -3724551.865 4  -2665603.366 5
  21005913.418       83080.282 6     78065.146 7
  22301942.801   -11771369.079 5  -9064499.791 5
 94  2  3  1  5 59.9960000  0  6 27  2  7 15 19 26
  19330781.496    -5678390.515 7  -4373941.623 9
  19907586.691    -8842306.861 7  -6757473.154 9
  20385832.730   -17552370.395 7 -13443987.071 9
  23169545.871    -3813043.872 4  -2734558.146 4
  21009647.113      102705.610 6     93357.597 7
  22280881.129   -11882035.073 5  -9150732.983 5
 94  2  3  1  6 29.9960000  0  6 27  2  7 15 19 26
  19327117.676    -5697644.990 7  -4388945.103 9
  19897547.418    -8895054.313 7  -6798575.037 9
  20363893.770   -17667665.771 7 -13533827.584 9
  23152776.762    -3901164.257 4  -2803223.327 4
  21013434.496      122600.560 6    108860.150 7
  22259899.926   -11992287.332 5  -9236643.784 5
 94  2  3  1  6 59.9960000  0  6 27  2  7 15 19 26
  19323537.090    -5716470.460 7  -4403614.307 9
  19887547.957    -8947601.125 7  -6839520.584 9
  20342031.543   -17782547.284 7 -13623345.609 9
  23136083.793    -3988890.571 4  -2871581.439 4
  21017272.457      142776.395 6    124581.550 7
  22239004.324   -12102110.734 5  -9322220.427 5
 94  2  3  1  7 29.9960000  0  6 27  2  7 15 19 26
  19320034.387    -5734878.256 7  -4417958.028 9
  19877584.168    -8999962.185 7  -6880321.375 9
  20320249.723   -17897007.794 7 -13712535.569 9
  23119461.848    -4076229.691 4  -2939637.838 5
  21021165.848      163230.553 6    140519.822 7
  22218184.949   -12211521.086 6  -9407475.199 5
 94  2  3  1  7 59.9960000  0  6 27  2  7 15 19 26
  19316611.207    -5752854.895 7  -4431965.808 9
  19867659.551    -9052120.345 7  -6920964.079 9
  20298555.293   -18011021.402 7 -13801377.312 9
  23102916.254    -4163173.753 5  -3007386.414 3
  21025116.535      183990.548 6    156696.403 7
  22197438.418   -12320528.526 5  -9492416.026 5
 94  2  3  1  8 29.9960000  0  6 27  2  7 15 19 26
  19313270.988    -5770409.138 7  -4445644.421 9
  19857770.332    -9104088.850 7  -6961458.987 9
  20276943.574   -18124588.729 7 -13889871.291 9
  23086442.645    -4249727.515 4  -3074830.833 4
  21029126.090      205060.911 6    173114.852 7
  22176769.106   -12429150.569 5  -9577056.531 5
 94  2  3  1  8 59.9960000  0  6 27  2  7 15 19 26
  19310011.691    -5787537.755 7  -4458991.401 9
  19847919.754    -9155849.384 7  -7001791.831 9
  20255416.387   -18237715.625 7 -13978022.070 9
  23070058.527    -4335880.141 5  -3141962.690 4
  21033196.324      226452.989 6    189783.992 7
  22156173.699   -12537387.361 5  -9661396.839 5
 94  2  3  1  9 29.9960000  0  6 27  2  7 15 19 26
  19306830.051    -5804256.943 7  -4472019.332 9
  19838108.848    -9207403.940 7  -7041964.191 9
  20233968.730   -18350420.108 7 -14065843.712 9
  23053732.473    -4421636.626 5  -3208785.879 5
  21037327.566      248161.284 6    206699.515 7
  22135652.145   -12645238.945 5  -9745437.009 5
 94  2  3  1  9 59.9960000  0  6 27  2  7 15 19 26
  19303723.754    -5820573.836 7  -4484733.799 9
  19828340.379    -9258746.427 7  -7081971.298 9
  20212602.113   -18462703.301 7 -14153337.069 9
  23037492.918    -4506994.748 5  -3275298.639 4
  21041516.410      270171.668 6    223850.460 7
  22115202.254   -12752689.807 5  -9829164.903 5
 94  2  3  1 10 29.9960000  0  6 27  2  7 15 19 26
  19300695.129    -5836492.723 7  -4497138.124 9
  19818607.973    -9309890.451 7  -7121823.761 9
  20191312.395   -18574580.921 7 -14240514.391 9
  23021322.965    -4591951.472 5  -3341498.619 4
  21045757.152      292466.842 6    241223.292 7
  22094835.535   -12859726.998 5  -9912570.453 5
 94  2  3  1 10 59.9960000  0  6 27  2  7 15 19 26
  19297741.606    -5852008.152 7  -4509228.061 9
  19808912.746    -9360837.516 7  -7161522.752 9
  20170102.387   -18686047.891 7 -14327371.728 9
  23005234.652    -4676503.603 5  -3407383.307 3
  21050053.238      315042.769 6    258814.899 6
  22074546.809   -12966324.681 5  -9995633.530 5
 94  2  3  1 11 29.9960000  0  6 27  2  7 15 19 26
  19294864.129    -5867132.225 7  -4521013.042 9
  19799250.957    -9411607.780 7  -7201083.976 9
  20148967.707   -18797104.818 7 -14413909.548 9
  22989219.230    -4760664.257 5  -3472962.934 4
  21054400.770      337887.715 6    276616.137 6
  22054344.746   -13072481.495 5 -10078353.078 5
 94  2  3  1 11 59.9960000  0  6 27  2  7 15 19 26
  19292068.918    -5881837.678 7  -4532471.832 9
  19789626.980    -9462185.168 7  -7240494.906 9
  20127913.488   -18907731.775 7 -14500112.330 9
  22973284.160    -4844412.877 5  -3538221.497 5
  21058803.941      361027.190 6    294646.883 6
  22034231.082   -13178191.757 5 -10160724.663 6
 94  2  3  1 12 29.9960000  0  6 27  2  7 15 19 26
  19289348.145    -5896119.658 7  -4543600.643 9
  19780040.941    -9512561.069 7  -7279748.825 9
  20106943.527   -19017944.541 7 -14585992.366 9
  22957423.637    -4927750.508 5  -3603159.834 5
  21063265.918      384464.196 6    312909.466 6
  22014200.215   -13283460.880 6 -10242752.486 5
 94  2  3  1 12 59.9960000  0  6 27  2  7 15 19 26
  19286710.723    -5909990.868 7  -4554409.393 9
  19770493.699    -9562724.290 7  -7318837.030 9
  20086050.590   -19127737.914 7 -14671545.599 9
  22941642.395    -5010680.225 5  -3667780.317 5
  21067778.934      408196.239 6    331401.953 7
  21994251.121   -13388291.698 6 -10324438.802 5
 94  2  3  1 13 29.9960000  0  6 27  2  7 15 19 26
  19284147.449    -5923453.949 7  -4564900.096 9
  19760993.020    -9612659.598 7  -7357747.652 9
  20065235.559   -19237122.458 7 -14756780.265 9
  22925940.082    -5093200.289 5  -3732081.547 4
  21072353.066      432219.541 6    350121.401 6
  21974381.668   -13492700.167 6 -10405795.998 5
 94  2  3  1 13 59.9960000  0  6 27  2  7 15 19 26
  19281667.090    -5936486.785 7  -4575055.545 9
  19751537.316    -9662347.837 7  -7396465.738 9
  20044499.199   -19346087.750 7 -14841688.240 9
  22910315.191    -5175294.496 5  -3796050.942 4
  21076981.145      456535.405 6    369068.812 6
  21954594.582   -13596675.712 5 -10486815.859 5
 94  2  3  1 14 29.9960000  0  6 27  2  7 15 19 26
  19279268.246    -5949093.868 7  -4584879.244 9
  19742126.707    -9711796.695 7  -7434997.303 9
  20023845.957   -19454619.053 7 -14926258.041 9
  22894775.027    -5256963.461 5  -3859688.991 4
  21081661.902      481134.705 6    388237.070 6
  21934897.090   -13700206.288 6 -10567488.989 5
 94  2  3  1 14 59.9960000  0  6 27  2  7 15 19 26
  19276947.168    -5961291.902 7  -4594384.206 9
  19732756.457    -9761040.358 7  -7473368.977 9
  20003277.348   -19562703.024 7 -15010479.270 9
  22879319.480    -5338218.398 5  -3923004.427 4
  21086392.535      506008.615 6    407619.324 6
  21915278.613   -13803302.603 6 -10647823.729 5
 94  2  3  1 15 29.9960000  0  6 27  2  7 15 19 26
  19274708.410    -5973053.831 7  -4603549.326 9
  19723425.121    -9810079.978 7  -7511581.655 9
  19982799.402   -19670322.306 7 -15094338.406 9
  22863931.902    -5419047.958 5  -3985988.401 4
  21091179.715      531167.717 6    427223.808 6
  21895742.691   -13905949.330 6 -10727808.150 5
 94  2  3  1 15 59.9960000  0  6 27  2  7 15 19 26
  19272554.902    -5984372.742 7  -4612369.262 9
  19714127.996    -9858929.787 7  -7549646.422 9
  19962411.098   -19777464.355 7 -15177825.670 9
  22848631.324    -5499450.070 5  -4048639.299 3
  21096024.887      556607.646 6    447047.106 6
  21876296.660   -14008137.585 6 -10807435.306 5
 94  2  3  1 16 29.9960000  0  6 27  2  7 15 19 26
  19270480.418    -5995267.575 7  -4620858.732 9
  19704867.707    -9907595.656 7  -7587567.864 9
  19942110.957   -19884140.007 7 -15260949.509 9
  22833416.613    -5579426.963 5  -4110958.862 4
  21100917.152      582326.088 6    467087.423 6
  21856938.106   -14109872.059 6 -10886708.878 5
 94  2  3  1 16 59.9960000  0  6 27  2  7 15 19 26
  19268493.395    -6005724.998 7  -4629007.377 9
  19695644.481    -9956057.316 7  -7625330.182 9
  19921899.355   -19990352.472 7 -15343712.421 9
  22818281.199    -5658957.827 5  -4172930.861 4
  21105867.871      608347.917 6    487364.154 6
  21837669.145   -14211142.406 6 -10965620.792 5
 94  2  3  1 17 29.9950000  0  6 27  2  7 15 19 26
  19266583.546    -6015757.825 7  -4636825.155 9
  19686463.452   -10004307.435 7  -7662927.651 9
  19901770.468   -20096134.892 7 -15426140.232 9
  22803227.788    -5738046.167 5  -4234558.027 5
  21110875.507      634652.000 6    507860.816 6
  21818480.718   -14311970.027 6 -11044187.726 5
 94  2  3  1 17 59.9950000  0  6 27  2  7 15 19 26
  19264751.069    -6025393.051 7  -4644333.120 9
  19677320.968   -10052350.524 7  -7700363.798 9
  19881719.233   -20201506.638 7 -15508248.036 9
  22788260.601    -5816699.711 5  -4295846.400 4
  21115932.804      661233.388 6    528573.563 6
  21799372.874   -14412374.564 6 -11122424.991 6
 94  2  3  1 18 29.9950000  0  6 27  2  7 15 19 26
  19262992.937    -6034627.212 7  -4651528.576 9
  19668220.007   -10100173.243 7  -7737628.230 9
  19861749.007   -20306449.328 7 -15590021.520 9
  22773376.663    -5894901.168 5  -4356782.511 5
  21121046.007      688107.223 6    549514.187 6
  21780351.687   -14512334.177 6 -11200315.557 6
 94  2  3  1 18 59.9950000  0  6 27  2  7 15 19 26
  19261313.468    -6043455.715 7  -4658407.916 9
  19659158.179   -10147803.435 7  -7774742.636 9
  19841859.804   -20410956.426 7 -15671455.577 9
  22758572.765    -5972664.541 5  -4417377.250 5
  21126211.866      715258.244 6    570670.810 6
  21761415.179   -14611857.243 6 -11277865.956 6
 94  2  3  1 19 29.9950000  0  6 27  2  7 15 19 26
  19259712.905    -6051858.594 7  -4664955.600 9
  19650132.038   -10195233.809 7  -7811701.326 9
  19822061.507   -20514998.898 7 -15752527.584 9
  22743869.569    -6049980.675 5  -4477623.479 4
  21131429.226      742673.241 6    592033.116 6
  21742565.194   -14710915.348 6 -11355054.057 6
 94  2  3  1 19 59.9950000  0  6 27  2  7 15 19 26
  19258198.890    -6059814.572 7  -4671155.063 9
  19641142.233   -10242468.150 7  -7848507.271 9
  19802357.288   -20618551.807 7 -15833218.116 9
  22729236.155    -6126838.462 5  -4537512.576 5
  21136699.062      770366.039 6    613611.906 6
  21723806.397   -14809479.182 6 -11431857.000 6
 94  2  3  1 20 29.9950000  0  6 27  2  7 15 19 26
  19256772.155    -6067306.891 7  -4676993.219 9
  19632189.929   -10289519.965 7  -7885170.990 9
  19782745.827   -20721608.557 7 -15913522.033 9
  22714704.249    -6203235.747 5  -4597042.831 5
  21142023.983      798341.812 6    635411.199 6
  21705145.249   -14907551.236 6 -11508276.745 6
 94  2  3  1 20 59.9950000  0  6 27  2  7 15 19 26
  19255436.108    -6074326.325 7  -4682462.903 9
  19623272.726   -10336379.007 7  -7921684.492 9
  19763228.999   -20824167.522 7 -15993438.065 9
  22700253.335    -6279164.691 5  -4656208.138 4
  21147402.069      826604.323 6    657433.905 6
  21686573.179   -15005139.718 6 -11584319.687 6
 94  2  3  1 21 29.9950000  0  6 27  2  7 15 19 26
  19254185.304    -6080901.370 7  -4687586.309 9
  19614392.265   -10383042.387 7  -7958045.531 9
  19743800.905   -20926265.730 7 -16072995.065 9
  22685899.460    -6354632.500 5  -4715014.138 4
  21152833.546      855144.410 6    679672.916 6
  21668094.796   -15102259.608 6 -11659997.480 6
 94  2  3  1 21 59.9950000  0  6 27  2  7 15 19 26
  19253017.483    -6087039.474 7  -4692369.235 9
  19605548.780   -10429514.751 7  -7994257.732 9
  19724459.273   -21027913.689 7 -16152201.224 9
  22671626.124    -6429638.267 5  -4773460.112 5
  21158319.491      883982.421 6    702144.075 6
  21649697.358   -15198926.910 6 -11735322.630 6
 94  2  3  1 22 29.9950000  0  6 27  2  7 15 19 26
  19251933.905    -6092735.818 7  -4696807.945 9
  19596744.421   -10475782.456 7  -8030310.453 9
  19705203.187   -21129105.562 7 -16231051.980 9
  22657441.007    -6504175.805 5  -4831541.203 5
  21163866.398      913124.960 6    724852.524 6
  21631388.546   -15295134.383 6 -11810289.451 6
 94  2  3  1 22 59.9950000  0  6 27  2  7 15 19 26
  19250933.648    -6097989.759 7  -4700901.911 9
  19587983.991   -10521825.215 7  -8066187.892 9
  19686031.265   -21229846.267 7 -16309551.191 9
  22643347.952    -6578239.196 5  -4889252.848 4
  21169468.405      942569.412 6    747796.243 6
  21613172.733   -15390869.225 6 -11884887.991 6
 94  2  3  1 23 29.9950000  0  6 27  2  7 15 19 26
  19250019.687    -6102794.859 7  -4704646.133 9
  19579263.233   -10567650.001 7  -8101895.485 9
  19666947.405   -21330135.812 7 -16387698.837 9
  22629335.702    -6651830.717 5  -4946596.791 5
  21175130.601      972319.534 6    770978.123 6
  21595044.687   -15486130.097 6 -11959117.203 6
 94  2  3  1 23 59.9950000  0  6 27  2  7 15 19 26
  19249195.155    -6107140.263 7  -4708032.156 9
  19570584.702   -10613252.608 7  -8137429.958 9
  19647954.304   -21429949.067 7 -16465475.352 9
  22615427.749    -6724944.205 5  -5003568.241 4
  21180850.374     1002380.656 6    794402.383 6
  21577006.554   -15580914.784 6 -12032975.356 6
 94  2  3  1 24 29.9950000  0  6 27  2  7 15 19 26
  19248453.718    -6111031.863 7  -4711064.561 9
  19561950.124   -10658628.848 7  -8172788.041 9
  19629050.171   -21529289.379 7 -16542883.338 9
  22601607.187    -6797579.762 5  -5060167.285 5
  21186625.944     1032739.702 6    818058.764 6
  21559056.765   -15675232.945 6 -12106469.993 6
 94  2  3  1 24 59.9950000  0  6 27  2  7 15 19 26
  19247798.437    -6114476.253 7  -4713748.485 9
  19553357.616   -10703782.229 7  -8207972.463 9
  19610235.085   -21628155.491 7 -16619921.821 9
  22587871.483    -6869734.236 5  -5116391.445 4
  21192461.054     1063395.835 6    841946.665 6
  21541201.069   -15769085.230 6 -12179601.598 6
 94  2  3  1 25 29.9950000  0  6 27  2  7 15 19 26
  19247224.476    -6117486.999 7  -4716094.518 9
  19544806.437   -10748723.855 7  -8242991.887 9
  19591513.976   -21726536.525 7 -16696582.328 9
  22574233.210    -6941410.950 5  -5172243.336 5
  21198352.132     1094348.286 6    866065.448 6
  21523431.538   -15862459.417 6 -12252360.673 6
 94  2  3  1 25 59.9950000  0  6 27  2  7 15 19 26
  19246735.249    -6120060.380 7  -4718099.737 9
  19536297.874   -10793430.964 7  -8277828.571 9
  19572889.655   -21824413.947 7 -16772850.400 9
  22560692.366    -7012586.542 5  -5227704.736 4
  21204298.804     1125606.486 6    890422.491 6
  21505759.249   -15955316.652 6 -12324716.912 6
 94  2  3  1 26 29.9950000  0  6 27  2  7 15 19 26
  19246325.468    -6122215.286 7  -4719778.877 8
  19527829.257   -10837933.916 7  -8312506.184 9
  19554356.327   -21921804.292 7 -16848738.941 9
  22547237.577    -7083280.587 5  -5282790.907 4
  21210297.023     1157137.751 6    914992.309 6
  21488188.976   -16047655.380 6 -12396669.129 6
 94  2  3  1 26 59.9950000  0  6 27  2  7 15 19 26
  19245997.819    -6123939.421 7  -4721122.341 9
  19519400.523   -10882225.024 7  -8347018.720 9
  19535918.593   -22018683.664 7 -16924229.317 9
  22533879.351    -7153474.874 5  -5337487.672 4
  21216356.054     1188962.763 6    939791.009 6
  21470725.507   -16139439.783 6 -12468189.396 6
 94  2  3  1 27 29.9950000  0  6 27  2  7 15 19 26
  19245748.390    -6125244.946 7  -4722139.628 9
  19511009.741   -10926325.569 7  -8381382.756 9
  19517579.944   -22115067.380 7 -16999333.466 9
  22520613.608    -7223180.094 5  -5391803.341 4
  21222462.155     1221061.426 6    964802.922 6
  21453360.358   -16230687.203 6 -12539291.234 6
 94  2  3  1 27 59.9950000  0  6 27  2  7 15 19 26
  19245578.726    -6126123.903 7  -4722824.512 9
  19502651.913   -10970247.292 7  -8415607.458 9
  19499331.140   -22210962.769 7 -17074057.102 9
  22507444.397    -7292396.469 5  -5445738.099 4
  21228623.491     1253426.758 6    990022.638 6
  21436094.366   -16321418.395 6 -12609990.816 6
 94  2  3  1 28 29.9950000  0  7 27  2  7 13 15 19 26
  19245499.601    -6126549.535 7
  19494327.515   -11013988.119 7  -8449691.202 9
  19481176.069   -22306358.400 7 -17148391.314 9
  23282208.491     -162839.990 3
  22494369.796    -7361109.786 5  -5499280.860 4
  21234840.030     1286088.095 6   1015473.020 6
  21418928.890   -16411638.583 6 -12680292.213 6
 94  2  3  1 28 59.9950000  0  7 27  2  7 13 15 19 26
  19245502.640    -6126535.655 7
  19486033.007   -11057574.396 7  -8483654.512 9
  19463115.562   -22401277.086 7 -17222353.885 9
  23251237.046     -325630.475 3        -0.13711
  22481388.812    -7429335.505 5  -5552443.680 4
  21241112.476     1319049.164 6   1041156.956 6
  21401847.608   -16501383.459 6 -12750223.242 6
 94  2  3  1 29 29.9950000  0  7 27  2  7 13 15 19 26
  19245587.312    -6126077.733 7
  19477769.702   -11101003.398 7  -8517495.272 9
  19445143.804   -22495718.995 7 -17295944.939 9
  23220266.007     -488373.219 3   -126812.534 1
  22468494.671    -7497075.782 5  -5605228.237 4
  21247438.726     1352302.810 6   1067068.864 6
  21384859.804   -16590661.311 6 -12819790.345 6
 94  2  3  1 29 59.9950000  0  7 27  2  7 13 15 19 26
  19245763.335    -6125156.633 7  -4722070.776 9
  19469540.999   -11144239.994 7  -8551186.103 9
  19427265.015   -22589664.839 7 -17369149.444 9
  23189311.937     -651048.364 3   -253572.247 1
  22455699.202    -7564312.386 5  -5657620.315 5
  21253827.194     1385869.729 6   1093224.909 5
  21367964.655   -16679452.008 6 -12888977.855 6
 94  2  3  1 30 29.9950000  0  7 27  2  7 13 15 19 26
  19246023.343    -6123790.066 7  -4721005.908 9
  19461351.257   -11187278.121 7  -8584722.282 9
  19409483.249   -22683119.510 7 -17441971.221 9
  23158362.366     -813664.110 3   -380285.660 2
  22442997.569    -7631054.648 5  -5709627.211 4
  21260269.233     1419734.320 6   1119612.905 6
  21351154.905   -16767763.870 6 -12957792.253 6
 94  2  3  1 30 59.9950000  0  7 27  2  7 13 15 19 26
  19246368.733    -6121990.199 7  -4719603.409 9
  19453199.937   -11230107.343 7  -8618095.671 9
  19391793.632   -22776075.732 7 -17514404.592 9
  23127430.155     -976218.028 3   -506950.841 1
  22430392.507    -7697301.352 5  -5761247.955 5
  21266770.272     1453870.520 6   1146212.555 6
  21334446.616   -16855585.330 6 -13026224.506 6
 94  2  3  1 31 29.9950000  0  7 27  2  7 13 15 19 26
  19246790.593    -6119756.232 7  -4717862.654 9
  19445096.444   -11272690.221 7  -8651277.110 9
  19374197.952   -22868535.663 7 -17586451.253 9
  23096513.679    -1138696.175 3   -633556.958 1
  22417886.616    -7763039.771 5  -5812472.631 5
  21273310.733     1488269.386 6   1173016.863 6
  21317831.194   -16942905.447 6 -13094266.120 6
 94  2  3  1 31 59.9950000  0  7 27  2  7 13 15 19 26
  19247297.648    -6117098.745 7  -4715791.860 9
  19437039.398   -11315043.332 7  -8684279.512 9
  19356695.702   -22960513.536 7 -17658122.275 9
  23065607.624    -1301104.571 3   -760108.751 1
  22405472.687    -7828276.833 5  -5863306.647 5
  21279906.913     1522920.824 6   1200017.994 6
  21301304.116   -17029735.485 6 -13161925.848 6
 94  2  3  1 32 29.9950000  0  7 27  2  7 13 15 19 26
  19247886.312    -6114004.252 7  -4713380.550 9
  19429022.523   -11357173.000 7  -8717107.805 9
  19339286.085   -23052003.893 7 -17729413.417 9
  23034711.179    -1463428.286 3   -886594.513 1
  22393149.476    -7892999.398 5  -5913739.744 5
  21286551.866     1557842.124 6   1227229.410 6
  21284878.202   -17116054.492 6 -13229187.367 6
 94  2  3  1 32 59.9950000  0  7 27  2  7 13 15 19 26
  19248556.421    -6110482.990 7  -4710636.689 9
  19421040.429   -11399108.708 7  -8749784.952 9
  19321964.023   -23143026.499 7 -17800340.075 9
  23003845.733    -1625676.860 4  -1013021.739 2
  22380934.687    -7957218.281 5  -5963780.378 5
  21293247.335     1593030.428 6   1254648.877 5
  21268551.593   -17201867.419 6 -13296054.537 6
 94  2  3  1 33 29.9950000  0  7 27  2  7 13 15 19 26
  19249312.577    -6106519.763 7  -4707548.441 9
  19413097.530   -11440848.600 7  -8782309.517 9
  19304733.171   -23233584.927 7 -17870905.035 9
  22972981.913    -1787842.981 4  -1139384.705 1
  22368805.858    -8020927.200 5  -6013423.650 4
  21299997.046     1628504.195 6   1282290.781 6
  21252316.702   -17287170.153 6 -13362524.159 6
 94  2  3  1 33 59.9950000  0  7 27  2  7 13 15 19 26
  19250149.749    -6102113.583 7  -4704115.055 9
  19405187.944   -11482424.107 7  -8814705.993 9
  19287589.757   -23323663.256 7 -17941095.895 9
  22942137.007    -1949928.162 3  -1265684.603 1
  22356785.046    -8084128.991 5  -6062671.740 5
  21306800.030     1664267.200 6   1310158.072 6
  21236185.468   -17371950.601 6 -13428586.808 6
 94  2  3  1 34 29.9950000  0  7 27  2  7 13 15 19 26
  19251073.405    -6097261.666 7  -4700334.321 9
  19397307.148   -11523826.854 7  -8846967.849 9
  19270544.148   -23413246.705 7 -18010901.128 9
  22911314.577    -2111922.449 3  -1391913.606 1
  22344852.960    -8146815.229 5  -6111518.101 3
  21313670.085     1700325.084 6   1338255.137 6
  21220151.069   -17456192.629 6 -13494229.915 6
 94  2  3  1 34 59.9950000  0  7 27  2  7 13 15 19 26
  19252080.702    -6091970.186 7  -4696211.089 9
  19389465.022   -11565044.658 7  -8879085.591 9
  19253593.069   -23502321.050 7 -18080309.658 9
  22880504.952    -2273823.687 4  -1518070.080 1
  22333023.882    -8208985.037 5  -6159962.051 5
  21320579.280     1736661.423 6   1366569.180 6
  21204227.913   -17539897.654 6 -13559454.586 6
 94  2  3  1 35 29.9950000  0  7 27  2  7 13 15 19 26
  19253169.671    -6086239.689 7  -4691745.751 9
  19381657.741   -11606070.421 7  -8911053.689 9
  19236741.226   -23590882.597 7 -18149318.603 9
  22849712.726    -2435630.802 4  -1644153.203 1
  22321290.093    -8270638.772 5  -6208003.872 4
  21327541.187     1773253.173 6   1395082.230 5
  21188396.952   -17623064.650 6 -13624259.990 6
 94  2  3  1 35 59.9940000  0  7 27  2  7 13 15 19 26
  19254342.268    -6080081.948 7  -4686947.491 9
  19373887.893   -11646902.609 7  -8942870.952 9
  19219987.002   -23678920.446 7 -18217919.474 9
  22818940.236    -2597340.431 4  -1770160.346 1
  22309653.549    -8331777.709 5  -6255644.551 5
  21334551.869     1810090.809 6   1423786.881 5
  21172677.080   -17705694.392 6 -13688646.765 6
 94  2  3  1 36 29.9940000  0  7 27  2  7 13 15 19 26
  19255594.572    -6073493.926 7  -4681813.961 9
  19366156.736   -11687529.804 7  -8974528.480 9
  19203332.104   -23766451.891 7 -18286125.749 9
  22788186.174    -2758960.262 5  -1896097.497 1
  22298116.471    -8392404.552 5  -6302886.216 4
  21341612.916     1847174.419 6   1452683.193 5
  21157050.744   -17787803.463 6 -13752627.822 6
 94  2  3  1 36 59.9940000  0  7 27  2  7 13 15 19 26
  19256933.611    -6066464.420 7  -4676336.414 8
  19358466.939   -11727935.834 7  -9006013.682 9
  19186769.658   -23853475.608 7 -18353936.389 9
  22757448.760    -2920475.652 5  -2021953.282 1
  22286684.354    -8452509.337 5  -6349721.067 5
  21348712.275     1884509.357 6   1481775.356 5
  21141528.119   -17869391.274 6 -13816202.695 6
 94  2  3  1 37 29.9940000  0  7 27  2  7 13 15 19 26
  19258355.088    -6058995.959 7  -4670516.829 8
  19350817.916   -11768136.038 7  -9037338.488 9
  19170304.690   -23940006.698 7 -18421363.167 9
  22726728.518    -3081892.699 4  -2147732.463 1
  22275343.213    -8512099.534 5  -6396154.934 5
  21355869.846     1922105.564 6   1511071.096 5
  21126092.541   -17950480.600 6 -13879389.151 6
 94  2  3  1 37 59.9940000  0  7 27  2  7 13 15 19 26
  19259860.065    -6051082.181 7  -4664350.225 8
  19343205.361   -11808138.558 7  -9068509.263 9
  19153931.455   -24026039.837 7 -18488401.936 9
  22696035.260    -3243202.189 4  -2273427.825 1
  22264100.244    -8571167.315 5  -6442181.734 3
  21363078.541     1959992.665 6   1540593.479 5
  21110760.111   -18031080.865 6 -13942194.515 6
 94  2  3  1 38 29.9940000  0  7 27  2  7 13 15 19 26
  19261452.025    -6042714.573 7  -4657829.994 8
  19335628.799   -11847952.233 7  -9099532.886 9
  19137655.541   -24111577.469 7 -18555054.594 9
  22665359.877    -3404397.154 4  -2399033.960 1
  22252960.815    -8629707.305 5  -6487797.258 2
  21370343.330     1998171.865 6   1570343.500 5
  21095511.322   -18111197.346 6 -14004622.912 6
 94  2  3  1 38 59.9940000  0  7 27  2  7 13 15 19 26
  19263131.033    -6033898.803 7  -4650960.568 8
  19328086.244   -11887587.200 7  -9130417.249 9
  19121474.916   -24196602.982 7 -18621308.191 9
  22634704.369    -3565476.048 5  -2524549.727 1
  22241923.846    -8687719.850 5  -6533001.786 5
  21377662.721     2036632.802 5   1600313.061 5
  21080358.057   -18190835.380 6 -14066678.481 6
 94  2  3  1 39 29.9940000  0  7 27  2  7 13 15 19 26
  19264895.635    -6024623.203 7  -4643732.836 8
  19320578.439   -11927043.920 7  -9161162.724 9
  19105397.986   -24281090.966 7 -18687142.943 9
  22604086.729    -3726423.815 5  -2649963.317 1
  22230987.143    -8745191.355 5  -6577784.739 5
  21385039.010     2075389.665 6   1630513.197 5
  21065294.807   -18269968.495 6 -14128340.611 6
 94  2  3  1 39 59.9940000  0  7 27  2  7 13 15 19 26
  19266746.252    -6014894.838 7  -4636152.278 8
  19313104.986   -11966318.678 7  -9191766.407 9
  19089421.525   -24365039.781 7 -18752557.557 9
  22573478.807    -3887233.231 5  -2775269.134 1
  22220151.447    -8802116.137 5  -6622141.681 4
  21392467.682     2114438.214 5   1660940.616 5
  21050342.096   -18348563.917 6 -14189583.761 6
 94  2  3  1 40 29.9940000  0  7 27  2  7 13 15 19 26
  19268683.674    -6004721.212 7  -4628224.745 8
  19305669.869   -12005391.597 7  -9222212.819 9
  19073550.619   -24448450.444 7 -18817552.835 9
  22542905.643    -4047897.176 4  -2900461.606 2
  22209420.979    -8858488.794 5  -6666068.383 5
  21399954.182     2153773.139 6   1691591.196 5
  21035487.979   -18426600.606 6 -14250391.532 6
 94  2  3  1 40 59.9940000  0  7 27  2  7 13 15 19 26
  19270699.096    -5994121.195 7  -4619964.975 8
  19298270.682   -12044271.037 7  -9252508.463 9
  19057776.510   -24531337.272 7 -18882139.936 9
  22512359.916    -4208423.715 5  -3025547.099 1
  22198800.471    -8914319.095 5  -6709572.483 4
  21407492.494     2193388.065 5   1722459.954 5
  21020752.041   -18504067.081 6 -14310754.990 6
 94  2  3  1 41 29.9940000  0  7 27  2  7 13 15 19 26
  19272795.729    -5983107.099 7  -4611382.561 8
  19290908.838   -12082956.609 7  -9282653.038 9
  19042097.315   -24613737.516 7 -18946347.872 9
  22481836.502    -4368818.379 5  -3150529.704 1
  22188277.033    -8969614.348 5  -6752659.651 5
  21415084.994     2233285.530 5   1753548.887 5
  21006115.908   -18580960.809 6 -14370672.152 6
 94  2  3  1 41 59.9940000  0  7 27  2  7 13 15 19 26
  19274969.197    -5971683.878 7  -4602481.360 8
  19283584.557   -12121447.247 7  -9312645.726 9
  19026505.400   -24695666.830 7 -19010188.860 9
  22451344.049    -4529075.958 5  -3275405.632 1
  22177861.635    -9024370.954 5  -6795327.110 5
  21422727.697     2273462.780 5   1784855.815 5
  20991591.025   -18657299.591 6 -14430156.892 6
 94  2  3  1 42 29.9940000  0  7 27  2  7 13 15 19 26
  19277220.666    -5959848.512 7  -4593258.990 8
  19276294.033   -12159756.775 7  -9342497.279 9
  19011003.783   -24777121.946 7 -19073660.337 9
  22420872.322    -4689203.107 5  -3400179.881 2
  22167542.111    -9078597.212 5  -6837581.285 5
  21430425.088     2313902.209 5   1816367.055 5
  20977164.736   -18733109.409 6 -14489229.452 6
 94  2  3  1 42 59.9940000  0  7 27  2  7 13 15 19 26
  19279554.447    -5947583.905 7  -4583702.149 8
  19269038.166   -12197892.692 7  -9372213.562 9
  18995596.330   -24858093.746 7 -19136755.198 9
  22390419.838    -4849197.017 5  -3524850.329 1
  22157319.729    -9132292.259 5  -6879421.552 5
  21438167.979     2354600.362 5   1848079.903 5
  20962836.135   -18808394.415 6 -14547893.065 6
 94  2  3  1 43 29.9940000  0  7 27  2  7 13 15 19 26
  19281972.283    -5934883.197 7  -4573805.505 8
  19261813.721   -12235852.479 7  -9401792.588 9
  18980284.049   -24938571.768 7 -19199465.305 9
  22360004.315    -5009052.476 5  -3649412.873 1
  22147204.947    -9185452.594 5  -6920845.159 5
  21445962.650     2395553.353 5   1879991.315 5
  20948605.947   -18883172.712 6 -14606161.850 6
 94  2  3  1 43 59.9940000  0  7 27  2  7 13 15 19 26
  19284473.768    -5921743.546 7  -4563566.816 8
  19254621.315   -12273647.645 7  -9431243.345 9
  18965066.815   -25018522.959 7 -19261764.889 9
  22329610.174    -5168767.507 5  -3773866.053 1
  22137196.182    -9238077.765 5  -6961851.757 4
  21453802.635     2436756.809 5   1912097.875 5
  20934476.963   -18957445.442 6 -14664036.676 6
 94  2  3  1 44 29.9940000  0  7 27  2  7 13 15 19 26
  19287058.549    -5908160.543 7  -4552982.658 8
  19247463.432   -12311267.459 7  -9460557.472 9
  18949956.283   -25097934.130 7 -19323643.681 9
  22299249.916    -5328339.269 5  -3898207.555 1
  22127281.229    -9290167.332 5  -7002440.996 5
  21461690.775     2478210.675 5   1944399.580 5
  20920438.900   -19031200.280 6 -14721507.945 6
 94  2  3  1 44 59.9940000  0  7 27  2  7 13 15 19 26
  19289724.096    -5894145.165 7  -4542061.565 8
  19240339.072   -12348711.162 7  -9489734.361 9
  18934947.619   -25176810.295 7 -19385105.583 9
  22268908.861    -5487766.850 5  -4022436.711 2
  22117467.924    -9341721.810 5  -7042613.301 5
  21469623.182     2519918.045 5   1976898.846 5
  20906501.377   -19104433.862 6 -14778573.049 6
 94  2  3  1 45 29.9940000  0  7 27  2  7 13 15 19 26
  19292472.260    -5879705.460 7  -4530809.864 8
  19233245.400   -12385979.074 7  -9518774.276 9
  18920039.377   -25255149.905 7 -19446149.396 9
  22238592.025    -5647048.780 5  -4146552.392 2
  22107758.627    -9392741.683 5  -7082369.029 5
  21477610.518     2561875.266 5   2009592.799 5
  20892668.190   -19177145.485 6 -14835231.440 6
 94  2  3  1 45 59.9940000  0  7 27  2  7 13 15 19 26
  19295299.033    -5864848.391 7  -4519232.930 8
  19226187.861   -12423068.074 7  -9547674.769 9
  18905231.572   -25332963.816 7 -19506783.568 9
  22208311.916    -5806186.696 5  -4270555.866 1
  22098156.307    -9443230.424 5  -7121710.886 5
  21485643.354     2604075.251 5   2042475.925 5
  20878928.760   -19249325.837 6 -14891475.856 6
 94  2  3  1 46 29.9940000  0  7 27  2  7 13 15 19 26
  19298208.721    -5849556.632 7  -4507317.259 8
  19219167.518   -12459962.458 7  -9576423.614 9
  18890522.111   -25410273.620 7 -19567024.933 9
  22178055.182    -5965175.074 5  -4394442.798 2
  22088645.900    -9493184.630 5  -7160636.222 4
  21493714.838     2646509.628 5   2075541.678 5
  20865297.322   -19320970.582 6 -14947302.906 6
 94  2  3  1 46 59.9940000  0  7 27  2  7 13 15 19 26
  19301199.815    -5833837.880 7  -4495068.855 8
  19212180.721   -12496673.162 7  -9605029.340 9
  18875901.627   -25487097.044 7 -19626887.299 9
  22147828.393    -6124019.917 5  -4518217.865 1
  22079241.260    -9542612.098 5  -7199151.100 5
  21501833.518     2689162.989 5   2108778.051 5
  20851765.080   -19392085.994 6 -15002717.497 6
 94  2  3  1 47 29.9940000  0  7 27  2  7 13 15 19 26
  19304274.205    -5817683.393 7  -4482480.944 8
  19205231.627   -12533199.636 7  -9633491.509 9
  18861372.096   -25563446.367 7 -19686380.243 9
  22117626.690    -6282719.071 5  -4641879.442 2
  22069935.463    -9591512.562 5  -7237255.333 5
  21509993.033     2732031.957 5   2142182.417 4
  20838333.197   -19462675.191 6 -15057722.039 6
 94  2  3  1 47 59.9940000  0  7 27  2  7 13 15 19 26
  19307431.213    -5801091.208 7  -4469551.985 8
  19198317.393   -12569531.453 7  -9661802.001 9
  18846933.713   -25639325.584 7 -19745506.866 9
  22087460.885    -6441261.949 5  -4765419.192 2
  22060729.916    -9639877.731 5  -7274942.469 4
  21518191.697     2775125.645 5   2175761.914 5
  20825000.190   -19532728.381 6 -15112308.920 6
 94  2  3  1 48 29.9940000  0  7 27  2  7 13 15 19 26
  19310672.096    -5784062.821 7  -4456283.116 8
  19191438.361   -12605676.026 7  -9689966.584 9
  18832585.744   -25714729.753 7 -19804263.324 9
  22057323.549    -6599644.660 5  -4888834.148 2
  22051627.650    -9687705.547 5  -7312210.861 5
  21526436.479     2818448.954 5   2209520.343 5
  20811772.135   -19602244.918 6 -15166477.631 6
 94  2  3  1 48 59.9940000  0  7 27  2  7 13 15 19 26
  19313990.768    -5766626.680 7  -4442696.515 8
  19184592.854   -12641652.107 7  -9717999.877 9
  18818328.369   -25789650.502 7 -19862643.097 9
  22027216.486    -6757865.670 5  -5012123.116 2
  22042629.799    -9734996.469 5  -7349060.906 4
  21534726.830     2862015.165 5   2243468.022 5
  20798643.299   -19671228.461 6 -15220231.023 6
 94  2  3  1 49 29.9940000  0  7 27  2  7 13 15 19 26
  19317381.494    -5748800.339 7  -4428805.855 8
  19177777.533   -12677463.350 7  -9745904.719 9
  18804162.065   -25864087.180 7 -19920645.669 9
  21997137.072    -6915924.613 5  -5135285.779 1
  22033734.861    -9781752.245 5  -7385493.957 5
  21543064.791     2905834.002 5   2277612.549 5
  20785621.494   -19739673.611 6 -15273564.891 6
 94  2  3  1 49 59.9940000  0  7 27  2  7 13 15 19 26
  19320848.104    -5730591.799 7  -4414617.369 8
  19170994.650   -12713105.794 7  -9773678.022 9
  18790094.736   -25938012.507 7 -19978249.782 9
  21967090.541    -7073811.171 5  -5258314.135 2
  22024938.322    -9827964.564 5  -7421503.535 5
  21551451.322     2949911.391 5   2311958.566 5
  20772700.674   -19807567.245 6 -15326469.004 6
 94  2  3  1 50 29.9940000  0  7 27  2  7 13 15 19 26
  19324390.182    -5711978.173 7  -4400113.228 8
  19164249.143   -12748562.223 7  -9801306.383 9
  18776129.744   -26011394.161 7 -20035430.250 9
  21937079.205    -7231505.754 5  -5381192.876 2
  22016254.189    -9873616.237 5  -7457076.240 5
  21559894.635     2994263.280 5   2346518.475 5
  20759887.807   -19874902.273 6 -15378937.834 6
 94  2  3  1 50 59.9940000  0  7 27  2  7 13 15 19 26
  19328005.518    -5692973.358 7  -4385304.269 8
  19157533.877   -12783842.057 7  -9828797.140 9
  18762265.760   -26084260.368 7 -20092209.071 9
  21907106.596    -7389029.071 5  -5503938.181 1
  22007667.283    -9918729.788 5  -7492229.629 5
  21568382.643     3038866.414 5   2381274.155 5
  20747177.010   -19941710.162 6 -15430995.908 6
 94  2  3  1 51 29.9940000  0  7 27  2  7 13 15 19 26
  19331701.479    -5673559.129 7  -4370176.274 8
  19150855.502   -12818939.094 7  -9856145.462 9
  18748496.166   -26156608.275 7 -20148584.042 9
  21877163.939    -7546381.154 5  -5626550.091 2
  21999183.807    -9963307.491 5  -7526965.500 5
  21576916.385     3083707.838 5   2416215.517 5
  20734562.479   -20007997.380 6 -15482648.275 6
 94  2  3  1 51 59.9940000  0  7 27  2  7 13 15 19 26
  19335476.807    -5653719.032 7  -4354716.449 8
  19144210.440   -12853858.915 7  -9883355.682 9
  18734826.635   -26228446.843 7 -20204562.112 9
  21847256.338    -7703564.255 5  -5749030.329 1
  21990805.580   -10007353.967 5  -7561287.397 5
  21585487.432     3128773.563 5   2451331.657 5
  20722041.588   -20073786.743 6 -15533912.696 6
 94  2  3  1 52 29.9940000  0  7 27  2  7 13 15 19 26
  19339333.635    -5633442.889 7  -4338916.859 8
  19137600.268   -12888589.751 7  -9910418.653 9
  18721252.299   -26299788.365 7 -20260152.870 9
  21817376.502    -7860566.138 5  -5871369.338 3
  21982519.611   -10050858.894 5  -7595187.331 5
  21594108.869     3174071.697 5   2486628.909 5
  20709618.447   -20139073.704 6 -15584785.633 6
 94  2  3  1 52 59.9940000  0  7 27  2  7 13 15 19 26
  19343272.658    -5612747.321 7  -4322790.430 8
  19131020.854   -12923158.515 7  -9937355.325 9
  18707764.557   -26370651.789 7 -20315371.084 9
  21787534.322    -8017387.813 5  -5993567.919 2
  21974345.877   -10093825.641 5  -7628667.892 5
  21602773.588     3219595.026 5   2522101.639 4
  20697297.658   -20203839.808 6 -15635252.712 6
 94  2  3  1 53 29.9940000  0  7 27  2  7 13 15 19 26
  19347288.268    -5591644.195 6  -4306346.422 7
  19124471.877   -12957581.608 7  -9964178.495 9
  18694375.775   -26441027.476 7 -20370209.249 9
  21757726.494    -8174022.953 5  -6115621.123 2
  21966279.252   -10136250.207 5  -7661725.977 4
  21611477.775     3265334.206 5   2557742.555 5
  20685069.697   -20268076.817 6 -15685307.507 6
 94  2  3  1 53 59.9940000  0  7 27  2  7 13 15 19 26
  19351379.541    -5570141.531 6  -4289591.090 8
  19117949.080   -12991861.493 7  -9990890.073 9
  18681075.900   -26510918.673 7 -20424669.890 9
  21727957.354    -8330462.631 5  -6237522.021 1
  21958312.611   -10178125.600 5  -7694356.133 5
  21620220.627     3311288.083 5   2593550.784 5
  20672948.963   -20331771.552 6 -15734939.744 6
 94  2  3  1 54 29.9930000  0  7 27  2  7 13 15 19 26
  19355542.310    -5548266.810 6  -4272545.843 7
  19111451.005   -13026007.279 7 -10017497.147 9
  18667868.677   -26580319.399 7 -20478748.332 9
  21698223.286    -8486704.632 5  -6359268.869 1
  21950440.802   -10219455.743 5  -7726561.394 5
  21629003.450     3357444.673 5   2629516.970 4
  20660933.958   -20394911.931 6 -15784140.012 6
 94  2  3  1 54 59.9930000  0  7 27  2  7 13 15 19 26
  19359779.333    -5526002.482 6  -4255197.027 8
  19104980.794   -13060018.019 7 -10043998.996 9
  18654755.872   -26649215.539 7 -20532433.604 9
  21668529.146    -8642754.387 5  -6480865.898 2
  21942679.685   -10260240.775 5  -7758341.911 5
  21637830.700     3403810.898 5   2665646.513 5
  20649021.872   -20457505.601 6 -15832914.288 6
 94  2  3  1 55 29.9930000  0  7 27  2  7 13 15 19 26
  19364089.505    -5503354.529 6  -4237549.285 8
  19098535.356   -13093880.198 7 -10070385.087 9
  18641741.919   -26717612.449 7 -20585729.874 9
  21638873.036    -8798616.008 5  -6602316.374 2
  21935021.427   -10300491.120 5  -7789705.801 5
  21646687.794     3450370.369 5   2701926.630 4
  20637210.567   -20519583.352 6 -15881286.548 6
 94  2  3  1 55 59.9930000  0  7 27  2  7 13 15 19 26
  19368476.474    -5480303.016 6  -4219587.062 8
  19092124.239   -13127571.576 7 -10096638.082 9
  18628822.974   -26785499.768 7 -20638629.044 9
  21609251.513    -8954273.090 5  -6723607.405 3
  21927470.677   -10340192.744 5  -7820642.118 5
  21655589.685     3497142.296 5   2738372.313 5
  20625499.450   -20581123.777 6 -15929240.082 6
 94  2  3  1 56 29.9930000  0  7 27  2  7 13 15 19 26
  19372939.185    -5456851.385 6  -4201313.086 7
  19085747.122   -13161087.109 7 -10122754.060 9
  18616003.880   -26852872.549 7 -20691127.285 9
  21579668.763    -9109729.252 5  -6844741.906 2
  21920015.810   -10379351.962 5  -7851155.782 5
  21664526.942     3544126.205 5   2774983.164 5
  20613887.989   -20642137.882 6 -15976783.537 6
 94  2  3  1 56 59.9930000  0  7 27  2  7 13 15 19 26
  19377479.778    -5432989.693 6  -4182719.571 7
  19079400.396   -13194431.975 7 -10148737.038 9
  18603279.271   -26919743.064 7 -20743234.142 9
  21550122.841    -9264983.554 5  -6965719.093 2
  21912665.810   -10417969.762 5  -7881247.546 5
  21673507.560     3591315.535 5   2811754.101 4
  20602371.817   -20702635.108 6 -16023924.201 6
 94  2  3  1 57 29.9930000  0  7 27  2  7 13 15 19 26
  19382095.888    -5408730.952 6  -4163816.685 7
  19073089.544   -13227614.224 7 -10174593.324 9
  18590643.271   -26986127.469 7 -20794962.228 9
  21520621.278    -9420037.835 5  -7086540.454 2
  21905421.239   -10456050.349 5  -7910920.721 5
  21682521.833     3638699.397 5   2848676.600 4
  20590960.044   -20762607.236 6 -16070655.717 6
 94  2  3  1 57 59.9930000  0  7 27  2  7 13 15 19 26
  19386791.356    -5384058.741 6  -4144591.580 8
  19066804.599   -13260623.814 7 -10200315.043 9
  18578110.567   -27051998.791 7 -20846290.491 9
  21491151.591    -9574871.653 5  -7207190.009 2
  21898277.763   -10493575.982 5  -7940161.445 5
  21691581.724     3686294.872 5   2885764.017 5
  20579655.060   -20822031.342 6 -16116960.183 6
 94  2  3  1 58 29.9930000  0  7 27  2  7 13 15 19 26
  19391560.763    -5358991.870 6  -4125058.944 7
  19060552.856   -13293478.055 7 -10225915.731 9
  18565670.091   -27117377.217 7 -20897234.700 9
  21461727.935    -9729501.577 5  -7327680.688 3
  21891240.591   -10530565.403 5  -7968984.369 4
  21700675.021     3734085.007 5   2923003.093 3
  20568447.005   -20880940.224 6 -16162863.200 6
 94  2  3  1 58 59.9930000  0  7 27  2  7 13 15 19 26
  19396407.161    -5333526.500 6  -4105215.801 7
  19054331.646   -13326179.308 7 -10251397.207 9
  18553318.177   -27182287.041 7 -20947813.755 9
  21432345.325    -9883925.505 5  -7448010.873 4
  21884304.419   -10567019.375 5  -7997390.040 5
  21709809.841     3782077.352 5   2960399.739 4
  20557330.849   -20939335.712 6 -16208366.155 6
 94  2  3  1 59 29.9930000  0  7 27  2  7 13 15 19 26
  19401329.825    -5307661.397 6  -4085061.183 7
  19048141.278   -13358707.219 7 -10276743.611 9
  18541058.161   -27246707.199 7 -20998011.247 9
  21402997.200   -10038132.157 5  -7568171.744 4
  21877468.036   -10602928.781 5  -8025371.375 5
  21718984.247     3830295.322 5   2997972.200 3
  20546319.903   -20997203.215 6 -16253457.680 6
 94  2  3  1 59 59.9930000  0  7 27  2  7 13 15 19 26
  19406325.817    -5281401.883 6  -4064599.218 7
  19041984.044   -13391058.522 7 -10301952.391 9
  18528895.036   -27310633.227 7 -21047823.701 9
  21373691.255   -10192119.022 5  -7688161.359 4
  21870737.403   -10638293.699 5  -8052928.444 5
  21728205.435     3878750.071 5   3035729.177 4
  20535408.333   -21054550.094 6 -16298143.534 6
 94  2  3  2  0 29.9930000  0  7 27  2  7 13 15 19 26
  19411396.216    -5254753.152 6  -4043833.965 7
  19035862.044   -13423238.042 7 -10327027.316 9
  18516816.513   -27374079.804 7 -21097262.554 9
  21344432.630   -10345888.578 5  -7807981.656 5
  21864111.427   -10673119.529 5  -8080065.414 4
  21737472.583     3927448.285 5   3073675.866 4
  20524597.192   -21111375.302 6 -16342422.886 6
 94  2  3  2  0 59.9930000  0  7 27  2  7 13 15 19 26
  19416544.356    -5227707.056 6  -4022759.064 7
  19029770.864   -13455249.844 7 -10351971.559 9
  18504840.927   -27437027.778 7 -21146312.894 9
  21315218.177   -10499428.941 5  -7927623.388 4
  21857583.966   -10707396.336 5  -8106774.605 5
  21746789.356     3976403.645 5   3111822.918 4
  20513885.927   -21167656.371 6 -16386278.240 6
 94  2  3  2  1 29.9930000  0  7 27  2  7 13 15 19 26
  19421762.075    -5200280.192 6  -4001387.485 7
  19023706.786   -13487109.970 7 -10376797.609 9
  18492959.583   -27499462.708 7 -21194963.456 9
  21286040.841   -10652746.422 5  -8047091.440 3
  21851172.114   -10741133.337 5  -8133063.173 5
  21756145.708     4025593.883 5   3150153.004 3
  20503274.153   -21223397.743 6 -16429713.049 6
 94  2  3  2  1 59.9930000  0  7 27  2  7 13 15 19 26
  19427053.200    -5172474.954 6  -3979721.084 7
  19017669.599   -13518839.303 7 -10401521.741 9
  18481172.896   -27561400.455 7 -21243226.602 9
  21256906.021   -10805839.032 5  -8166384.291 4
  21844855.106   -10774331.124 5  -8158931.569 5
  21765550.458     4075003.309 5   3188653.858 2
  20492773.716   -21278602.343 6 -16472729.590 6
 94  2  3  2  2 29.9930000  0  7 27  2  7 13 15 19 26
  19432419.122    -5144286.346 6  -3957755.924 7
  19011653.497   -13550454.797 7 -10426157.170 9
  18469482.021   -27622841.333 7 -21291102.570 9
  21227814.997   -10958705.201 5  -8285500.698 3
  21838634.708   -10806990.530 5  -8184380.445 5
  21774989.106     4124615.589 5   3227312.787 4
  20482367.052   -21333272.806 6 -16515329.911 6
 94  2  3  2  2 59.9930000  0  7 27  2  7 13 15 19 26
  19437853.450    -5115724.340 6  -3935499.820 7
  19005658.638   -13581961.001 7 -10450707.430 9
  18457882.911   -27683783.880 7 -21338590.239 9
  21198771.310   -11111340.283 5  -8404437.035 3
  21832530.153   -10839109.749 5  -8209408.367 3
  21784466.896     4174408.083 5   3266112.144 2
  20472066.489   -21387411.609 6 -16557515.964 7
 94  2  3  2  3 29.9930000  0  7 27  2  7 13 15 19 26
  19443357.552    -5086787.496 6  -3912951.628 7
  18999683.942   -13613347.689 7
  18446377.364   -27744250.597 7 -21385707.120 9
  21169773.310   -11263742.555 6  -8523191.994 4
  21826523.036   -10870689.699 5
  21793975.810     4224364.155 5   3305038.981 2
  20461863.200   -21441027.422 6 -16599294.495 6
 94  2  3  2  3 59.9930000  0  7 27  2  7 13 15 19 26
  19448939.325    -5057466.559 6  -3890104.144 7
  18993735.771   -13644597.737 7 -10499515.228 9
  18434963.177   -27804243.750 7 -21432454.994 9
  21140818.278   -11415898.609 6  -8641755.080 3
  21820613.435   -10901720.043 5  -8258195.605 5
  21803510.474     4274495.914 5   3344102.702 4
  20451763.771   -21494111.207 6 -16640658.457 6
 94  2  3  2  4 29.9930000  0  7 27  2  7 13 15 19 26
  19454588.169    -5027779.546 6  -3866971.419 7
  18987820.755   -13675699.095 7 -10523750.032 9
  18423635.872   -27863757.223 7 -21478829.097 9
  21111905.841   -11567817.379 6  -8760133.261 5
  21814805.911   -10932212.191 5  -8281955.698 5
  21813086.544     4324795.192 5   3383296.954 3
  20441760.216   -21546674.598 6 -16681616.910 7
 94  2  3  2  4 59.9930000  0  7 27  2  7 13 15 19 26
  19460307.919    -4997731.214 6  -3843557.150 7
  18981936.224   -13706623.342 7 -10547846.835 9
  18412402.552   -27922788.296 7 -21524827.301 9
  21083042.841   -11719492.099 6  -8878321.287 2
  21809110.271   -10962162.102 5  -8305293.267 5
  21822690.349     4375277.894 5   3422634.136 4
  20431858.778   -21598705.011 6 -16722160.066 7
 94  2  3  2  5 29.9930000  0  7 27  2  7 13 15 19 26
  19466094.271    -4967321.906 6  -3819861.582 7
  18976084.708   -13737358.892 7 -10571796.601 9
  18401263.786   -27981341.372 7 -21570453.032 9
  21054228.325   -11870926.129 6  -8996321.779 4
  21803513.942   -10991575.761 5  -8328212.985 5
  21832335.864     4425948.705 5   3462117.892 3
  20422055.005   -21650219.166 6 -16762300.940 6
 94  2  3  2  5 59.9930000  0  7 27  2  7 13 15 19 26
  19471948.911    -4936556.499 6  -3795888.535 7
  18970276.481   -13767896.699 7 -10595592.271 9
  18390214.833   -28039391.056 7 -21615686.516 9
  21025457.935   -12022107.688 6  -9114125.523 4
  21798019.247   -11020444.069 5  -8350707.760 4
  21842010.575     4476812.302 5   3501751.851 3
  20412353.013   -21701211.107 6 -16802034.887 6
 94  2  3  2  6 29.9930000  0  7 27  2  7 13 15 19 26
  19477873.380    -4905420.916 6  -3771627.048 7
  18964500.950   -13798244.652 7 -10619240.011 9
  18379266.192   -28096928.166 7 -21660520.597 9
  20996736.021   -12173026.694 6  -9231724.692 4
  21792626.880   -11048759.816 5  -8372771.968 5
  21851727.341     4527870.845 5   3541537.731 2
  20402744.606   -21751680.685 6 -16841361.804 6
 94  2  3  2  6 59.9930000  0  7 27  2  7 13 15 19 26
  19483870.036    -4873899.787 6  -3747065.116 7
  18958757.021   -13828421.864 7 -10642754.713 9
  18368411.880   -28153968.748 7 -21704967.772 9
  20968073.146   -12323685.342 6  -9349120.977 3
  21787348.028   -11076528.057 5  -8394409.551 5
  21861480.099     4579101.365 5   3581457.628 3
  20393240.771   -21801641.789 6 -16880292.510 6
 94  2  3  2  7 29.9930000  0  7 27  2  7 13 15 19 26
  19489945.755    -4841980.903 6  -3722193.260 7
  18953038.356   -13858462.933 7 -10666163.323 9
  18357652.372   -28210514.409 7 -21749029.297 9
  20939452.989   -12474084.352 6  -9466314.945 4
  21782164.427   -11103752.399 5  -8415623.316 5
  21871253.771     4630483.853 5   3621495.934 4
  20383829.396   -21851103.961 6 -16918834.437 6
 94  2  3  2  7 59.9930000  0  7 27  2  7 13 15 19 26
  19496096.396    -4809657.513 6  -3697006.228 7
  18947343.388   -13888393.764 7 -10689486.023 9
  18346988.739   -28266562.268 7 -21792702.923 9
  20910879.544   -12624219.839 6  -9583303.567 4
  21777089.356   -11130432.213 5  -8436412.756 4
  21881065.864     4682024.876 5   3661657.775 2
  20374513.903   -21900046.589 6 -16956971.530 6
 94  2  3  2  8 29.9930000  0  7 27  2  7 13 15 19 26
  19502327.091    -4776910.723 6  -3671489.252 7
  18941671.849   -13918217.872 7 -10712725.576 9
  18336414.380   -28322103.892 7 -21835982.077 8
  20882361.919   -12774083.397 6  -9700080.304 3
  21772113.333   -11156561.302 5  -8456773.092 5
  21890903.005     4733741.302 5   3701956.288 3
  20365304.903   -21948448.028 6 -16994686.930 6
 94  2  3  2  8 59.9930000  0  7 27  2  7 13 15 19 26
  19508637.247    -4743748.633 6  -3645648.685 7
  18936015.450   -13947913.369 7 -10735864.912 9
  18325944.700   -28377139.221 7 -21878866.717 9
  20853895.997   -12923669.107 6  -9816640.554 4
  21767249.724   -11182136.779 5  -8476702.030 5
  21900781.622     4785642.583 5   3742398.827 2
  20356201.427   -21996292.628 6 -17031968.416 6
 94  2  3  2  9 29.9930000  0  7 27  2  7 13 15 19 26
  19515023.013    -4710192.091 6  -3619500.735 7
  18930393.856   -13977469.071 7 -10758895.314 9
  18315564.903   -28431682.732 7 -21921368.123 8
  20825488.083   -13072975.511 6  -9932983.144 4
  21762488.927   -11207160.540 5  -8496201.056 4
  21910693.317     4837744.971 4   3782998.112 3
  20347201.239   -22043571.842 6 -17068809.343 6
 94  2  3  2  9 59.9930000  0  7 27  2  7 13 15 19 26
  19521477.341    -4676278.401 6  -3593074.483 7
  18924797.716   -14006872.004 7 -10781806.669 9
  18305275.958   -28485750.502 7 -21963498.818 8
  20797126.747   -13222012.437 6 -10049115.733 4
  21757829.442   -11231644.783 5  -8515279.671 5
  21920648.349     4890041.264 4   3823748.499 2
  20338314.169   -22090292.786 6 -17105215.251 7
 94  2  3  2 10 29.9930000  0  7 27  2  7 13 15 19 26
  19527996.575    -4642018.328 6  -3566378.311 7
  18919237.903   -14036091.103 7 -10804574.780 9
  18295079.575   -28539339.594 7 -22005256.526 8
  20768818.622   -13370770.181 6 -10165030.801 5
  21753272.310   -11255583.110 5  -8533932.917 5
  21930630.083     4942520.720 4   3864641.586 4
  20329529.013   -22136464.868 6 -17141193.489 7
 94  2  3  2 10 59.9930000  0  7 27  2  7 13 15 19 26
  19534580.075    -4607417.281 6  -3539416.443 7
  18913718.974   -14065105.073 7 -10827183.049 9
  18284969.981   -28592455.268 7 -22046645.328 9
  20740562.333   -13519234.556 6 -10280717.269 4
  21748825.138   -11278964.122 5  -8552151.877 5
  21940654.060     4995184.771 4   3905678.510 2
  20320843.028   -22182095.884 6 -17176750.118 7
 94  2  3  2 11 29.9930000  0  7 27  2  7 13 15 19 26
  19541227.935    -4572487.094 6  -3512198.125 7
  18908230.161   -14093937.854 7 -10849650.126 9
  18274952.403   -28645098.773 7 -22087666.209 8
  20712368.427   -13667412.030 6 -10396180.180 4
  21744481.849   -11301797.258 5  -8569943.912 5
  21950711.896     5048019.422 4   3946848.392 2
  20312259.005   -22227207.505 6 -17211902.012 7
 94  2  3  2 11 59.9930000  0  7 27  2  7 13 15 19 26
  19547940.763    -4537216.751 6  -3484714.764 7
  18902781.685   -14122586.649 7 -10871973.838 9
  18265027.419   -28697246.012 7 -22128300.390 9
  20684227.825   -13815289.455 6 -10511409.293 5
  21740238.349   -11324072.577 5  -8587301.288 5
  21960796.708     5101028.872 4   3988154.466 4
  20303770.192   -22271797.818 6 -17246647.691 6
 94  2  3  2 12 29.9930000  0  7 27  2  7 13 15 19 26
  19554717.997    -4501598.421 6  -3456960.221 7
  18897361.544   -14151068.332 7 -10894167.326 9
  18255196.224   -28748913.089 7 -22168560.415 8
  20656143.716   -13962876.527 6 -10626412.155 5
  21736103.208   -11345802.392 5  -8604233.595 5
  21970916.442     5154199.683 4   4029586.269 2
  20295379.411   -22315892.539 6 -17281007.190 6
 94  2  3  2 12 59.9930000  0  7 27  2  7 13 15 19 26
  19561565.208    -4465612.887 6  -3428919.556 7
  18891971.169   -14179396.964 7 -10916241.574 9
  18245455.583   -28800102.771 7 -22208448.467 8
  20628113.466   -14110171.972 6 -10741187.787 5
  21732071.356   -11366988.399 5  -8620742.185 5
  21981068.075     5207545.433 4   4071154.379 3
  20287083.981   -22359486.672 6 -17314976.645 7
 94  2  3  2 13 29.9920000  0  7 27  2  7 13 15 19 26
  19568491.070    -4429226.201 6  -3400566.299 7
  18886608.211   -14207558.155 7 -10938185.334 9
  18235814.391   -28850781.755 7 -22247938.555 8
  20600142.680   -14257150.983 6 -10855716.823 5
  21728151.461   -11387613.367 5  -8636813.572 5
  21991256.180     5261091.821 4   4112878.847 3
  20278890.469   -22402545.759 6 -17348529.165 7
 94  2  3  2 13 59.9920000  0  7 27  2  7 13 15 19 26
  19575487.828    -4392449.423 6  -3371909.064 7
  18881281.313   -14235565.648 7 -10960009.330 9
  18226261.094   -28900970.278 7 -22287046.458 8
  20572231.359   -14403834.442 6 -10970015.562 4
  21724328.055   -11407692.898 5  -8652459.936 5
  22001481.695     5314832.981 4   4154755.101 4
  20270797.359   -22445077.399 6 -17381670.680 6
 94  2  3  2 14 29.9920000  0  7 27  2  7 13 15 19 26
  19582560.766    -4355282.816 6  -3342948.093 7
  18875979.023   -14263429.379 7 -10981721.313 9
  18216804.633   -28950665.017 7 -22325769.612 9
  20544375.117   -14550213.797 6 -11084077.347 5
  21720610.547   -11427225.832 5  -8667680.392 5
  22011743.586     5368765.281 3   4196780.287 4
  20262808.242   -22487069.022 6 -17414391.419 6
 94  2  3  2 14 59.9920000  0  7 27  2  7 13 15 19 26
  19589703.383    -4317747.392 6  -3313699.706 7
  18870701.836   -14291161.923 7 -11003331.069 9
  18207439.977   -28999869.785 7 -22364110.968 9
  20516578.531   -14696292.777 6 -11197905.076 5
  21716996.914   -11446219.123 5  -8682480.356 5
  22022042.820     5422887.349 3   4238953.327 2
  20254920.609   -22528517.302 6 -17446688.766 6
 94  2  3  2 15 29.9920000  0  7 27  2  7 13 15 19 26
  19596912.422    -4279864.614 6  -3284180.655 6
  18865450.648   -14318757.322 7 -11024833.968 9
  18198170.266   -29048594.137 7 -22402077.965 8
  20488838.406   -14842070.914 6 -11311498.371 5
  21713484.242   -11464674.867 5  -8696861.437 5
  22032373.422     5477180.944 3   4281260.042 2
  20247131.688   -22569435.752 6 -17478573.263 6
 94  2  3  2 15 59.9920000  0  7 27  2  7 13 15 19 26
  19604187.344    -4241625.678 6  -3254384.086 7
  18860226.469   -14346200.058 7 -11046217.897 9
  18188990.742   -29096832.553 7 -22439666.310 9
  20461159.195   -14987526.997 6 -11424840.724 5
  21710078.281   -11482575.213 5  -8710809.750 5
  22042743.133     5531649.101 3   4323702.765 2
  20239448.633   -22609826.237 6 -17510046.350 6
 94  2  3  2 16 29.9920000  0  7 27  2  7 13 15 19 26
  19611533.281    -4203029.447 6  -3224309.102 6
  18855030.867   -14373491.546 7 -11067483.979 9
  18179903.594   -29144595.761 7 -22476884.374 9
  20433536.234   -15132663.491 6 -11537934.041 5
  21706776.156   -11499925.873 5  -8724329.719 5
  22053138.148     5586275.783 3   4366269.025 2
  20231863.133   -22649704.749 6 -17541120.507 6
 94  2  3  2 16 59.9920000  0  7 27  2  7 13 15 19 26
  19618944.828    -4164076.357 6  -3193956.060 7
  18849869.109   -14400621.743 7 -11088624.371 9
  18170901.531   -29191892.403 7 -22513738.877 9
  20405981.070   -15277483.157 6 -11650780.479 5
  21703575.422   -11516732.547 5  -8737425.806 5
  22063559.484     5641050.928 3   4408950.955 2
  20224369.914   -22689087.140 6 -17571808.070 6
 94  2  3  2 17 29.9920000  0  8 27  2  7 13 15 19  4 26
  19626427.234    -4124766.845 6  -3163325.263 7
  18844737.398   -14427592.029 7 -11109640.166 9
  18161993.609   -29238709.708 7 -22550219.869 9
  20378484.063   -15421982.331 6 -11763377.164 5
  21700480.734   -11532994.957 5  -8750097.787 4
  22074011.445     5695959.162 3   4451736.624 1
  22418404.398          -0.54313
  20216967.844   -22727966.741 6 -17602103.851 6
 94  2  3  2 17 59.9920000  0  8 27  2  7 13 15 19  4 26
  19633976.883    -4085090.635 6  -3132408.747 7
  18839638.016   -14454400.617 7 -11130529.978 9
  18153178.227   -29285022.791 7 -22586307.965 9
  20351047.734   -15566149.618 6 -11875715.246 5
  21697493.156   -11548705.068 5  -8762339.431 5
  22084485.375     5751014.997 3   4494637.265 2
  22391406.016     -141846.457 3
  20209669.133   -22766318.322 6 -17631988.200 7
 94  2  3  2 18 29.9920000  0  8 27  2  7 13 15 19  4 26
  19641591.984    -4045064.227 6  -3101219.335 6
  18834565.578   -14481047.706 7 -11151293.920 9
  18144462.969   -29330835.545 7 -22622006.187 9
  20323677.836   -15709995.784 6 -11987803.089 5
  21694607.406   -11563876.723 5  -8774161.486 4
  22094990.328     5806217.155 3   4537651.946 2
  22364405.563     -283779.339 3        -0.38811
  20202468.484   -22804141.737 6 -17661460.958 6
 94  2  3  2 18 59.9920000  0  8 27  2  7 13 15 19  4 26
  19649275.813    -4004689.845 6  -3069758.804 6
  18829531.023   -14507523.044 7 -11171924.045 9
  18135838.227   -29376139.720 7 -22657308.122 9
  20296362.953   -15853512.594 6 -12099634.287 5
  21691823.773   -11578504.605 5  -8785559.833 4
  22105525.453     5861581.408 3   4580792.911 2
  22337382.391     -425787.417 3   -110655.898 2
  20195371.930   -22841425.327 6 -17690513.100 6
 94  2  3  2 19 29.9920000  0  8 27  2  7 13 15 19  4 26
  19657027.719    -3963973.736 6  -3038031.991 6
  18824523.563   -14533827.720 7 -11192421.173 9
  18127310.750   -29420943.100 7 -22692219.823 9
  20269119.047   -15996697.389 6 -12211206.777 5
  21689143.742   -11592589.647 5  -8796535.156 5
  22116090.430     5917117.853 3   4624068.096 2
  22310344.258     -567861.546 3   -221362.827 2
  20188385.453   -22878165.226 6 -17719141.576 7
 94  2  3  2 19 59.9920000  0  8 27  2  7 13 15 19  4 26
  19664839.969    -3922908.066 6  -3006032.810 6
  18819550.750   -14559948.774 7 -11212775.233 9
  18118882.125   -29465254.677 7 -22726748.310 9
  20241936.492   -16139538.857 6 -12322511.755 5
  21686569.289   -11606123.609 5  -8807081.082 5
  22126694.352     5972842.600 3   4667489.978 2
  22283296.094     -709994.154 3   -332115.347 2
  20181499.172   -22914362.893 6 -17747347.550 6
 94  2  3  2 20 29.9920000  0  8 27  2  7 13 15 19  4 26
  19672717.406    -3881502.233 6  -2973768.526 6
  18814614.633   -14585884.588 7 -11232984.939 9
  18110542.289   -29509086.735 7 -22760903.142 9
  20214820.953   -16282036.268 6
  21684094.531   -11619109.148 5  -8817199.665 5
  22137335.023     6028748.597 3   4711053.120 2
  22256232.508     -852192.654 3
  20174710.211   -22950027.893 6 -17775138.439 6
 94  2  3  2 20 59.9920000  0  8 27  2  7 13 15 19  4 26
  19680660.492    -3839764.290 6  -2941245.437 6
  18809710.328   -14611659.798 7 -11253069.501 9
  18102286.305   -29552457.912 7 -22794698.838 9
  20187767.570   -16424197.763 6 -12544323.740 5
  21681729.641   -11631557.289 5  -8826899.481 4
  22148000.477     6084804.325 3   4754732.880 1
  22229166.938     -994476.715 3   -553789.693 2
  20168020.945   -22985176.586 6 -17802527.009 6
 94  2  3  2 21 29.9920000  0  8 27  2  7 13 15 19  4 26
  19688668.820    -3797686.924 6  -2908457.898 6
  18804838.695   -14637273.403 7 -11273028.150 9
  18094122.586   -29595354.681 7 -22828124.875 8
  20160782.164   -16566008.670 6 -12654825.689 5
  21679466.781   -11643457.305 5  -8836172.199 4
  22158699.867     6141001.281 3   4798522.714 1
  22202071.805    -1136834.792 3   -664717.916 2
  20161438.195   -23019791.334 6 -17829499.539 6
 94  2  3  2 21 59.9920000  0  8 27  2  7 13 15 19  4 26
  19696735.656    -3755279.027 6  -2875412.812 6
  18799993.250   -14662742.591 7 -11292874.256 9
  18086051.406   -29637777.479 7 -22861181.572 9
  20133863.625   -16707472.284 6 -12765057.026 5
  21677299.297   -11654815.552 5  -8845022.756 4
  22169416.547     6197319.248 3   4842406.875 2
  22174965.891    -1279280.905 3   -775714.703 2
  20154944.461   -23053887.785 6 -17856068.192 6
 94  2  3  2 22 29.9920000  0  8 27  2  7 13 15 19  4 26
  19704870.344    -3712529.095 6  -2842101.178 6
  18795168.719   -14688072.598 7 -11312611.895 9
  18078069.016   -29679724.251 7 -22893867.340 9
  20107009.203   -16848588.341 6 -12875017.528 5
  21675239.219   -11665635.105 5  -8853453.560 4
  22180155.195     6253762.589 3   4886388.707 1
  22147840.273    -1421813.676 3   -886779.024 2
  20148558.789   -23087478.777 6 -17882242.974 6
 94  2  3  2 22 59.9920000  0  8 27  2  7 13 15 19  4 26
  19713079.016    -3669413.294 6  -2808504.491 6
  18790375.063   -14713266.128 7 -11332243.207 9
  18070180.469   -29721190.618 7 -22926178.774 9
  20080221.703   -16989347.983 6 -12984700.318 5
  21673286.492   -11675910.634 5  -8861460.458 4
  22190927.063     6310344.907 3   4930478.819 1
  22120702.031    -1564424.450 3   -997904.134 3
  20142258.914   -23120559.951 6 -17908020.511 6
 94  2  3  2 23 29.9920000  0  8 27  2  7 13 15 19  4 26
  19721350.188    -3625944.006 6  -2774632.335 6
  18785606.781   -14738319.301 7 -11351765.146 9
  18062378.672   -29762186.012 7 -22958123.207 8
  20053503.859   -17129755.480 6 -13094108.707 5
  21671436.414   -11685649.592 5  -8869049.235 5
  22201716.289     6367074.733 3   4974683.901 2
  22093558.422    -1707104.758 3  -1109083.410 3
  20136062.399   -23153140.422 6 -17933407.871 6
 94  2  3  2 23 59.9920000  0  8 27  2  7 13 15 19  4 26
  19729691.828    -3582107.826 6  -2740474.305 6
  18780874.570   -14763205.669 7 -11371157.121 9
  18054663.750   -29802717.824 7 -22989706.417 8
  20026856.008   -17269801.251 6 -13203235.230 5
  21669681.461   -11694845.545 5  -8876214.896 5
  22212546.156     6423976.647 3   5019023.076 1
  22066390.688    -1849846.517 3  -1220310.607 2
  20129952.445   -23185225.481 6 -17958409.214 7
 94  2  3  2 24 29.9920000  0  8 27  2  7 13 15 19  4 26
  19738100.813    -3537920.004 6  -2706042.242 6
  18776168.742   -14787926.642 7 -11390420.209 9
  18047033.953   -29842809.171 7 -23020946.407 9
  20000274.031   -17409486.946 6 -13312081.177 5
  21668036.563   -11703504.002 5  -8882961.723 4
  22223402.133     6481050.682 3   5063496.345 2
  22039217.461    -1992638.655 3  -1331577.036 2
  20123947.016   -23216808.452 6 -17983019.311 7
 94  2  3  2 24 59.9920000  0  8 27  2  7 13 15 19  4 26
  19746568.313    -3493406.685 6  -2671356.532 6
  18771496.453   -14812477.719 7 -11409550.909 9
  18039492.422   -29882461.659 7 -23051844.436 9
  19973761.047   -17548809.605 6 -13420644.247 5
  21666487.172   -11711625.319 5  -8889289.995 4
  22234296.797     6538279.608 3   5108090.326 2
  22012044.102    -2135480.229 3  -1442882.029 2
  20118027.953   -23247875.948 6 -18007227.749 7
 94  2  3  2 25 29.9920000  0  8 27  2  7 13 15 19  4 26
  19755099.102    -3448588.904 6  -2636433.582 6
  18766861.211   -14836844.203 7 -11428537.766 9
  18032026.469   -29921677.396 7 -23082402.135 9
  19947318.164   -17687764.686 6 -13528920.883 5
  21665044.039   -11719208.158 5  -8895198.684 4
  22245213.688     6595655.683 3   5152798.976 1
  21984843.414    -2278354.505 3  -1554212.497 3
  20112218.195   -23278422.845 6 -18031030.527 6
 94  2  3  2 25 59.9920000  0  8 27  2  7 13 15 19  4 26
  19763685.641    -3403460.084 6  -2601268.255 6
  18762254.625   -14861041.263 7 -11447392.600 9
  18024648.836   -29960447.707 7 -23112612.738 8
  19920948.758   -17826345.162 6 -13636905.609 5
  21663704.820   -11726248.825 5  -8900684.881 5
  22256164.648     6653181.472 3   5197624.292 1
  21957656.930    -2421264.885 4  -1665571.081 2
  20106507.125   -23308440.014 6 -18054420.515 6
 94  2  3  2 26 29.9920000  0  8 27  2  7 13 15 19  4 26
  19772328.320    -3358037.016 6  -2565873.664 6
  18757680.523   -14885097.445 7 -11466137.661 9
  18017358.977   -29998751.239 7 -23142459.618 8
  19894646.305   -17964564.120 6 -13744608.631 5
  21662468.672   -11732763.870 5  -8905761.521 5
  22267135.547     6710835.467 3   5242549.494 2
  21930443.773    -2564226.651 3  -1776969.723 2
  20100890.719   -23337934.455 6 -18077403.182 6
 94  2  3  2 26 59.9920000  0  8 27  2  7 13 15 19  4 26
  19781037.188    -3312281.034 6  -2530219.658 6
  18753135.149   -14908974.642 7 -11484743.246 9
  18010164.734   -30036549.245 7 -23171912.590 8
  19868417.906   -18102397.215 6 -13852010.992 5
  21661331.625   -11738732.342 5  -8910412.260 5
  22278132.039     6768632.928 3   5287586.452 2
  21903239.383    -2707218.712 3  -1888391.988 2
  20095387.977   -23366879.859 6 -18099958.038 7
 94  2  3  2 27 29.9920000  0  8 27  2  7 13 15  9  4 26
  19789808.734    -3266187.743 6  -2494302.812 6
  18748620.477   -14932696.806 7 -11503228.028 9
  18003064.883   -30073863.185 7 -23200988.358 8
  19842258.367   -18239861.922 6 -13959126.296 5
  21660290.758   -11744175.403 5  -8914653.576 5
  22225773.008          -0.17213
  21876015.320    -2850249.627 3  -1999844.532 3
  20089981.070   -23395296.052 6 -18122100.535 7
 94  2  3  2 27 59.9920000  0  8 27  2  7 13 15  9  4 26
  19798646.508    -3219740.765 6  -2458110.365 6
  18744132.266   -14956271.090 7 -11521597.590 9
  17996062.977   -30110681.199 7 -23229677.697 8
  19816170.148   -18376950.964 6 -14065948.866 5
  21659358.844   -11749089.060 5  -8918482.375 5
  22198789.797     -141778.824 3
  21848793.969    -2993318.421 3  -2111326.590 3
  20084674.242   -23423183.226 6 -18143830.802 6
 94  2  3  2 28 29.9920000  0  8 27  2  7 13 15  9  4 26
  19807551.023    -3172943.477 6  -2421644.949 6
  18739681.828   -14979672.799 7 -11539832.686 9
  17989147.797   -30147003.206 7 -23257980.534 8
  19790157.086   -18513654.511 6 -14172471.057 5
  21658531.594   -11753467.093 5  -8921893.815 5
  22171833.859     -283533.976 4
  21821564.969    -3136401.556 3  -2222819.841 3
  20079459.750   -23450548.732 6 -18165154.559 6
 94  2  3  2 28 59.9920000  0  8 27  2  7 13 15  9  4 26
  19816524.180    -3125794.097 6  -2384905.183 6
  18735263.313   -15002898.987 7 -11557931.008 9
  17982321.289   -30182872.539 7 -23285930.638 8
  19764216.852   -18649966.767 6 -14278688.342 5
  21657795.648   -11757307.137 5  -8924886.043 5
  22144848.109     -425252.181 3        -0.02413
  21794342.836    -3279484.844 4  -2334313.205 2
  20074353.211   -23477397.736 6 -18186075.844 6
 94  2  3  2 29 29.9920000  0  8 27  2  7 13 15  9  4 26
  19825560.336    -3078316.148 6  -2347909.400 6
  18730870.273   -15025980.335 7 -11575916.468 9
  17975581.164   -30218298.350 7 -23313535.140 8
  19738350.430   -18785895.323 6 -14384606.637 6
  21657165.703   -11760620.617 5  -8927467.957 5
  22117895.156     -566945.169 3   -110410.033 2
  21767106.977    -3422588.400 4  -2445822.373 4
  20069339.625   -23503762.823 6 -18206620.068 6
 94  2  3  2 29 59.9920000  0  8 27  2  7 13 15  9  4 26
  19834653.680    -3030531.130 6  -2310674.344 6
  18726506.773   -15048909.128 7 -11593783.051 9
  17968926.039   -30253271.866 7 -23340787.212 9
  19712558.688   -18921438.334 6 -14490224.520 6
  21656634.773   -11763408.765 5  -8929640.521 4
  22090935.024     -708602.817 3   -220792.531 3
  21739873.320    -3565712.783 3  -2557347.786 3
  20064409.336   -23529664.307 6 -18226803.048 6
 94  2  3  2 30 29.9920000  0  8 27  2  7 13 15  9  4 26
  19843806.391    -2982426.352 6  -2273190.117 6
  18722173.797   -15071663.951 7 -11611514.072 9
  17962362.039   -30287785.320 7 -23367680.795 9
  19686840.898   -19056579.500 6 -14595529.278 6
  21656209.758   -11765658.694 5  -8931393.689 5
  22063982.438     -850204.581 3   -331131.486 2
  21712635.633    -3708845.366 4  -2668879.593 4
  20059568.781   -23555095.172 6 -18246619.296 6
 94  2  3  2 30 59.9920000  0  8 27  2  7 13 15  9  4 26
  19853021.953    -2933997.720 6  -2235453.529 6
  18717877.984   -15094259.445 7 -11629120.946 9
  17955876.188   -30321835.981 7 -23394213.761 9
  19661200.375   -19191324.038 6 -14700524.980 6
  21655881.469   -11767379.654 5  -8932734.664 4
  22037052.922     -991761.790 4   -441435.714 2
  21685394.883    -3851993.868 4  -2780423.805 3
  20054823.297   -23580051.988 6 -18266066.158 6
 94  2  3  2 31 29.9920000  0  8 27  2  7 13 15  9  4 26
  19862300.438    -2885246.551 6  -2197465.610 6
  18713608.625   -15116686.473 7 -11646596.541 9
  17949493.969   -30355382.022 7 -23420353.517 9
  19635636.359   -19325665.690 6 -14805206.747 6
  21655652.914   -11768568.506 5  -8933660.999 5
  22010111.516    -1133284.799 4   -551713.308 2
  21658146.227    -3995156.532 4  -2891979.070 4
  20050163.133   -23604526.326 6 -18285137.061 6
 94  2  3  2 31 59.9910000  0  8 27  2  7 13 15  9  4 26
  19871638.566    -2836173.871 6  -2159227.165 6
  18709375.503   -15138940.821 7 -11663937.583 9
  17943205.800   -30388433.002 7 -23446107.516 9
  19610149.886   -19459600.002 6 -14909571.114 6
  21655527.628   -11769228.893 5  -8934175.570 5
  21983182.136    -1274774.880 4   -661965.238 2
  21630907.261    -4138319.736 4  -3003534.725 2
  20045599.362   -23628498.750 6 -18303816.869 6
 94  2  3  2 32 29.9910000  0  8 27  2  7 13 15  9  4 26
  19881039.300    -2786772.553 6  -2120732.648 6
  18705171.862   -15161032.019 7 -11681151.498 9
  17937007.378   -30420996.318 7 -23471481.520 9
  19584739.144   -19593131.347 6 -15013621.472 6
  21655500.964   -11769359.649 5
  21956270.909    -1416239.211 4   -772197.108 2
  21603663.292    -4281496.618 4  -3115101.067 3
  20041140.003   -23651939.358 6 -18322082.269 6
 94  2  3  2 32 59.9910000  0  8 27  2  7 13 15  9  4 26
  19890497.769    -2737055.007 6  -2081991.703 6
  18700993.878   -15182958.005 7 -11698236.662 9
  17930905.980   -30453081.240 7 -23496482.735 9
  19559406.401   -19726261.090 6 -15117358.897 6
  21655579.558   -11768970.115 5
  21929361.128    -1557676.742 4   -882408.095 2
  21576417.964    -4424683.695 5  -3226675.351 4
  20036784.159   -23674843.787 6 -18339929.876 6
 94  2  3  2 33 29.9910000  0  8 27  2  7 13 15  9  4 26
  19900021.315    -2687031.442 6  -2043012.310 6
  18696859.284   -15204718.291 7 -11715192.719 9
  17924885.323   -30484698.311 7 -23521119.400 9
  19534149.065   -19858977.978 6 -15220774.626 6
  21655751.737   -11768053.059 5  -8933259.287 5
  21902449.886    -1699071.149 5   -992585.494 1
  21549165.550    -4567875.290 5  -3338253.148 4
  20032522.941   -23697212.820 6 -18357360.292 6
 94  2  3  2 33 59.9910000  0  8 27  2  7 13 15  9  4 26
  19909594.183    -2636718.499 6  -2003807.414 6
  18692746.722   -15226322.777 7
  17918950.940   -30515891.639 7 -23545425.875 9
  19508972.542   -19991284.789 6 -15323870.814 6
  21656027.589   -11766614.805 5  -8932138.545 5
  21875554.487    -1840404.899 5  -1102715.624 3
  21521920.230    -4711066.470 5  -3449830.625 3
  20028366.097   -23719059.118 6
 94  2  3  2 34 29.9910000  0  8 27  2  7 13 15  9  4 26
  19919220.401    -2586119.714 6  -1964379.785 6
  18688665.480   -15247763.109 7 -11748734.108 9
  17913093.862   -30546673.034 7 -23569411.363 9
  19483874.581   -20123176.757 6 -15426643.745 6
  21656398.339   -11764653.927 5  -8930610.568 5
  21848677.081    -1981653.992 5  -1212779.786 4
  21494671.886    -4854243.776 5  -3561397.291 4
  20024307.495   -23740395.941 6 -18391009.457 6
 94  2  3  2 34 59.9910000  0  8 27  2  7 13 15  9  4 26
  19928903.753    -2535232.071 6  -1924727.079 5
  18684618.081   -15269037.030 7 -11765311.177 9
  17907311.628   -30577056.937 7 -23593087.111 9
  19458855.495   -20254651.444 6 -15529091.530 6
  21656873.198   -11762171.737 5  -8928676.360 4
  21821815.683    -2122813.409 4  -1322774.048 4
  21467430.386    -4997400.042 5  -3672947.562 3
  20020339.987   -23761252.089 6 -18407260.997 6
 94  2  3  2 35 29.9910000  0  8 27  2  7 13 15  9  4 26
  19938644.120    -2484059.232 6  -1884852.140 6
  18680598.831   -15290154.552 7 -11781766.378 9
  17901605.292   -30607038.865 7 -23616449.638 9
  19433919.089   -20385707.226 6 -15631212.881 6
  21657443.745   -11759170.086 5  -8926337.404 4
  21794968.167    -2263890.301 4  -1432704.006 2
  21440198.550    -5140527.982 5  -3784475.780 4
  20016460.261   -23781632.282 6 -18423141.672 6
 94  2  3  2 35 59.9910000  0  8 27  2  7 13 15  9  4 26
  19948438.878    -2432584.309 6  -1844741.809 5
  18676609.972   -15311098.124 7 -11798086.034 9
  17895983.237   -30636602.482 7 -23639486.205 9
  19409057.245   -20516343.880 6 -15733007.657 6
  21658111.050   -11755651.994 5  -8923595.995 4
  21768138.276    -2404893.933 5  -1542576.889 4
  21412957.323    -5283630.682 4  -3895984.333 3
  20012673.784   -23801534.071 6 -18438649.555 6
 94  2  3  2 36 29.9910000  0  8 27  2  7 13 15  9  4 26
  19958295.815    -2380778.507 6  -1804373.663 6
  18672664.831   -15331855.638 7 -11814260.710 9
  17890439.112   -30665707.511 7 -23662165.439 9
  19384280.151   -20646553.007 6 -15834469.285 6
  21658882.230   -11751612.893 5  -8920448.592 5
  21741318.409    -2545831.366 5  -1652398.212 4
  21385733.589    -5426708.495 5  -4007473.487 3
  20008977.339   -23820958.828 6 -18453785.717 6
 94  2  3  2 36 59.9910000  0  8 27  2  7 13 15  9  4 26
  19968220.042    -2328632.739 6  -1763740.587 5
  18668750.401   -15352419.783 7 -11830284.714 9
  17884997.745   -30694317.990 7 -23684459.310 9
  19359585.698   -20776326.093 6 -15935591.147 6
  21659749.769   -11747048.109 5  -8916891.600 4
  21714505.167    -2686725.146 5  -1762185.484 3
  21358517.534    -5569754.505 5  -4118937.884 4
  20005373.972   -23839898.341 6 -18468543.767 6
 94  2  3  2 37 29.9910000  0  8 27  2  7 13 15  9  4 26
  19978204.362    -2276158.677 6  -1722851.711 6
  18664873.331   -15372789.148 7 -11846156.945 9
  17879650.284   -30722428.582 7 -23706363.659 9
  19334971.612   -20905668.883 6 -16036377.714 6
  21660716.730   -11741967.350 5  -8912932.516 3
  21687702.761    -2827594.549 5  -1871953.775 5
  21331299.284    -5712773.368 5  -4230381.127 4
  20001863.925   -23858344.644 6 -18482917.501 6
 94  2  3  2 37 59.9910000  0  8 27  2  7 13 15  9  4 26
  19988254.394    -2223353.793 6  -1681705.060 6
  18661036.987   -15392962.196 7 -11861876.201 9
  17874391.964   -30750045.424 7 -23727883.260 9
  19310440.995   -21034573.942 6 -16136823.193 6
  21661780.230   -11736366.238 5  -8908567.971 5
  21660896.105    -2968427.027 5  -1981693.294 5
  21304090.073    -5855761.415 5  -4341800.356 4
  19998443.948   -23876295.097 6 -18496904.868 6
 94  2  3  2 38 29.9910000  0  8 27  2  7 13 15  9  4 26
  19998359.909    -2170238.529 6  -1640316.549 6
  18657227.761   -15412956.307 7 -11877456.031 9
  17869229.355   -30777186.897 7 -23749032.445 9
  19285995.761   -21163043.205 6 -16236929.089 6
  21662948.112   -11730250.692 5  -8903802.570 4
  21634106.558    -3109226.646 5  -2091407.217 3
  21276886.378    -5998712.225 5  -4453190.576 4
  19995129.519   -23893747.111 6 -18510503.840 6
 94  2  3  2 38 59.9910000  0  8 27  2  7 13 15  9  4 26
  20008526.105    -2116823.739 6  -1598694.644 5
  18653458.003   -15432782.508 7 -11892905.006 9
  17864148.362   -30803882.991 7 -23769834.576 9
  19261631.355   -21291076.716 6 -16336695.432 6
  21664207.761   -11723624.077 5  -8898638.951 4
  21607320.526    -3249988.256 5  -2201091.501 4
  21249688.714    -6141624.220 5  -4564550.551 5
  19991903.269   -23910685.721 6 -18523702.745 6
 94  2  3  2 39 29.9910000  0  8 27  2  7 13 15  9  4 26
  20018746.245    -2063123.803 6  -1556850.547 5
  18649710.472   -15452458.027 7 -11908236.572 9
  17859149.565   -30830163.113 7 -23790312.577 9
  19237350.089   -21418678.364 7 -16436125.256 6
  21665564.542   -11716493.989 5  -8893083.031 4
  21580544.081    -3390694.430 5  -2310732.632 4
  21222502.980    -6284507.220 5  -4675887.922 4
  19988780.347   -23927114.108 6 -18536504.078 6
 94  2  3  2 39 59.9910000  0  8 27  2  7 13 15  9  4 26
  20029018.308    -2009126.958 6  -1514775.084 5
  18645997.839   -15471975.886 7 -11923445.281 9
  17854230.667   -30856014.565 7 -23810456.548 9
  19213152.081   -21545827.928 6 -16535202.804 6
  21667016.995   -11708843.763 5  -8887121.759 3
  21553783.425    -3531319.062 5  -2420310.180 4
  21195319.261    -6427341.226 5  -4787187.105 4
  19985743.714   -23943040.079 6 -18548913.918 6
 94  2  3  2 40 29.9910000  0  8 27  2  7 13 15  9  4 26
  20039359.636    -1954786.570 6  -1472431.937 5
  18642318.401   -15491305.852 7 -11938507.590 9
  17849400.472   -30881399.213 7 -23830236.779 9
  19189048.519   -21672487.584 6 -16633898.590 6
  21668578.683   -11700639.430 5  -8880728.755 3
  21527047.706    -3671826.257 5  -2529796.223 2
  21168157.925    -6570086.707 5  -4898417.319 5
  19982816.573   -23958441.019 6 -18560914.640 6
 94  2  3  2 40 59.9910000  0  8 27  2  7 13 15  9  4 26
  20049752.706    -1900173.180 6  -1429876.040 5
  18638668.003   -15510500.106 7 -11953464.136 9
  17844642.776   -30906383.728 7 -23849705.215 9
  19165028.183   -21798724.552 6 -16732265.029 6
  21670230.183   -11691951.861 5  -8873959.182 4
  21500321.808    -3812268.459 5  -2639231.665 3
  21141001.417    -6712806.564 5  -5009627.565 5
  19979967.839   -23973408.531 6 -18572577.637 6
 94  2  3  2 41 29.9910000  0  8 27  2  7 13 15  9  4 26
  20060198.308    -1845294.545 6  -1387113.471 5
  18635047.151   -15529533.313 7 -11968295.198 9
  17839969.808   -30930935.710 7 -23868836.615 9
  19141090.230   -21924521.099 6 -16830288.268 6
  21671988.948   -11682767.150 5  -8866802.245 4
  21473613.847    -3952621.775 5  -2748597.864 2
  21113853.683    -6855486.008 5  -5120806.332 4
  19977200.003   -23987946.400 6 -18583905.845 6
 94  2  3  2 41 59.9910000  0  8 27  2  7 13 15  9  4 26
  20070690.800    -1790137.989 6  -1344134.333 5
  18631455.980   -15548399.655 7 -11982996.234 9
  17835382.831   -30955050.261 7 -23887627.158 9
  19117237.550   -22049872.958 6 -16927965.007 6
  21673826.237   -11673084.684 5  -8859257.444 4
  21446922.370    -4092882.256 5  -2857891.664 3
  21086703.511    -6998125.670 5  -5231954.051 4
  19974516.526   -24002055.439 6 -18594899.879 6
 94  2  3  2 42 29.9910000  0  8 27  2  7 13 15  9  4 26
  20081242.042    -1734687.668 6  -1300926.287 5
  18627899.175   -15567073.200 7 -11997547.060 9
  17830882.636   -30978711.241 7 -23906064.271 9
  19093470.862   -22174766.003 7 -17025284.220 6
  21675764.440   -11662893.532 5  -8851316.260 4
  21420253.019    -4233030.466 5  -2967098.026 4
  21059569.112    -7140706.616 5  -5343056.030 4
  19971923.573   -24015694.375 6 -18605527.617 6
 94  2  3  2 42 59.9910000  0  8 27  2  7 13 15  9  4 26
  20091843.206    -1678983.237 6  -1257520.252 5
  18624383.433   -15585558.139 7 -12011950.905 9
  17826463.206   -31001933.476 7 -23924159.510 9
  19069789.019   -22299216.937 7 -17122258.932 6
  21677797.808   -11652214.188 5  -8842994.673 4
  21393602.105    -4373081.325 5  -3076228.524 2
  21032445.347    -7283258.156 5  -5454135.100 4
  19969411.128   -24028866.853 6 -18615791.875 6
 94  2  3  2 43 29.9910000  0  8 27  2  7 13 15  9  4 26
  20102494.808    -1623002.177 5  -1213898.636 5
  18620899.456   -15603862.338 7 -12026213.914 9
  17822127.167   -31024717.588 7 -23941913.351 9
  19046193.355   -22423208.485 7 -17218875.681 6
  21679925.128   -11641033.116 5  -8834282.110 4
  21366970.175    -4513035.990 5  -3185284.067 4
  21005324.714    -7425772.679 5  -5565185.333 5
  19967004.073   -24041542.445 6 -18625668.947 6
 94  2  3  2 43 59.9910000  0  8 27  2  7 13 15  9  4 26
  20113205.144    -1566725.612 5  -1170046.756 5
  18617451.683   -15621984.104 7 -12040334.757 9
  17817869.105   -31047086.377 7 -23959343.567 9
  19022686.159   -22546739.468 7 -17315133.551 6
  21682149.472   -11629352.943 5  -8825180.658 4
  21340355.066    -4652906.297 5  -3294273.840 5
  20978210.980    -7568238.381 5  -5676197.523 5
  19964686.339   -24053717.642 6 -18635156.107 6
 94  2  3  2 44 29.9910000  0  8 27  2  7 13 15  9  4 26
  20123962.456    -1510183.593 5  -1125988.042 5
  18614039.753   -15639921.435 7 -12054311.894 9
  17813687.503   -31069048.667 7 -23976457.023 9
  18999265.948   -22669816.862 7 -17411037.973 6
  21684462.651   -11617184.306 5  -8815698.571 4
  21313755.511    -4792701.631 5  -3403205.217 4
  20951118.495    -7710652.367 5  -5787169.398 5
  19962463.315   -24065410.128 6 -18644267.124 6
 94  2  3  2 44 59.9910000  0  8 27  2  7 13 15  9  4 26
  20134776.058    -1453370.011 5  -1081717.722 5
  18610662.198   -15657668.652 7 -12068140.890 9
  17809588.425   -31090600.727 7 -23993250.825 9
  18975932.808   -22792427.470 7 -17506578.669 6
  21686872.425   -11604517.676 5  -8805828.424 2
  21287165.175    -4932413.837 5  -3512071.843 3
  20924027.081    -7853002.630 5  -5898091.626 5
  19960325.144   -24076629.373 6 -18653009.392 6
 94  2  3  2 45 29.9910000  0  8 27  2  7 13 15  9  4 26
  20145636.019    -1396287.339 5  -1037237.733 5
  18607319.901   -15675228.519 7 -12081823.896 9
  17805566.886   -31111744.252 7 -24009726.291 9
  18952688.573   -22914572.720 7 -17601756.749 6
  21689377.472   -11591358.427 5  -8795574.420 4
  21260594.925    -5072040.118 5  -3620871.489 3
  20896954.816    -7995263.829 5  -6008944.454 5
  19958273.386   -24087395.467 6 -18661398.549 6
 94  2  3  2 45 59.9910000  0  8 27  2  7 13 15  9  4 26
  20156548.698    -1338952.104 5   -992560.937 5
  18604015.948   -15692596.330 7 -12095357.253 9
  17801624.487   -31132449.218 7 -24025860.019 9
  18929534.370   -23036255.623 7 -17696574.568 6
  21691974.714   -11577712.686 5  -8784941.357 5
  21234043.089    -5211564.839 5  -3729591.992 3
  20869905.362    -8137423.642 5  -6119718.280 5
  19956311.995   -24097716.060 6 -18669440.571 6
 94  2  3  2 46 29.9910000  0  8 27  2  7 13 15  9  4 26
  20167503.683    -1281373.156 5   -947694.225 5
  18600744.722   -15709784.424 7 -12108750.570 9
  17797770.714   -31152695.836 7 -24041636.604 9
  18906466.683   -23157472.352 7 -17791029.141 6
  21694662.050   -11563580.466 5  -8773929.208 4
  21207513.503    -5350978.823 5  -3838226.227 4
  20842867.276    -8279475.187 5  -6230407.745 5
  19954438.800   -24107584.081 6 -18677129.934 6
 94  2  3  2 46 59.9910000  0  8 27  2  7 13 15  9  4 26
  20178510.667    -1223535.771 5   -902626.146 5
  18597504.175   -15726805.248 7 -12122013.543 9
  17794006.331   -31172489.837 7 -24057060.494 9
  18883488.284   -23278219.712 7 -17885117.953 6
  21697443.714   -11548962.097 5  -8762538.250 4
  21181005.644    -5490287.174 5  -3946778.153 4
  20815863.855    -8421408.565 5  -6341005.136 5
  19952647.784   -24116990.999 6 -18684459.988 6
 94  2  3  2 47 29.9910000  0  8 27  2  7 13 15  9  4 26
  20189566.448    -1165428.890 5   -857348.040 5
  18594298.362   -15743661.311 7 -12135148.144 9
  17790324.105   -31191829.601 7 -24072130.434 9
  18860603.847   -23398486.283 7 -17978832.137 6
  21700319.605   -11533850.379 5  -8750762.850 4
  21154519.683    -5629477.687 5  -4055238.259 3
  20788880.487    -8563217.347 5  -6451505.431 5
  19950945.644   -24125921.628 6 -18691418.913 6
 94  2  3  2 47 59.9910000  0  8 27  2  7 13 15  9  4 26
  20200677.972    -1107046.731 5   -811855.459 5
  18591117.917   -15760370.313 7 -12148168.148 9
  17786727.808   -31210742.973 7 -24086868.117 9
  18837808.019   -23518278.141 7 -18072176.414 6
  21703285.089   -11518254.956 4  -8738610.549 5
  21128051.105    -5768569.656 5  -4163621.554 5
  20761907.800    -8704927.279 5  -6561928.684 5
  19949333.128   -24134375.387 6 -18698006.250 6
 94  2  3  2 48 29.9910000  0  8 27  2  7 13 15  9  4 26
  20211839.597    -1048399.856 5   -766156.594 5
  18587967.784   -15776937.610 7 -12161077.729 9
  17783195.151   -31229286.125 7 -24101317.318 9
  18815098.925   -23637606.983 7 -18165159.899 6
  21706341.503   -11502190.819 4  -8726093.024 4
  21101597.894    -5907589.402 5  -4271948.602 5
  20734958.573    -8846567.764 5  -6672297.848 5
  19947814.808   -24142384.968 6 -18704247.488 6
 94  2  3  2 48 59.9910000  0  8 27  2  7 13 15  9  4 26
  20223055.097     -989464.577 5   -720232.994 5
  18584847.050   -15793337.690 7 -12173857.011 9
  17779737.511   -31247455.024 7 -24115474.888 9
  18792484.105   -23756455.049 7 -18257768.753 6
  21709489.714   -11485644.142 4  -8713199.484 3
  21075159.362    -6046517.679 5  -4380204.369 5
  20708018.081    -8988139.585 5  -6782613.486 5
  19946372.964   -24149951.148 6 -18710143.206 6
 94  2  3  2 49 29.9910000  0  8 27  2  7 13 15  9  4 26
  20234321.769     -930254.935 5   -674095.614 5
  18581759.339   -15809567.121 7 -12186503.310 9
  17776351.034   -31265247.485 7 -24129339.128 9
  18769958.925   -23874823.845 7 -18350004.156 6
  21712730.800   -11468620.080 5  -8699933.958 5
  21048739.394    -6185342.164 5  -4488379.260 5
  20681089.855    -9129654.560 5  -6892884.836 5
  19945017.245   -24157081.367 6 -18715699.224 6
 94  2  3  2 49 59.9910000  0  8 27  2  7 13 15  9  4 26
  20245636.191     -870783.831 5   -627754.500 5
  18578704.105   -15825618.978 7 -12199011.247 9
  17773037.300   -31282663.254 7 -24142909.850 9
  18747524.042   -23992720.020 7 -18441871.282 6
  21716059.847   -11451128.989 4  -8686304.517 4
  21022341.792    -6324072.567 5  -4596480.845 5
  20654170.237    -9271101.604 5  -7003103.241 5
  19943738.409   -24163795.279 6 -18720930.838 6
 94  2  3  2 50 29.9900000  0  8 27  2  7 13 15  9  4 26
  20257001.959     -811066.719 5   -581221.679 5
  18575682.092   -15841485.752 7 -12211374.962 9
  17769802.381   -31299678.503 7 -24156168.485 9
  18725181.147   -24110134.461 7 -18533363.040 6
  21719475.108   -11433170.086 4  -8672310.566 4
  20995963.420    -6462685.342 5  -4704490.766 5
  20627269.826    -9412455.881 5  -7113249.365 5
  19942542.623   -24170092.767 6 -18725837.965 6
 94  2  3  2 50 59.9900000  0  8 27  2  7 13 15  9  4 26
  20268415.592     -751085.909 5   -534483.407 5
  18572701.240   -15857159.178 7 -12223588.007 9
  17766649.068   -31316249.541 7 -24169080.980 9
  18702932.920   -24227053.391 7 -18624468.676 6
  21722989.170   -11414724.022 4  -8657936.982 4
  20969614.287    -6601154.891 5  -4812389.081 5
  20600395.584    -9553689.170 5  -7223301.215 5
  19941425.998   -24175939.804 6 -18730394.102 6
 94  2  3  2 51 29.9900000  0  8 27  2  7 13 15  9  4 26
  20279875.373     -690865.533 5   -487558.443 5
  18569752.904   -15872648.441 7 -12235657.552 9
  17763577.365   -31332384.963 7 -24181654.038 9
  18680777.920   -24343481.550 7 -18715191.891 6
  21726593.436   -11395803.778 4  -8643193.908 4
  20943289.467    -6739485.382 5  -4920179.047 5
  20573549.022    -9694777.405 5  -7333240.042 5
  19940400.522   -24181338.240 6 -18734600.681 6
 94  2  3  2 51 59.9900000  0  8 27  2  7 13 15  9  4 26
  20291381.248     -630402.773 5   -440444.615 5
  18566839.912   -15887967.711 7 -12247594.636 9
  17760584.279   -31348101.815 7 -24193900.931 9
  18658713.998   -24459426.830 7 -18805538.840 6
  21730278.998   -11376420.967 4  -8628090.385 4
  20916993.576    -6877685.458 5  -5027867.377 5
  20546726.475    -9835727.862 5  -7443071.491 5
  19939452.420   -24186301.811 6 -18738468.397 6
 94  2  3  2 52 29.9900000  0  8 27  2  7 13 15  9  4 26
  20302934.686     -569691.128 5   -393136.852 5
  18563958.576   -15903114.585 7
  17757673.490   -31363399.350 7
  18636744.537   -24574872.548 7 -18895496.518 6
  21734052.154   -11356562.360 4  -8612616.114 4
  20890725.990    -7015728.043 5  -5135433.005 5
  20519929.607    -9976546.336 5  -7552800.113 5
  19938597.201   -24190809.259 6 -18741980.688 6
 94  2  3  2 52 59.9900000  0  8 27  2  7 13 15  9  4 26
  20314533.990     -508749.825 5   -345650.128 5
  18561105.928   -15918104.832 7
  17754835.201   -31378312.554 7
  18614868.576   -24689833.559 7 -18985076.504 6
  21737924.092   -11336246.520 5  -8596785.574 4
  20864480.467    -7153639.830 5  -5242896.699 5
  20493152.631   -10117254.515 5  -7662442.803 5
  19937822.131   -24194875.001 6 -18745148.780 6
 94  2  3  2 53 29.9900000  0  8 27  2  7 13 15  9  4 26
  20326172.897     -447570.874 5   -297978.206 5
  18558283.037   -15932925.524 7 -12282626.693 9
  17752070.365   -31392846.168 7 -24228766.634 9
  18593084.490   -24804304.809 7 -19074274.864 6
  21741874.232   -11315471.888 5  -8580597.509 5
  20838262.623    -7291420.389 5  -5350258.147 5
  20466397.217   -10257849.961 5  -7771997.633 5
  19937137.373   -24198505.871 6 -18747978.029 6
 94  2  3  2 53 59.9900000  0  8 27  2  7 13 15  9  4 26
  20337862.522     -386138.050 5   -250108.482 5
  18555496.451   -15947558.326 7 -12294028.871 9
  17749383.865   -31406987.966 7 -24239786.205 9
  18571397.826   -24918269.543 7 -19163078.530 6
  21745916.115   -11294225.437 4  -8564041.804 4
  20812070.678    -7429057.683 5  -5457507.958 5
  20439671.826   -10398326.476 5  -7881459.805 5
  19936524.701   -24201693.464 6 -18750461.849 6
 94  2  3  2 54 29.9900000  0  7 27  2  7 13  9  4 26
  20349595.615     -324483.234 5   -202065.765 5
  18552751.029   -15962002.127 7 -12305283.768 9
  17746760.576   -31420753.760 7 -24250512.784 9
  18549805.170   -25031737.537 7 -19251495.130 6
  20785902.467    -7566570.439 5  -5564660.736 5
  20412959.311   -10538683.551 5  -7990828.902 5
  19936001.701   -24204460.469 6 -18752617.957 6
 94  2  3  2 54 59.9900000  0  7 27  2  7 13  9  4 26
  20361373.365     -262587.860 5   -153835.594 5
  18550038.943   -15976241.715 7 -12316379.548 9
  17744219.553   -31434127.605 7 -24260933.951 9
  18528311.076   -25144704.129 7 -19339521.029 6
  20759759.897    -7703953.553 5  -5671712.478 5
  20386274.553   -10678896.053 5  -8100085.351 5
  19935549.818   -24206808.045 6 -18754447.234 6
 94  2  3  2 55 29.9900000  0  7 27  2  7 13  9  4 26
  20373201.061     -200444.423 5   -105412.143 5
  18547370.053   -15990279.737 7 -12327318.271 9
  17741745.615   -31447112.578 7 -24271052.097 9
  18506907.256   -25257170.414 7 -19427157.068 7
  20733644.967    -7841196.426 5  -5778654.938 5
  20359625.561   -10818969.120 5  -8209233.149 5
  19935179.475   -24208747.769 6 -18755958.713 6
 94  2  3  2 55 59.9900000  0  7 27  2  7 13  9  4 26
  20385075.600     -138057.936 5    -56799.299 5
  18544737.912   -16004119.105 7 -12338102.185 9
  17739346.022   -31459712.420 7 -24280870.142 9
  18485601.436   -25369131.670 7 -19514399.587 6
  20707553.615    -7978299.372 5  -5885488.381 5
  20332989.373   -10958910.280 5  -8318278.157 5
  19934889.897   -24210269.206 6 -18757144.249 6
 94  2  3  2 56 29.9900000  0  8 27  2  7 13 12  9  4 26
  20396987.475      -75438.348 5     -8004.809 5
  18542140.639   -16017769.498 7 -12348738.848 9
  17737022.498   -31471921.551 7 -24290383.737 9
  18464392.662   -25480589.315 7 -19601249.677 7
  21748586.303          -0.45214
  20681488.420    -8115259.966 5  -5992210.896 5
  20306387.186   -11098724.844 5  -8427224.529 5
  19934686.662   -24211362.168 6 -18757995.901 6
 94  2  3  2 56 59.9900000  0  8 27  2  7 13 12  9  4 26
  20408952.725      -12579.395 5     40976.182 5
  18539577.178   -16031230.388 7 -12359227.851 9
  17734775.553   -31483724.839 7 -24299581.091 9
  18443279.928   -25591542.336 7 -19687706.558 7
  21723214.139     -133269.935 3        -0.04212
  20655450.483    -8252080.156 5  -6098823.994 5
  20279803.225   -11238420.857 5  -8536078.526 5
  19934566.748   -24212012.106 6 -18758502.353 6
 94  2  3  2 57 29.9900000  0  8 27  2  7 13 12  9  4 26
  20420956.240       50510.250 5     90136.934 5
  18537052.803   -16044495.239 7 -12369564.090 9
  17732610.748   -31495117.308 7 -24308458.332 9
  18422262.154   -25701983.532 7 -19773764.615 6
  21697844.834     -266563.822 3   -103865.358 1
  20629441.193    -8388771.563 5  -6205336.741 5
  20253239.178   -11378002.243 5  -8644843.196 5
  19934519.092   -24212210.912 6
 94  2  3  2 57 59.9900000  0  8 27  2  7 13 12  9  4 26
  20433004.061      113814.398 5    139464.838 5
  18534561.928   -16057571.108 7 -12379753.087 9
  17730524.076   -31506097.494 7 -24317014.317 9
  18401342.592   -25811919.782 7 -19859429.207 7
  21672482.178     -399888.800 3   -207754.912 1
  20603454.084    -8525342.580 5  -6311755.685 5
  20226702.248   -11517466.136 5  -8753516.326 5
  19934574.584   -24211961.180 6
 94  2  3  2 58 29.9900000  0  8 27  2  7 13 12  9  4 26
  20445088.701      177338.504 5    188964.143 5
  18532112.506   -16070456.177 7 -12389793.396 9
  17728507.943   -31516662.742 7 -24325246.975 9
  18380519.100   -25921348.357 7 -19944698.213 7
  21647102.014     -533242.328 4   -311666.723 2
  20577490.029    -8661781.861 5  -6418071.983 5
  20200189.428   -11656786.389 5  -8862077.528 5
  19934706.014   -24211281.275 6 -18757932.901 6
 94  2  3  2 58 59.9900000  0  8 27  2  7 13 12  9  4 26
  20457218.795      241104.471 5    238651.902 4
  18529697.154   -16083143.712 7 -12399679.787 9
  17726578.522   -31526822.687 7 -24333163.812 9
  18359793.232   -26030260.239 7 -20029564.596 7
  21621720.568     -666615.373 3   -415593.706 1
  20551555.811    -8798071.331 5  -6524271.540 5
  20173706.420   -11795950.089 5  -8970516.742 5
  19934908.811   -24210182.328 6 -18757076.580 6
 94  2  3  2 59 29.9900000  0  8 27  2  7 13 12  9  4 26
  20469404.022      305109.863 5    288526.246 5
  18527315.412   -16095653.281 7 -12409427.512 9
  17724720.303   -31536600.467 7 -24340782.856 9
  18339167.717   -26138652.106 7 -20114025.777 7
  21596337.451     -800004.633 4   -519533.353 2
  20525652.139    -8934192.010 5  -6630339.580 5
  20147257.279   -11934937.234 5  -9078818.393 5
  19935198.568   -24208675.784 6 -18755902.632 6
 94  2  3  2 59 59.9900000  0  8 27  2  7 13 12  9  4 26
  20481625.631      369338.332 5    338574.409 5
  18524966.311   -16107997.785 7 -12419046.603 9
  17722927.506   -31546007.650 7 -24348113.120 9
  18318641.342   -26246523.237 7 -20198081.187 7
  21570953.623     -933409.387 4   -623485.091 1
  20499785.061    -9070120.921 5  -6736258.181 5
  20120844.037   -12073730.871 5  -9186969.249 5
  19935560.334   -24206787.460 6 -18754431.210 6
 94  2  3  3  0 29.9900000  0  8 27  2  7 13 12  9  4 26
  20493889.647      433782.411 5    388790.596 5
  18522651.795   -16120166.246 7 -12428528.517 9
  17721208.568   -31555052.252 7 -24355160.849 9
  18298212.217   -26353868.631 7 -20281726.931 7
  21545567.858    -1066824.714 4   -727445.051 1
  20473955.412    -9205858.881 5  -6842027.984 5
  20094472.709   -12212325.981 5  -9294965.413 5
  19935982.100   -24204528.257 6 -18752670.792 6
 94  2  3  3  0 59.9900000  0  8 27  2  7 13 12  9  4 26
  20506190.943      498432.376 5    439167.194 5
  18520371.014   -16132145.557 7 -12437863.043 9
  17719556.897   -31563728.895 7 -24361921.858 9
  18277886.162   -26460682.393 7 -20364958.412 7
  21520176.397    -1200244.475 4   -831408.465 1
  20448161.889    -9341401.306 5  -6947645.437 5
  20068133.514   -12350727.823 5  -9402810.969 5
  19936490.865   -24201884.973 6 -18750611.095 6
 94  2  3  3  1 29.9900000  0  8 27  2  7 13 12  9  4 26
  20518526.514      563261.044 5    489683.044 5
  18518130.248   -16143935.532 7 -12447050.032 9
  17717970.701   -31572043.858 7 -24368401.042 9
  18257658.139   -26566977.657 7 -20447785.869 7
  21494787.264    -1333681.852 4   -935385.600 1
  20422403.170    -9476770.225 5  -7053127.689 5
  20041837.092   -12488934.383 5  -9510504.377 5
  19937063.615   -24198874.695 6 -18748265.431 6
 94  2  3  3  1 59.9900000  0  8 27  2  7 13 12  9  4 26
  20530903.654      628269.676 5    540339.122 5
  18515924.717   -16155520.375 7 -12456077.178 9
  17716459.311   -31579992.997 7 -24374595.173 9
  18237530.139   -26672760.383 7 -20530213.951 7
  21469385.764    -1467142.496 4  -1039380.888 2
  20396672.006    -9611975.571 5  -7158482.488 5
  20015575.451   -12626955.678 5  -9618053.419 5
  19937701.186   -24195499.859 6 -18745635.687 6
 94  2  3  3  2 29.9900000  0  8 27  2  7 13 12  9  4 26
  20543305.193      693469.176 5    591143.920 3
  18513758.076   -16166897.266 7 -12464942.286 9
  17715015.154   -31587591.486 7 -24380516.072 9
  18217495.201   -26778040.032 7 -20612250.031 7
  21443982.982    -1600635.931 4  -1143401.722 1
  20370972.795    -9747039.713 5  -7263727.251 5
  19989341.943   -12764798.921 5  -9725463.713 6
  19938420.647   -24191743.847 6 -18742708.925 6
 94  2  3  3  2 59.9900000  0  8 27  2  7 13 12  9  4 26
  20555759.256      758901.015 5    642129.763 4
  18511637.701   -16178054.192 7 -12473636.010 9
  17713639.482   -31594809.071 7 -24386140.159 9
  18197561.404   -26882788.221 7 -20693871.969 7
  21418592.662    -1734133.399 5  -1247425.701 1
  20345304.053    -9881927.252 5  -7368834.392 5
  19963153.498   -12902425.411 5  -9832705.110 6
  19939215.100   -24187569.990 5 -18739456.559 6
 94  2  3  3  3 29.9900000  0  8 27  2  7 13 12  9  4 26
  20568255.436      824573.800 5    693303.369 4
  18509554.201   -16189005.030 7 -12482169.137 9
  17712334.279   -31601662.829 7 -24391480.738 9
  18177729.889   -26987007.814 7 -20775082.026 7
  21393175.475    -1867637.614 5  -1351454.916 1
  20319671.006   -10016636.364 5  -7473802.515 5
  19937003.647   -13039838.838 6  -9939780.487 6
  19940085.404   -24182975.893 5 -18735876.750 6
 94  2  3  3  3 59.9900000  0  8 27  2  7 13 12  9  4 26
  20580790.264      890464.431 5    744646.702 4
  18507503.178   -16199776.984 7 -12490562.878 9
  17711098.803   -31608170.338 7 -24396551.514 9
  18157996.514   -27090709.379 7 -20855888.419 7
  21367769.857    -2001158.693 4  -1455497.284 1
  20294067.483   -10151174.990 5  -7578637.779 5
  19910889.928   -13177079.086 6 -10046720.920 6
  19941042.193   -24177961.089 6 -18731969.119 6
 94  2  3  3  4 29.9900000  0  8 27  2  7 13 12  9  4 26
  20593373.834      956573.663 5    796160.374 3
  18505484.100   -16210374.742 7 -12498820.871 8
  17709931.826   -31614309.483 7 -24401335.246 9
  18138364.732   -27193872.883 7 -20936275.545 7
  21342366.733    -2134676.634 4  -1559537.205 2
  20268500.451   -10285525.315 5  -7683326.330 5
  19884806.514   -13314146.441 6 -10153526.630 6
  19942080.607   -24172510.705 6 -18727722.075 6
 94  2  3  3  4 59.9900000  0  8 27  2  7 13 12  9  4 26
  20605990.451     1022869.061 5    847819.108 4
  18503493.787   -16220838.570 7 -12506974.506 8
  17708829.428   -31620100.412 7 -24405847.651 9
  18118830.272   -27296519.568 7 -21016259.963 7
  21316954.373    -2268212.084 5  -1663590.776 2
  20242970.670   -10419700.610 6  -7787878.483 5
  19858745.412   -13451085.540 6 -10260232.412 6
  19943189.818   -24166668.132 6 -18723169.418 6
 94  2  3  3  5 29.9900000  0  8 27  2  7 13 12  9  4 26
  20618635.061     1089343.559 5    899617.414 5
  18501529.881   -16231160.017 7 -12515017.182 8
  17707792.748   -31625537.849 7 -24410084.610 9
  18099399.326   -27398643.438 7 -21095836.983 7
  21291535.357    -2401758.487 5  -1767652.870 2
  20217467.623   -10553704.636 5  -7892297.190 5
  19832709.209   -13587903.401 6 -10366843.717 5
  19944379.334   -24160434.786 6 -18718312.266 6
 94  2  3  3  5 59.9900000  0  8 27  2  7 13 12  9  4 26
  20631323.318     1155994.899 5    951553.507 4
  18499594.928   -16241336.321 7 -12522946.776 8
  17706826.967   -31630603.374 7 -24414031.770 9
  18080066.201   -27500238.910 7 -21175002.267 7
  21266123.311    -2535310.274 5  -1871719.168 2
  20191999.529   -10687543.546 5  -7996587.221 5
  19806696.037   -13724580.447 6 -10473345.305 6
  19945635.256   -24153825.772 6 -18713162.387 6
 94  2  3  3  6 29.9900000  0  8 27  2  7 13 12  9  4 26
  20644041.842     1222832.663 5   1003634.879 4
  18497685.193   -16251363.031 7 -12530759.802 8
  17705935.623   -31635307.774 7 -24417697.538 9
  18060831.193   -27601309.035 7 -21253758.196 7
  21240711.795    -2668869.811 5
  20166565.350   -10821213.280 5
  19780727.084   -13861087.118 6 -10579714.125 6
  19946960.936   -24146866.966 6 -18707739.937 6
 94  2  3  3  6 59.9900000  0  8 27  2  7 13 12  9  4 26
  20656796.709     1289872.151 5   1055873.428 4
  18495814.193   -16261205.491 7 -12538429.254 8
  17705104.256   -31639658.113 7 -24421087.402 9
  18041701.326   -27701848.291 7 -21332100.454 7
  21215294.904    -2802431.427 5
  20141159.412   -10954704.791 5
  19754787.717   -13997385.560 6 -10685920.697 6
  19948348.701   -24139553.499 6 -18702041.128 6
 94  2  3  3  7 29.9900000  0  8 27  2  7 13 12  9  4 26
  20669594.334     1357106.031 5   1108263.459 3
  18493981.678   -16270832.719 7 -12545930.991 8
  17704345.537   -31643647.553 7 -24424196.051 9
  18022669.490   -27801853.739 7 -21410026.759 7
  21189879.045    -2935991.423 5  -2183938.127 2
  20115793.561   -11088014.705 6  -8308642.614 5
  19728898.662   -14133449.257 6 -10791944.336 6
  19949811.397   -24131880.269 6 -18696061.998 6
 94  2  3  3  7 59.9900000  0  8 27  2  7 13 12  9  4 26
  20682421.568     1424527.736 5   1160799.839 5
  18492191.068   -16280229.081 7 -12553252.834 8
  17703655.342   -31647292.112 7 -24427035.962 9
  18003740.092   -27901326.475 7 -21487537.969 7
  21164458.889    -3069550.287 5  -2288009.935 2
  20090461.092   -11221129.405 6  -8412368.339 5
  19703049.303   -14269267.968 6 -10897777.082 6
  19951335.264   -24123864.374 6 -18689815.851 6
 94  2  3  3  8 29.9900000  0  8 27  2  7 13 12  9  4 26
  20695284.225     1492111.273 5   1213462.327 5
  18490450.201   -16289386.495 7 -12560388.497 8
  17703020.209   -31650613.426 7 -24429623.991 9
  17984912.686   -28000272.831 7 -21564639.015 7
  21139042.201    -3203113.998 5  -2392085.524 4
  20065167.951   -11354048.657 6  -8515941.761 5
  19677247.131   -14404855.834 6 -11003429.960 6
  19952924.506   -24115514.278 5 -18683309.287 6
 94  2  3  3  8 59.9900000  0  8 27  2  7 13 12  9  4 26
  20708168.147     1559837.172 5   1266235.744 4
  18488754.334   -16298304.365 7 -12567337.497 8
  17702449.178   -31653600.950 7 -24431951.921 9
  17966183.826   -28098690.200 7 -21641327.854 7
  21113631.717    -3336679.253 5  -2496162.297 2
  20039914.779   -11486770.965 6  -8619361.722 6
  19651488.670   -14540215.337 6 -11108904.880 6
  19954577.834   -24106819.894 5 -18676534.444 5
 94  2  3  3  9 29.9890000  0  8 27  2  7 13 12  9  4 26
  20721082.728     1627698.809 4   1319114.935 3
  18487101.548   -16306994.110 7 -12574108.729 8
  17701946.665   -31656252.598 7 -24434018.126 9
  17947559.509   -28196564.941 7 -21717593.865 7
  21088213.431    -3470230.456 5  -2600228.131 2
  20014697.509   -11619269.813 6  -8722607.558 6
  19625777.306   -14675343.027 6 -11214199.167 6
  19956297.181   -24097784.976 5 -18669494.251 5
 94  2  3  3  9 59.9890000  0  8 27  2  7 13 12  9  4 26
  20734029.368     1695706.777 4   1372108.134 3
  18485488.501   -16315468.385 7 -12580712.064 8
  17701505.165   -31658573.048 7 -24435826.262 9
  17929035.751   -28293896.349 7 -21793436.506 7
  21062801.040    -3603768.623 5  -2704283.808 3
  19989528.720   -11751542.943 6  -8825677.504 6
  19600107.743   -14810236.669 6 -11319311.089 6
  19958088.579   -24088392.995 5 -18662175.838 5
 94  2  3  3 10 29.9890000  0  8 27  2  7 13 12  9  4 26
  20746994.493     1763841.081 4   1425199.802 4
  18483911.900   -16323754.715 7 -12587168.942 8
  17701125.407   -31660563.662 7 -24437377.388 9
  17910617.689   -28390696.090 7 -21868864.864 7
  21037390.462    -3737303.472 5  -2808336.896 2
  19964401.220   -11883590.913 6  -8928572.009 5
  19574481.946   -14944903.907 6 -11424246.590 6
  19959941.282   -24078636.001 5 -18654572.990 6
 94  2  3  3 10 59.9890000  0  8 27  2  7 13 12  9  4 26
  20759988.673     1832137.092 4   1478417.481 3
  18482368.274   -16331855.714 7 -12593481.416 8
  17700815.314   -31662213.608 7 -24438663.057 9
  17892297.923   -28486957.637 7 -21943873.849 7
  21011984.439    -3870827.946 5  -2912381.910 2
  19939317.931   -12015401.591 6  -9031281.602 6
  19548898.079   -15079338.189 6 -11529000.566 6
  19961870.814   -24068496.116 5 -18646671.791 6
 94  2  3  3 11 29.9890000  0  8 27  2  7 13 12  9  4 26
  20773021.337     1900619.483 4   1531780.379 4
  18480862.399   -16339770.403 7 -12599648.717 8
  17700564.157   -31663530.883 7 -24439689.505 9
  17874083.985   -28582678.882 7 -22018461.816 7
  20986576.509    -4004339.004 5  -3016416.462 3
  19914278.876   -12146978.204 6  -9133808.818 6
  19523358.837   -15213555.628 6 -11633585.564 6
  19963874.524   -24057978.237 5 -18638476.054 5
 94  2  3  3 11 59.9890000  0  8 27  2  7 13 12  9  4 26
  20786090.064     1969298.028 4   1585296.124 4
  18479395.103   -16347490.336 7 -12605664.267 8
  17700377.196   -31664500.154 7 -24440444.777 9
  17855971.868   -28677855.779 7 -22092625.618 7
  20961171.970    -4137831.775 5  -3120436.797 3
  19889283.478   -12278333.478 6  -9236163.568 6
  19497855.650   -15347560.673 6 -11738005.077 6
  19965945.189   -24047085.050 5 -18629987.849 5
 94  2  3  3 12 29.9890000  0  8 27  2  7 13 12  9  4 26
  20799192.032     2038175.250 3   1638966.684 3
  18477959.157   -16355028.052 7 -12611537.818 8
  17700260.212   -31665135.064 7 -24440939.507 9
  17837961.603   -28772498.365 7 -22166373.068 7
  20935770.556    -4271315.671 5  -3224450.178 3
  19864325.907   -12409484.876 6  -9338359.446 6
  19472398.103   -15481378.397 6 -11842278.608 6
  19968081.587   -24035852.724 5 -18621235.409 5
 94  2  3  3 12 59.9890000  0  8 27  2  7 13 12  9  4 26
  20812347.837     2107280.600 4   1692814.985 3
  18476562.470   -16362374.578 7 -12617262.396 8
  17700197.993   -31665436.728 7
  17820059.220   -28866586.654 7 -22239688.605 7
  20910378.204    -4404769.747 5
  19839407.360   -12540427.945 6  -9440393.000 5
  19446967.673   -15614985.782 6
  19970287.845   -24024289.064 5 -18612224.751 5
 94  2  3  3 13 29.9890000  0  8 27  2  7 13 12  9  4 26
  20825529.907     2176574.227 4   1746810.025 3
  18475196.423   -16369544.138 7 -12622849.075 8
  17700203.345   -31665424.185 7
  17802256.485   -28960128.706 7 -22312578.503 7
  20884986.900    -4538200.919 5
  19814525.814   -12671173.858 6  -9542272.911 5
  19421587.774   -15748370.476 6
  19972543.360   -24012420.838 5 -18602976.793 5
 94  2  3  3 13 59.9890000  0  8 27  2  7 13 12  9  4 26
  20838749.017     2246039.485 3   1800938.782 3
  18473865.704   -16376532.715 7 -12628294.722 8
  17700269.860   -31665084.403 7
  17784562.704   -29053116.448 7 -22385036.457 7
  20859600.423    -4671600.343 5  -3536360.267 4
  19789688.743   -12801704.802 6  -9643985.325 6
  19396258.759   -15881488.440 6 -12154052.618 6
  19974857.907   -24000241.237 5 -18593486.210 6
 94  2  3  3 14 29.9890000  0  8 27  2  7 13 12  9  4 26
  20852000.235     2315670.653 4   1855196.821 4
  18472571.642   -16383339.850 7 -12633598.985 8
  17700391.782   -31664427.484 7 -24440388.137 9
  17766972.212   -29145546.703 7 -22457060.019 7
  20834225.493    -4804963.869 5  -3640279.856 2
  19764892.032   -12932005.954 6  -9745518.675 6
  19370979.978   -16014306.297 6 -12257547.035 6
  19977240.923   -23987737.672 6 -18583743.176 5
 94  2  3  3 14 59.9890000  0  8 27  2  7 13 12  9  4 26
  20865280.337     2385437.669 4   1909560.723 3
  18471310.071   -16389964.127 7 -12638760.760 8
  17700576.243   -31663453.409 7 -24439629.111 9
  17749488.056   -29237432.008 7 -22528658.938 7
  20808845.985    -4938302.994 5  -3744180.456 3
  19740138.423   -13062083.202 6  -9846877.554 6
  19345763.423   -16146821.610 6 -12360805.698 6
  19979682.907   -23974909.141 6 -18573746.936 6
 94  2  3  3 15 29.9890000  0  8 27  2  7 13 12  9  4 26
  20878575.806     2455332.341 4   1964024.088 2
  18470088.626   -16396385.284 7 -12643764.266 8
  17700827.743   -31662136.641 7 -24438603.055 9
  17732108.204   -29328769.614 7 -22599831.078 7
  20783479.696    -5071613.895 5  -3848059.044 3
  19715432.782   -13191923.586 6  -9948051.862 6
  19320601.462   -16279048.527 6 -12463839.631 6
  19982184.095   -23961742.284 5 -18563487.040 5
 94  2  3  3 15 59.9890000  0  8 27  2  7 13 12  9  4 26
  20891900.353     2525363.954 4   2018594.165 2
  18468907.524   -16402590.209 7 -12648599.272 8
  17701145.884   -31660468.799 7 -24437303.439 9
  17714831.470   -29419558.497 7 -22670575.642 7
  20758119.978    -5204894.348 5  -3951913.931 2
  19690771.665   -13321511.490 6 -10049029.439 6
  19295493.243   -16411009.359 6 -12566666.242 6
  19984757.876   -23948231.800 6 -18552959.388 5
 94  2  3  3 16 29.9890000  0  8 27  2  7 13 12  9  4 26
  20905261.696     2595547.574 4   2073282.678 2
  18467770.454   -16408563.716 7 -12653253.962 8
  17701529.118   -31658455.407 7 -24435734.561 9
  17697659.634   -29509790.452 7 -22740886.244 7
  20732762.243    -5338135.188 5  -4055737.931 3
  19666162.618   -13450842.996 6 -10149807.230 6
  19270429.181   -16542723.665 6 -12669300.736 6
  19987399.899   -23934362.455 5 -18542152.118 5
 94  2  3  3 16 59.9890000  0  8 27  2  7 13 12  9  4 26
  20918645.196     2665875.799 4   2128083.890 2
  18466678.782   -16414311.677 7 -12657732.897 8
  17701977.814   -31656097.038 7 -24433896.878 9
  17680593.579   -29599468.873 7 -22810765.513 7
  20707414.657    -5471338.612 5  -4159532.785 4
  19641596.532   -13579925.248 6 -10250390.791 6
  19245405.814   -16674209.636 6 -12771757.319 6
  19990102.579   -23920144.390 5 -18531073.084 5
 94  2  3  3 17 29.9890000  0  8 27  2  7 13 12  9  4 26
  20932057.071     2736344.582 4   2182994.618 2
  18465625.767   -16419845.775 7 -12662045.184 8
  17702487.681   -31653412.899 7 -24431805.335 9
  17663634.556   -29688587.952 7 -22880208.926 7
  20682074.071    -5604497.600 5  -4263292.994 4
  19617081.532   -13708757.160 6 -10350779.281 6
  19220431.431   -16805453.297 6 -12874025.082 6
  19992872.212   -23905588.142 5 -18519730.564 5
 94  2  3  3 17 59.9890000  0  8 27  2  7 13 12  9  4 26
  20945489.071     2806953.195 3   2238014.316 2
  18464611.337   -16425167.877 7 -12666192.282 8
  17703059.564   -31650417.071 7 -24429470.918 9
  17646784.501   -29777139.321 7 -22949209.972 7
  20656746.954    -5737602.784 5  -4367011.302 3
  19592613.548   -13837334.718 6 -10450969.576 6
  19195510.079   -16936419.457 6 -12976076.610 6
  19995707.884   -23890696.239 5 -18508126.490 5
 94  2  3  3 18 29.9890000  0  8 27  2  7 13 12  9  4 26
  20958948.939     2877694.097 3   2293137.100 3
  18463637.353   -16430299.448 7 -12670190.923 8
  17703682.095   -31647124.462 7 -24426905.240 9
  17630040.493   -29865131.678 7 -23017775.429 7
  20631425.509    -5870661.187 5  -4470693.140 4
  19568189.712   -13965685.367 6 -10550983.056 6
  19170645.681   -17067095.063 6 -13077901.741 6
  19998601.149   -23875486.809 5 -18496275.002 5
 94  2  3  3 18 59.9890000  0  8 27  2  7 13 12  9  4 26
  20972435.314     2948566.678 3   2348362.459 3
  18462689.868   -16435254.849 7 -12674052.283 8
  17704370.954   -31643529.650 7 -24424104.079 9
  17613401.603   -29952567.378 7 -23085907.132 7
  20606112.931    -6003674.021 5  -4574339.463 2
  19543811.157   -14093807.131 6 -10650818.185 6
  19145834.704   -17197458.644 6 -13179483.737 6
  20001550.079   -23859984.682 5 -18484195.438 5
 94  2  3  3 19 29.9890000  0  8 27  2  7 13 12  9  4 26
  20985951.790     3019578.485 3   2403696.318 4
  18461786.087   -16440024.583 7 -12677768.959 8
  17705107.517   -31639643.492 7 -24421075.894 9
  17596868.970   -30039450.496 7 -23153608.250 7
  20580812.571    -6136644.093 5  -4677952.475 3
  19519476.634   -14221686.808 6 -10750464.681 6
  19121086.485   -17327514.020 6 -13280825.555 6
  20004555.939   -23844197.406 5 -18471893.687 5
 94  2  3  3 19 59.9890000  0  8 27  2  7 13 12  9  4 26
  20999496.251     3090749.522 3   2459154.253 2
  18460916.282   -16444599.026 7 -12681333.469 8
  17705903.876   -31635458.549 7 -24417814.900 9
  17580442.782   -30125777.858 7 -23220876.309 7
  20555515.540    -6269566.853 5  -4781528.621 4
  19495188.446   -14349309.690 6 -10849911.071 6
  19096395.462   -17457263.785 6 -13381929.249 6
  20007616.610   -23828112.142 5 -18459359.726 5
 94  2  3  3 20 29.9890000  0  8 27  2  7 13 12  9  4 26
  21013066.196     3162077.080 3   2514734.171 2
  18460078.579   -16448986.007 7 -12684751.896 8
  17706758.407   -31630978.892 7 -24414324.252 9
  17564116.767   -30211557.516 7 -23287717.589 7
  20530229.220    -6402448.931 5  -4885073.081 3
  19470952.540   -14476683.389 6 -10949163.293 6
  19071759.040   -17586722.651 6 -13482806.281 6
  20010735.845   -23811729.505 5 -18446594.036 5
 94  2  3  3 20 59.9890000  0  8 27  2  7 13 12  9  4 26
  21026665.759     3233559.616 3   2570434.837 2
  18459284.665   -16453155.658 7 -12688000.976 8
  17707668.751   -31626200.003 7 -24410600.440 9
  17547902.618   -30296775.579 7 -23354121.256 7
  20504955.634    -6535275.056 5  -4988573.931 4
  19446766.149   -14603770.713 6 -11048192.370 6
  19047181.407   -17715890.092 6 -13583456.218 6
  20013908.407   -23795034.862 5 -18433585.217 5
 94  2  3  3 21 29.9890000  0  8 27  2  7 13 12  9  4 26
  21040296.306     3305176.062 3   2626239.849 2
  18458535.267   -16457100.757 7 -12691075.099 8
  17708631.345   -31621133.498 7 -24406652.521 9
  17531789.509   -30381438.060 7 -23420092.007 7
  20479688.196    -6668049.772 5  -5092034.730 3
  19422636.853   -14730574.766 6 -11147000.706 6
  19022654.009   -17844790.463 6 -13683898.054 6
  20017148.048   -23778026.469 5 -18420331.939 5
 94  2  3  3 21 59.9890000  0  8 27  2  7 13 12  9  4 26
  21053954.376     3376924.537 3   2682147.766 2
  18457829.368   -16460813.212 7 -12693967.934 8
  17709654.165   -31615751.781 7 -24402458.971 9
  17515789.048   -30465525.434 7 -23485614.616 7
  20454438.985    -6800751.995 5  -5195439.055 5
  19398560.814   -14857092.619 6 -11245586.036 6
  18998174.384   -17973406.395 6 -13784118.249 6
  20020448.290   -23760692.815 5 -18406825.201 5
 94  2  3  3 22 29.9890000  0  8 27  2  7 13 12  9  4 26
  21067615.017     3448762.182 3   2738125.141 2
  18457164.400   -16464311.230 7 -12696693.662 8
  17710732.673   -31610078.509 7 -24398038.238 9
  17499891.228   -30549067.155 7 -23550712.043 7
  20429190.025    -6933409.619 5  -5298808.606 4
  19374535.814   -14983345.186 6 -11343964.644 6
  18973750.806   -18101764.214 6 -13884137.305 6
  20023798.931   -23743076.598 5 -18393098.292 5
 94  2  3  3 22 59.9890000  0  8 27  2  7 13 12  9  4 26
  21081310.337     3520693.630 3   2794175.618 1
  18456542.001   -16467581.487 7 -12699241.914 8
  17711869.939   -31604105.871 7 -24393384.236 9
  17484099.915   -30632052.648 7 -23615376.045 7
  20403958.939    -7066010.689 5  -5402134.108 4
  19350564.845   -15109314.126 6 -11442122.248 6
  18949379.173   -18229846.092 6 -13983941.350 6
  20027199.806   -23725191.241 5 -18379161.675 5
 94  2  3  3 23 29.9890000  0  8 27  2  7 13 12  9  4 26
  21095020.962     3592737.319 3   2850313.557 1
  18455961.360   -16470631.327 7 -12701618.410 8
  17713066.704   -31597826.339 7 -24388491.098 9
  17468414.462   -30714478.874 7 -23679604.258 7
  20378737.689    -7198550.139 5  -5505411.566 4
  19326644.665   -15235018.167 6 -11540073.445 6
  18925058.899   -18357636.923 6 -14083518.607 6
  20030657.728   -23707034.392 5 -18365013.510 5
 94  2  3  3 23 59.9890000  0  8 27  2  7 13 12  9  4 26
  21108748.595     3664898.874 3   2906543.338 1
  18455420.712   -16473463.855 7 -12703825.570 8
  17714317.228   -31591251.501 7 -24383367.855 9
  17452838.392   -30796344.997 7 -23743396.025 7
  20353528.696    -7331025.920 5  -5608639.429 5
  19302773.259   -15360456.054 6 -11637817.241 6
  18900802.243   -18485110.780 6 -14182848.860 6
  20034166.829   -23688609.402 5 -18350656.382 5
 94  2  3  3 24 29.9890000  0  8 27  2  7 13 12  9  4 26
  21122506.642     3737168.516 3   2962857.321 1
  18454920.032   -16476087.065 7 -12705869.637 8
  17715621.673   -31584405.567 7 -24378033.367 9
  17437361.399   -30877665.631 7 -23806762.733 7
  20328326.978    -7463450.567 5  -5711827.457 5
  19278952.798   -15485639.137 6 -11735362.488 6
  18876603.970   -18612268.860 6 -14281933.058 6
  20037717.548   -23669925.299 5 -18336097.347 5
 94  2  3  3 24 59.9890000  0  8 24  2  7 13 12  9  4 26
  20960977.134          -0.14113
  18454463.720   -16478502.419 7 -12707751.735 8
  17716977.267   -31577277.292 7 -24372478.865 9
  17421993.329   -30958423.842 7 -23869691.192 7
  20303143.782    -7595805.904 5  -5814961.459 5
  19255180.556   -15610565.760 6 -11832707.902 6
  18852469.032   -18739101.775 6 -14380763.878 6
  20041324.931   -23650966.464 5 -18321324.231 5
 94  2  3  3 25 29.9890000  0  8 24  2  7 13 12  9  4 26
  20932482.056     -149783.603 4        -0.14013
  18454044.056   -16480712.518 7 -12709473.889 8
  17718383.806   -31569874.959 7 -24366710.809 9
  17406730.751   -31038628.532 7 -23932188.332 7
  20277968.681    -7728098.750 5  -5918046.796 5
  19231454.235   -15735243.701 6 -11929859.530 6
  18828393.540   -18865622.854 6 -14479351.703 6
  20044988.353   -23631727.114 5 -18306332.549 5
 94  2  3  3 25 59.9890000  0  8 24  2  7 13 12  9  4 26
  20903975.134     -299573.330 4   -116719.371 4
  18453662.212   -16482713.348 7 -12711032.980 8
  17719846.689   -31562190.458 7 -24360722.886 9
  17391574.900   -31118276.226 7 -23994251.452 7
  20252806.931    -7860323.917 5  -6021079.374 5
  19207780.970   -15859648.369 6 -12026798.217 6
  18804378.071   -18991820.985 6 -14577687.883 6
  20048698.673   -23612215.158 5 -18291128.432 5
 94  2  3  3 26 29.9890000  0  8 24  2  7 13 12  9  4 26
  20875468.782     -449374.621 4   -233447.601 3
  18453316.267   -16484517.613 7 -12712438.908 7
  17721365.431   -31554223.457 7 -24354514.836 9
  17376522.509   -31197371.999 7 -24055884.501 7
  20227657.532    -7992484.645 5  -6124061.749 5
  19184160.798   -15983775.663 6 -12123520.779 6
  18780422.931   -19117716.908 6 -14675788.575 6
  20052461.337   -23592446.248 5 -18275724.104 5
 94  2  3  3 26 59.9890000  0  8 24  2  7 13 12  9  4 26
  20846961.446     -599165.066 4   -350167.379 3
  18453015.759   -16486116.469 7 -12713684.782 8
  17722931.962   -31545967.838 7 -24348081.887 9
  17361580.931   -31275904.298 7 -24117078.481 7
  20202522.970    -8124567.553 5  -6226983.481 4
  19160596.579   -16107600.734 6 -12220007.838 6
  18756524.056   -19243298.009 6 -14773643.947 7
  20056275.884   -23572408.889 5 -18260110.595 5
 94  2  3  3 27 29.9890000  0  8 24  2  7 13 12  9  4 26
  20818466.626     -748927.661 4   -466865.458 2
  18452752.181   -16487493.559 7 -12714757.843 7
  17724558.657   -31537432.172 7 -24341430.717 9
  17346742.407   -31353873.517 7 -24177833.695 7
  20177402.103    -8256571.182 5  -6329843.410 5
  19137095.103   -16231110.320 6 -12316249.066 6
  18732690.564   -19368543.276 6 -14871237.638 6
  20060137.946   -23552088.952 5 -18244276.892 5
 94  2  3  3 27 59.9880000  0  8 24  2  7 13 12  9  4 26
  20789971.520     -898659.993 4   -583539.942 2
  18452531.981   -16488660.122 7 -12715666.861 7
  17726233.418   -31528625.741 7 -24334568.557 9
  17332012.027   -31431278.618 7 -24238149.334 7
  20152301.543    -8388490.726 5  -6432637.855 5
  19113653.824   -16354290.398 6 -12412233.535 6
  18708921.363   -19493445.183 6 -14968563.774 7
  20064064.918   -23531484.123 5 -18228221.193 5
 94  2  3  3 28 29.9880000  0  8 24  2  7 13 12  9  4 26
  20761481.723    -1048372.370 4   -700198.908 3
  18452347.582   -16489617.436 7 -12716412.832 7
  17727959.699   -31519557.941 7 -24327502.744 9
  17317388.629   -31508128.622 7 -24298032.439 7
  20127210.160    -8520337.001 5  -6535375.186 5
  19090273.356   -16477154.490 6 -12507971.771 6
  18685215.004   -19618025.513 6 -15065639.330 7
  20068040.262   -23510586.281 5 -18211937.163 5
 94  2  3  3 28 59.9880000  0  8 24  2  7 13 12  9  4 26
  20732999.887    -1198047.737 4   -816828.995 2
  18452209.449   -16490353.971 7 -12716986.768 7
  17729735.684   -31510224.624 7 -24320230.029 9
  17302870.895   -31584417.825 7 -24357478.546 7
  20102134.293    -8652100.360 5  -6638047.916 5
  19066953.231   -16599705.130 6 -12603465.767 6
  18661573.496   -19742269.466 6 -15162452.775 6
  20072072.793   -23489388.630 5 -18195419.525 5
 94  2  3  3 29 29.9880000  0  8 24  2  7 13 12  9  4 26
  20704523.082    -1347696.797 4   -933438.624 2
  18452105.543   -16490882.867 7 -12717398.902 7
  17731564.356   -31500626.765 7 -24312751.172 9
  17288458.074   -31660152.858 7 -24416492.843 7
  20077076.738    -8783785.437 5  -6740659.653 5
  19043689.902   -16721953.883 6 -12698724.535 6
  18637994.684   -19866184.589 6 -15259009.982 7
  20076159.965   -23467913.845 5 -18178685.928 5
 94  2  3  3 29 59.9880000  0  8 24  2  7 13 12  9  4 26
  20676054.535    -1497297.188 4  -1050010.330 4
  18452046.137   -16491208.117 7
  17733440.996   -31490742.766 7 -24305049.352 9
  17274156.270   -31735318.051 7 -24475063.105 7
  20052035.723    -8915374.622 5  -6843196.658 5
  19020485.738   -16843888.968 6 -12793738.871 6
  18614474.965   -19989763.035 6 -15355304.853 7
  20080298.410   -23446175.622 5 -18161747.060 5
 94  2  3  3 30 29.9880000  0  8 24  2  7 13 12  9  4 26
  20647595.043    -1646839.456 4  -1166536.741 4
  18452024.207   -16491327.845 7
  17735377.074   -31480571.738 7 -24297123.865 9
  17259961.527   -31809910.009 7 -24533186.692 7
  20027014.715    -9046862.301 5  -6945654.567 5
  18997341.199   -16965525.777 6 -12888520.801 6
  18591025.301   -20112995.576 6 -15451330.188 7
  20084478.449   -23424196.033 5 -18144620.119 5
 94  2  3  3 30 59.9880000  0  8 24  2  7 13 12  9  4 26
  20619144.301    -1796344.782 4  -1283034.383 2
  18452032.871   -16491264.236 7
  17737365.192   -31470144.572 7 -24288998.802 9
  17245872.652   -31883946.752 7 -24590877.646 7
  20002010.215    -9178264.191 5  -7048045.636 5
  18974246.996   -17086878.781 6 -12983081.573 6
  18567644.926   -20235877.481 6 -15547082.292 7
  20088700.496   -23402013.229 5 -18127334.819 5
 94  2  3  3 31 29.9880000  0  8 24  2  7 13 12  9  4 26
  20590704.949    -1945807.487 5  -1399498.806 3
  18452081.777   -16491013.432 7
  17739397.418   -31459463.304 7 -24280675.730 9
  17231889.606   -31957425.102 7 -24648133.493 7
  19977021.746    -9309575.186 5  -7150365.877 5
  18951212.762   -17207927.491 6 -13077405.236 6
  18544327.129   -20358392.094 6 -15642548.211 7
  20092962.902   -23379628.068 5 -18109891.861 5
 94  2  3  3 31 59.9880000  0  8 24  2  7 13 12  9  4 26
  20562275.020    -2095217.069 4  -1515921.835 3
  18452170.340   -16490554.720 7 -12717143.227 7
  17741474.020   -31448530.651 7 -24272156.777 9
  17218013.246   -32030345.384 7 -24704954.466 7
  19952052.809    -9440793.483 5  -7252613.876 5
  18928238.192   -17328661.970 6 -13171484.056 6
  18521083.371   -20480542.174 6 -15737730.074 7
  20097255.645   -23357045.172 5 -18092294.811 5
 94  2  3  3 32 29.9880000  0  8 24  2  7 13 12  9  4 26
  20533851.715    -2244578.977 5  -1632307.743 3
  18452302.277   -16489867.840 7 -12716608.002 7
  17743601.692   -31437352.388 7 -24263446.441 9
  17204242.973   -32102709.261 7 -24761341.886 7
  19927098.160    -9571918.643 5  -7354789.312 5
  18905324.332   -17449076.856 6 -13265313.819 6
  18497908.949   -20602325.217 6 -15832625.935 7
  20101594.106   -23334253.917 5 -18074535.397 5
 94  2  3  3 32 59.9880000  0  8 24  2  7 13 12  9  4 26
  20505441.863    -2393881.524 4  -1748647.383 4
  18452477.887   -16488935.903 7 -12715881.826 7
  17745780.074   -31425917.527 7 -24254536.152 9
  17190578.582   -32174513.532 7 -24817293.256 7
  19902164.090    -9702944.611 5  -7456887.436 5
  18882474.371   -17569155.147 6 -13358881.320 6
  18474804.184   -20723742.871 6 -15927237.072 7
  20105974.926   -23311236.885 5 -18056600.053 5
 94  2  3  3 33 29.9880000  0  8 24  2  7 13 12  9  4 26
  20477040.559    -2543117.587 5  -1864935.218 5
  18452701.426   -16487757.493 7 -12714963.591 7
  17748005.887   -31414218.824 7 -24245420.287 9
  17177020.504   -32245763.302 7 -24872812.544 7
  19877251.215    -9833874.813 5  -7558910.967 5
  18859683.684   -17688907.072 6 -13452194.506 6
  18451764.192   -20844822.593 6 -16021584.899 7
  20110396.090   -23287998.086 5 -18038491.897 5
 94  2  3  3 33 59.9880000  0  8 24  2  7 13 12  9  4 26
  20448651.535    -2692284.782 5  -1981169.411 5
  18452973.160   -16486330.610 7 -12713851.746 7
  17750284.473   -31402250.797 7 -24236094.550 9
  17163568.590   -32316452.949 7 -24927895.375 7
  19852354.645    -9964700.976 5  -7660853.407 5
  18836956.363   -17808340.814 6 -13545259.751 6
  18428789.934   -20965561.538 6 -16115667.180 7
  20114862.434   -23264526.881 5 -18020202.656 4
 94  2  3  3 34 29.9880000  0  8 24  2  7 13 12  9  4 26
  20420283.863    -2841390.002 5  -2097355.284 4
  18453284.801   -16484686.554 7 -12712570.676 7
  17752610.137   -31390018.776 7 -24226563.111 9
  17150223.301   -32386582.881 7 -24982542.066 7
  19827481.559   -10095421.409 5  -7762713.485 5
  18814288.863   -17927460.134 6 -13638080.001 6
  18405880.738   -21085944.045 6 -16209471.712 7
  20119378.309   -23240814.720 5 -18001725.649 5
 94  2  3  3 34 59.9880000  0  8 24  2  7 13 12  9  4 26
  20391921.824    -2990441.308 5  -2213499.175 4
  18453638.887   -16482839.273 7 -12711131.244 7
  17754984.918   -31377536.776 7 -24216836.878 9
  17136983.043   -32456160.914 7 -25036758.698 7
  19802625.559   -10226041.276 6  -7864495.176 5
  18791681.731   -18046260.343 6 -13730651.585 6
  18383038.402   -21205976.388 6 -16303003.395 7
  20123927.043   -23216885.763 5 -17983079.731 4
 94  2  3  3 35 29.9880000  0  8 24  2  7 13 12  9  4 26
  20363574.809    -3139397.923 5  -2329569.259 4
  18454036.387   -16480752.020 6 -12709504.807 7
  17757410.535   -31364785.158 7 -24206900.553 9
  17123855.621   -32525146.064 7 -25090513.342 7
  19777795.691   -10356517.275 6  -7966164.760 5
  18769145.777   -18164698.643 6 -13822941.147 7
  18360270.707   -21325611.534 6 -16396225.563 7
  20128531.770   -23192698.276 5 -17964232.328 5
 94  2  3  3 35 59.9880000  0  8 24  2  7 13 12  9  4 26
  20335246.293    -3288256.959 5  -2445563.332 5
  18454482.301   -16478413.992 6 -12707682.978 7
  17759888.168   -31351766.260 7 -24196755.961 9
  17110843.246   -32593522.677 7 -25143793.805 7
  19752997.449   -10486831.292 6  -8067708.139 5
  18746679.754   -18282753.000 6 -13914931.561 6
  18337588.777   -21444821.247 6 -16489116.238 7
  20133189.965   -23168226.942 5 -17945163.779 5
 94  2  3  3 36 29.9880000  0  8 24  2  7 13 12  9  4 26
  20306931.512    -3437053.116 4  -2561508.387 4
  18454967.926   -16475860.318 6 -12705693.105 7
  17762405.746   -31338538.473 7 -24186448.601 9
  17097939.067   -32661337.769 7 -25196636.715 7
  19728219.254   -10617027.850 6  -8169159.991 5
  18724278.871   -18400460.942 6 -14006652.035 6
  18314975.746   -21563658.185 6 -16581716.436 7
  20137890.004   -23143529.130 5 -17925918.734 5
 94  2  3  3 36 59.9880000  0  8 24  2  7 13 12  9  4 26
  20278626.457    -3585784.495 5  -2677402.978 5
  18455498.051   -16473072.202 6 -12703520.560 7
  17764960.902   -31325112.463 7 -24175986.777 9
  17085140.574   -32728597.219 7 -25249046.656 7
  19703467.293   -10747110.125 6  -8270522.803 5
  18701947.207   -18517826.836 6 -14098105.974 7
  18292429.707   -21682130.979 6 -16674032.887 7
  20142631.934   -23118608.971 5 -17906500.446 5
 94  2  3  3 37 29.9880000  0  8 24  2  7 13 12  9  4 26
  20250339.731    -3734435.070 5  -2793234.612 5
  18456071.902   -16470050.839 6 -12701166.258 7
  17767558.192   -31311466.993 7 -24165353.949 9
  17072448.887   -32795292.941 7 -25301017.331 7
  19678740.098   -10877067.973 6  -8371788.636 5
  18679676.941   -18634857.172 6 -14189298.437 7
  18269956.567   -21800221.846 6 -16766051.732 7
  20147419.246   -23093447.371 5 -17886894.022 5
 94  2  3  3 37 59.9880000  0  8 24  2  7 13 12  9  4 26
  20222063.527    -3883031.619 5  -2909024.156 5
  18456687.113   -16466814.206 6 -12698644.222 7
  17770198.934   -31297593.603 7 -24154543.523 9
  17059861.293   -32861441.104 7 -25352561.334 7
  19654030.574   -11006914.629 6  -8472967.843 5
  18657467.246   -18751558.341 6 -14280234.409 7
  18247557.426   -21917939.287 6 -16857779.593 7
  20152246.215   -23068081.854 5 -17867128.703 5
 94  2  3  3 38 29.9880000  0  8 24  2  7 13 12  9  4 26
  20193804.504    -4031535.378 5  -3024741.373 5
  18457346.957   -16463340.614 6 -12695937.536 7
  17772892.098   -31283446.140 7 -24143519.538 9
  17047380.824   -32927020.977 7 -25403662.518 7
  19629346.449   -11136626.784 6  -8574042.236 5
  18635329.512   -18867899.613 6 -14370889.936 7
  18225232.457   -22035246.662 6 -16949187.920 7
  20157112.121   -23042516.459 5 -17847207.625 5
 94  2  3  3 38 59.9880000  0  8 24  2  7 13 12  9  4 26
  20165565.981    -4179957.964 5  -3140395.338 5
  18458049.340   -16459648.921 6 -12693060.902 7
  17775635.715   -31269021.355 7 -24132279.449 9
  17035007.465   -32992042.936 7 -25454328.967 7
  19604686.910   -11266211.983 6  -8675017.711 5
  18613260.152   -18983878.218 6 -14461262.887 7
  18202989.606   -22152139.582 6 -17040273.302 7
  20162011.324   -23016763.446 5 -17827140.361 5
 94  2  3  3 39 29.9880000  0  8 24  2  7 13 12  9  4 26
  20137330.348    -4328295.449 5  -3255982.986 5
  18458792.207   -16455746.953 6 -12690020.412 7
  17778435.871   -31254313.762 7 -24120818.991 9
  17022741.254   -33056508.091 7 -25504561.548 7
  19580053.285   -11395669.024 6  -8775893.313 5
  18591257.504   -19099488.175 6 -14551348.564 7
  18180825.527   -22268618.597 6 -17131036.152 7
  20166946.309   -22990832.509 5 -17806934.427 5
 94  2  3  3 39 59.9880000  0  8 24  2  7 13 12  9  4 26
  20109124.137    -4476553.551 5  -3371508.767 5
  18459577.043   -16451627.838 6 -12686810.723 7
  17781284.442   -31239339.222 7 -24109150.516 9
  17010578.949   -33120419.752 7 -25554362.831 7
  19555440.074   -11524998.170 6  -8876669.271 5
  18569333.848   -19214720.757 6 -14641140.176 7
  18158735.465   -22384691.679 6 -17221482.689 7
  20171910.629   -22964731.293 5 -17786595.827 5
 94  2  3  3 40 29.9880000  0  8 24  2  7 13 12  9  4 26
  20080926.988    -4624721.752 5  -3486964.480 5
  18460400.176   -16447303.148 6 -12683440.834 7
  17784177.645   -31224137.349 7 -24097304.901 9
  16998521.457   -33183787.793 7 -25603740.513 7
  19530853.504   -11654206.592 6  -8977351.141 5
  18547470.574   -19329596.719 6 -14730653.918 7
  18136725.324   -22500362.439 6 -17311615.743 7
  20176912.207   -22938452.209 5 -17766118.634 5
 94  2  3  3 40 59.9880000  0  8 24  2  7 13 12  9  4 26
  20052746.527    -4772787.430 5  -3602340.292 5
  18461265.426   -16442761.682 6 -12679902.037 7
  17787109.129   -31208724.655 7 -24085295.010 9
  16986567.621   -33246598.573 7 -25652683.968 6
  19506292.613   -11783278.163 6  -9077926.384 5
  18525677.957   -19444122.343 6 -14819894.663 7
  18114789.957   -22615629.297 6 -17401434.048 7
  20181955.465   -22911969.506 5 -17745482.759 5
 94  2  3  3 41 29.9880000  0  8 24  2  7 13 12  9  4 26
  20024585.754    -4920759.959 5  -3717643.521 5
  18462170.442   -16438011.687 6 -12676200.743 7
  17790079.363   -31193115.517 7 -24073132.046 9
  16974721.051   -33308857.886 7 -25701197.702 7
  19481756.473   -11912215.602 6  -9178397.106 5
  18503947.535   -19558324.361 6 -14908883.242 7
  18092930.113   -22730507.552 6 -17490949.554 7
  20187028.559   -22885304.778 5 -17724705.047 4
 94  2  3  3 41 59.9880000  0  8 24  2  7 13 12  9  4 26
  19996444.395    -5068646.878 5  -3832880.046 5
  18463113.988   -16433052.104 6 -12672336.144 7
  17793083.879   -31177326.493 7 -24060828.907 9
  16962976.442   -33370571.429 7 -25749286.164 6
  19457243.465   -12041021.663 6  -9278765.460 5
  18482272.543   -19672217.437 6 -14997631.093 7
  18071145.184   -22844993.859 6 -17580159.651 7
  20192131.816   -22858473.282 5 -17703797.379 4
 94  2  3  3 42 29.9880000  0  8 24  2  7 13 12  9  4 26
  19968329.942    -5216417.434 5  -3948025.918 5
  18464100.527   -16427866.839 6 -12668295.684 7
  17796126.512   -31161339.502 7 -24048371.513 9
  16951339.051   -33431724.637 7 -25796937.995 6
  19432763.973   -12169679.046 6  -9379017.960 5
  18460662.129   -19785788.007 6 -15086127.639 7
  18049434.699   -22959070.440 6 -17669050.473 7
  20197270.949   -22831468.222 5 -17682754.451 4
 94  2  3  3 42 59.9880000  0  8 24  2  7 13 12  9  4 26
  19940226.637    -5364074.170 5  -4063083.061 5
  18465133.020   -16422442.337 6 -12664068.811 7
  17799210.145   -31145132.584 7 -24035742.746 9
  16939809.887   -33492312.485 7 -25844149.287 7
  19408309.410   -12298180.021 6  -9479148.593 5
  18439116.902   -19899003.655 6 -15174347.622 7
  18027805.168   -23072739.424 6 -17757623.687 7
  20202441.715   -22804292.979 5 -17661578.932 4
 94  2  3  3 43 29.9880000  0  8 24  2  7 13 12  9  4 26
  19912147.012    -5511646.353 5  -4178074.343 5
  18466206.652   -16416798.091 6 -12659670.706 7
  17802333.293   -31128721.672 7 -24022955.018 9
  16928383.809   -33552362.100 7 -25890941.180 6
  19383880.754   -12426548.628 6  -9579176.066 5
  18417639.449   -20011864.163 6 -15262290.878 7
  18006251.551   -23186012.926 6 -17845888.747 7
  20207640.801   -22776969.839 4 -17640288.203 5
 94  2  3  3 43 59.9880000  0  8 24  2  7 13 12  9  4 26
  19884090.809    -5659104.293 5  -4292976.589 5
  18467323.934   -16410919.661 6 -12655090.116 7
  17805497.590   -31112094.584 7 -24009998.845 9
  16917061.809   -33611857.879 7 -25937301.507 7
  19359481.824   -12554766.083 6  -9679085.775 5
  18396240.660   -20124325.234 6 -15349922.873 7
  17984776.621   -23298861.354 6 -17933822.568 7
  20212872.684   -22749471.062 4 -17618860.599 5
 94  2  3  3 44 29.9880000  0  8 24  2  7 13 12  9  4 26
  19856051.137    -5806450.025 5  -4407791.417 5
  18468484.301   -16404826.360 6 -12650342.094 7
  17808701.801   -31095259.701 7 -23996880.753 9
  16905843.559   -33670807.716 7 -25983236.430 7
  19335110.012   -12682837.604 6  -9778881.766 5
  18374918.676   -20236377.857 6 -15437236.597 7
  17963379.066   -23411297.261 6 -18021434.950 7
  20218140.965   -22721798.371 4 -17597297.458 5
 94  2  3  3 44 59.9880000  0  8 24  2  7 13 12  9  4 26
  19828032.543    -5953676.557 5  -4522513.364 5
  18469685.387   -16398507.108 6 -12645418.005 7
  17811947.254   -31078204.436 7 -23983590.937 9
  16894732.246   -33729198.077 7 -26028735.407 7
  19310770.965   -12810746.553 6  -9878551.068 5
  18353674.879   -20348008.204 6 -15524221.278 7
  17942066.754   -23523303.279 6 -18108712.352 7
  20223444.777   -22693933.177 4 -17575584.337 4
 94  2  3  3 45 29.9880000  0  8 24  2  7 13 12  9  4 26
  19800042.949    -6100773.146 5  -4637134.048 5
  18470930.512   -16391971.374 6 -12640325.231 7
  17815233.848   -31060934.656 7 -23970133.965 9
  16883726.309   -33787035.012 7 -26073803.142 7
  19286462.176   -12938495.722 6  -9978095.866 6
  18332507.152   -20459238.909 6 -15610894.552 7
  17920835.457   -23634874.012 6 -18195650.574 7
  20228778.754   -22665889.644 5 -17553732.240 4
 94  2  3  3 45 59.9880000  0  8 24  2  7 13 12  9  4 26
  19772076.418    -6247730.469 5  -4751646.235 5
  18472217.942   -16385206.336 6 -12635053.778 7
  17818561.621   -31043444.407 7 -23956505.197 9
  16872827.223   -33844314.125 7 -26118436.210 7
  19262185.277   -13066077.662 6 -10077510.362 6
  18311416.184   -20570072.241 6 -15697258.182 7
  17899685.246   -23746011.844 6 -18282251.469 7
  20234149.207   -22637674.176 5 -17531746.184 5
 94  2  3  3 46 29.9870000  0  8 24  2  7 13 12  9  4 26
  19744137.585    -6394555.126 5  -4866055.045 5
  18473551.421   -16378198.523 6 -12629593.153 7
  17821932.679   -31025731.374 7 -23942702.838 9
  16862031.405   -33901041.669 7 -26162639.487 7
  19237937.421   -13193493.391 6 -10176795.332 6
  18290401.866   -20680518.969 6 -15783320.573 7
  17878617.304   -23856718.390 6 -18368516.291 8
  20239549.312   -22609295.043 5 -17509632.611 4
 94  2  3  3 46 59.9870000  0  8 24  2  7 13 12  9  4 26
  19716219.577    -6541259.800 5  -4980370.352 5
  18474929.609   -16370940.966 6 -12623937.939 7
  17825347.202   -31007792.113 7 -23928724.202 9
  16851339.851   -33957226.133 7 -26206419.573 6
  19213720.694   -13320752.819 6 -10275958.507 6
  18269454.335   -20790594.273 6
  17857632.163   -23966990.395 6
  20244980.788   -22580759.960 5 -17487397.502 4
 94  2  3  3 47 29.9870000  0  8 24  2  7 13 12  9  4 26
  19688331.257    -6687818.984 5  -5094572.292 5
  18476361.046   -16363422.836 6 -12618079.676 7
  17828805.109   -30989621.600 7 -23914565.366 9
  16840752.890   -34012855.986 7 -26249767.492 6
  19189535.359   -13447838.807 6 -10374986.528 6
  18248583.819   -20900271.972 6
  17836735.812   -24076811.921 6
  20250440.851   -22552071.030 5 -17465042.517 4
 94  2  3  3 47 59.9870000  0  8 24  2  7 13 12  9  4 26
  19660467.679    -6834251.961 5  -5208675.893 5
  18477839.179   -16355647.150 6 -12612020.704 7
  17832302.460   -30971234.214 7 -23900237.536 9
  16830271.937   -34067941.842 7 -26292691.508 6
  19165384.780   -13574758.749 6 -10473885.166 6
  18227786.226   -21009558.638 6
  17815921.234   -24186203.590 6
  20255926.726   -22523245.653 5 -17442581.171 5
 94  2  3  3 48 29.9870000  0  8 24  2  7 13 12  9  4 26
  19632626.163    -6980534.025 5  -5322661.898 5
  18479368.835   -16347620.291 6 -12605766.026 6
  17835845.632   -30952622.303 7 -23885734.744 9
  16819893.124   -34122476.153 7 -26335185.762 6
  19141267.101   -13701501.904 6 -10572646.049 6
  18207065.694   -21118444.335 6
  17795186.366   -24295156.550 6
  20261433.249   -22494283.962 5 -17420013.613 5
 94  2  3  3 48 59.9870000  0  8 24  2  7 13 12  9  4 26
  19604823.202    -7126651.949 5  -5436520.002 5
  18480940.007   -16339363.192 6 -12599331.935 7
  17839426.687   -30933794.773 7 -23871063.932 9
  16809621.257   -34176457.717 7 -26377249.306 7
  19117181.960   -13828063.948 6 -10671265.808 6
  18186422.702   -21226925.492 6
  17774537.976   -24403671.783 6
  20266970.390   -22465194.106 5 -17397346.212 5
 94  2  3  3 49 29.9870000  0  8 24  2  7 13 12  9  4 26
  19577048.999    -7272611.144 5  -5550254.426 5
  18482554.194   -16330890.382 6 -12592729.750 6
  17843047.398   -30914764.747 7 -23856235.347 9
  16799451.741   -34229894.920 7 -26418888.674 7
  19093131.148   -13954449.906 6 -10769748.358 6
  18165855.507   -21335005.386 6
  17753968.312   -24511764.775 6
  20272532.546   -22435990.405 5 -17374590.081 5
 94  2  3  3 49 59.9870000  0  8 24  2  7 13 12  9  4 26
  19549298.655    -7418430.261 5  -5663879.693 5
  18484203.523   -16322215.366 6 -12585970.011 7
  17846705.523   -30895547.773 7 -23841261.082 9
  16789385.351   -34282796.733 7 -26460110.859 6
  19069114.132   -14080665.432 6 -10868098.101 6
  18145360.554   -21442701.375 6
  17733479.398   -24619436.485 6
  20278106.413   -22406671.491 5 -17351744.196 5
 94  2  3  3 50 29.9870000  0  8 24  2  7 13 12  9  4 26
  19521576.499    -7564105.348 5  -5777392.734 5
  18485892.804   -16313343.423 6 -12579056.815 7
  17850396.546   -30876148.219 7 -23826144.549 9
  16779421.733   -34335159.007 7 -26500912.610 7
  19045129.030   -14206702.970 6 -10966309.152 6
  18124942.702   -21550004.389 6
  17713072.796   -24726667.356 6
  20283714.054   -22377211.637 4 -17328788.483 5
 94  2  3  3 50 59.9870000  0  8 24  2  7 13 12  9  4 26
  19493881.101    -7709652.046 5  -5890805.739 5
  18487618.163   -16304266.995 6 -12571984.288 7
  17854121.163   -30856587.249 7 -23810902.237 9
  16769558.983   -34386982.866 7 -26541294.820 6
  19021178.757   -14332560.283 6 -11064379.762 6
  18104601.273   -21656909.222 6
  17692753.905   -24833442.256 6
  20289344.468   -22347600.377 4 -17305714.802 4
 94  2  3  3 51 29.9870000  0  8 24  2  7 13 12  9  4 26
  19466203.296    -7855084.596 5  -6004129.792 5
  18489386.741   -16294976.279 6 -12564744.794 6
  17857869.421   -30836877.091 7 -23795543.677 9
  16759798.812   -34438276.899 7 -26581264.181 6
  18997265.023   -14458242.538 6 -11162313.973 6
  18084330.421   -21763421.416 6 -16627140.623 7
  17672520.093   -24939771.309 6 -19212453.494 8
  20295011.101   -22317838.429 4 -17282523.655 4
 94  2  3  3 51 59.9870000  0  8 24  2  7 13 12  9  4 26
  19438558.202    -8000393.064 5  -6117357.162 5
  18491203.960   -16285441.674 6 -12557315.260 6
  17861649.507   -30817012.633 7 -23780064.878 9
  16750140.171   -34489029.864 7 -26620811.934 6
  18973380.101   -14583734.992 6 -11260100.286 6
  18064140.507   -21869526.271 6 -16709819.728 8
  17652374.624   -25045641.090 6 -19294949.416 8
  20300705.538   -22287913.865 4 -17259205.807 5
 94  2  3  3 52 29.9870000  0  8 24  2  7 13 12  9  4 26
  19410929.983    -8145570.402 5  -6230482.344 5
  18493063.202   -16275659.556 6 -12549692.846 6
  17865458.062   -30797000.762 7 -23764471.219 9
  16740584.085   -34539249.502 7 -26659944.117 7
  18949536.499   -14709042.073 6 -11357742.149 6
  18044026.476   -21975216.973 6 -16792176.109 7
  17632315.218   -25151062.081 6 -19377095.628 8
  20306427.710   -22257850.440 4 -17235779.772 4
 94  2  3  3 52 59.9870000  0  8 24  2  7 13 12  9  4 26
  19383335.788    -8290587.109 5  -6343482.360 5
  18494975.124   -16265613.327 6 -12541864.639 6
  17869299.773   -30776815.563 7 -23748742.500 9
  16731131.398   -34588925.357 7 -26698652.571 6
  18925730.101   -14834149.611 6 -11455228.531 6
  18023996.093   -22080472.988 6 -16874193.791 7
  17612341.937   -25256019.762 6 -19458880.819 8
  20312168.499   -22227668.708 4 -17212261.561 2
 94  2  3  3 53 29.9870000  0  8 24  2  7 13 12  9  4 26
  19355768.444    -8435437.659 5  -6456352.910 5
  18496936.327   -16255310.948 6 -12533836.833 6
  17873177.046   -30756440.371 7 -23732865.726 9
  16721780.827   -34638063.202 7 -26736941.784 6
  18901961.460   -14959060.331 6 -11552561.541 6
  18004049.632   -22185303.035 6 -16955879.539 7
  17592453.687   -25360527.215 6 -19540315.179 8
  20317933.593   -22197391.211 4 -17188668.735 3
 94  2  3  3 53 59.9870000  0  8 24  2  7 13 12  9  4 26
  19328236.812    -8580116.077 5  -6569089.334 6
  18498940.952   -16244768.676 6 -12525622.096 6
  17877090.234   -30735870.744 7 -23716837.451 9
  16712530.530   -34686668.362 7 -26774815.909 6
  18878228.796   -15083775.636 6 -11649742.281 6
  17984183.241   -22289708.604 6 -17037234.527 7
  17572653.773   -25464569.847 6 -19621387.351 8
  20323705.960   -22167038.205 3 -17165017.046 4
 94  2  3  3 54 29.9870000  0  8 24  2  7 13 12  9  4 26
  19300739.687    -8724604.256 5  -6681677.508 6
  18500989.921   -16234004.189 6 -12517234.220 6
  17881044.054   -30715095.346 7 -23700648.840 9
  16703382.835   -34734739.861 7 -26812274.190 6
  18854535.741   -15208291.182 6 -11746767.372 6
  17964394.577   -22393687.912 6 -17118257.362 7
  17552948.749   -25568126.792 6 -19702081.057 8
  20329498.148   -22136611.239 4 -17141307.728 4
 94  2  3  3 54 59.9870000  0  8 24  2  7 13 12  9  4 26
  19273281.999    -8868901.727 5  -6794117.090 5
  18503081.140   -16223011.978 6 -12508668.895 6
  17885038.515   -30694101.932 7 -23684290.349 9
  16694337.804   -34782272.829 7 -26849312.842 6
  18830878.413   -15332598.172 6 -11843629.948 6
  17944689.280   -22497234.891 6 -17198943.326 7
  17533339.030   -25671184.435 6 -19782385.699 8
  20335307.280   -22106096.514 4 -17117530.014 3
 94  2  3  3 55 29.9870000  0  8 24  2  7 13 12  9  4 26
  19245860.194    -9013016.092 5  -6906413.978 6
  18505217.976   -16211789.181 6 -12499923.881 6
  17889072.507   -30672907.224 7 -23667774.984 8
  16685394.937   -34829269.816 7 -26885933.855 6
  18807264.202   -15456695.876 6 -11940329.435 6
  17925068.218   -22600355.383 6 -17279296.955 8
  17513820.280   -25773742.882 6 -19862301.356 8
  20341129.265   -22075479.597 3 -17093672.697 4
 94  2  3  3 55 59.9870000  0  8 24  2  7 13 12  9  4 26
  19218471.437    -9156944.050 5  -7018565.622 6
  18507398.116   -16200328.572 6 -12490993.556 6
  17893139.218   -30651527.987 7 -23651115.841 9
  16676554.109   -34875731.347 7 -26922137.636 6
  18783689.140   -15580581.010 6 -12036863.310 6
  17905527.109   -22703036.479 6 -17359308.193 7
  17494401.616   -25875795.091 6 -19941822.545 8
  20346980.358   -22044755.139 4 -17069731.549 4
 94  2  3  3 56 29.9870000  0  8 24  2  7 13 12  9  4 26
  19191117.405    -9300690.103 5  -7130575.518 6
  18509626.444   -16188627.080 6 -12481875.516 6
  17897241.288   -30629971.803 7 -23634318.812 8
  16667813.929   -34921657.553 7 -26957924.279 6
  18760155.077   -15704249.793 6 -12133228.582 6
  17886074.046   -22805265.871 6 -17438967.462 7
  17475074.616   -25977355.734 6 -20020960.695 8
  20352847.069   -22013916.172 4 -17045701.198 2
 94  2  3  3 56 59.9870000  0  8 24  2  7 13 12  9  4 26
  19163802.702    -9444237.332 5  -7242430.486 6
  18511902.694   -16176667.631 6 -12472556.485 6
  17901378.452   -30608233.574 7 -23617379.938 9
  16659178.890   -34967034.178 7 -26993282.694 6
  18736666.726   -15827684.716 6 -12229411.639 6
  17866711.444   -22907020.843 6 -17518257.044 8
  17455842.359   -26078426.645 6 -20099717.240 8
  20358739.007   -21982947.993 4 -17021570.166 4
 94  2  3  3 57 29.9870000  0  7 24  2  7 13 12  9  4
  19136523.585    -9587586.496 5  -7354131.124 6
  18514222.093   -16164474.474 6 -12463055.352 6
  17905545.710   -30586333.511 7 -23600314.956 8
  16650646.593   -35011873.257 7 -27028222.222 6
  18713221.569   -15950893.966 6 -12325418.840 6
  17847434.577   -23008311.962 6 -17597185.192 8
  17436699.343   -26179023.670 6 -20178104.522 8
 94  2  3  3 57 59.9870000  0  8 24  2  7 13 12  9  4  5
  19109281.687    -9730749.991 5  -7465687.074 6
  18516581.765   -16152065.468 6 -12453386.008 6
  17909743.788   -30564280.459 7 -23583130.755 8
  16642214.741   -35056190.960 7 -27062755.487 6
  18689815.265   -16073889.977 6 -12421259.883 6
  17828246.194   -23109153.519 6 -17675763.027 8
  17417639.976   -26279165.768 6 -20256137.314 8
  20344385.257     -122202.703 3
 94  2  3  3 58 29.9870000  0  8 24  2  7 13 12  9  4  5
  19082072.515    -9873709.449 5  -7577084.031 6
  18518986.226   -16139437.152 6 -12443545.782 6
  17913971.984   -30542057.833 7 -23565814.426 8
  16633882.265   -35099972.611 7 -27096871.028 6
  18666455.030   -16196654.216 6 -12516920.323 6
  17809139.491   -23209549.334 6 -17753993.523 8
  17398675.866   -26378833.132 6 -20333800.183 8
  20321132.499     -244399.064 4
 94  2  3  3 58 59.9870000  0  8 24  2  7 13 12  9  4  5
  19054910.335   -10016458.561 5  -7688317.096 6
  18521433.609   -16126578.680 6 -12433526.256 6
  17918233.382   -30519661.764 6 -23548362.946 8
  16625652.398   -35143218.231 7 -27130568.908 6
  18643137.398   -16319183.001 6
  17790121.077   -23309509.563 6 -17831884.618 8
  17379801.241   -26478013.118 6 -20411083.281 8
  20297878.233     -366610.770 4
 94  2  3  3 59 29.9870000  0  8 24  2  7 13 12  9  4  5
  19027784.968   -10159009.847 5  -7799396.007 6
  18523927.155   -16113478.985 6 -12423318.743 6
  17922528.616   -30497091.505 7 -23530775.730 8
  16617524.210   -35185933.843 7 -27163853.791 6
  18619867.007   -16441478.189 6
  17771176.241   -23409048.035 6 -17909447.066 8
  17361023.882   -26576697.488 6 -20487980.183 8
  20274612.624     -488860.743 4
 94  2  3  3 59 59.9870000  0  8 24  2  7 13 12  9  4  5
  19000695.984   -10301366.578 5  -7910323.312 6
  18526466.296   -16100127.817 6 -12412915.274 6
  17926855.913   -30474347.544 7 -23513053.159 8
  16609495.015   -35228124.498 7 -27196729.622 6
  18596640.609   -16563541.346 6 -12802806.373 6
  17752316.429   -23508168.143 6 -17986683.515 8
  17342337.210   -26674889.245 6 -20564493.230 8
  20251340.788     -611151.402 4        -0.47614
 94  2  3  4  0 29.9870000  0  8 24  2  7 13 12  9  4  5
  18973644.905   -10443517.821 5  -8021090.497 6
  18529056.343   -16086516.965 6 -12402309.453 6
  17931215.726   -30451434.143 6 -23495198.559 8
  16601567.640   -35269786.213 7 -27229193.279 6
  18573457.976   -16685364.592 6 -12897733.580 6
  17733537.194   -23606854.924 6 -18063582.305 8
  17323748.148   -26772580.980 6 -20640616.651 8
  20228064.093     -733469.283 4    -95313.112 4
 94  2  3  4  0 59.9870000  0  8 24  2  7 13 12  9  4  5
  18946635.132   -10585463.161 5  -8131697.242 6
  18531699.616   -16072635.940 6 -12391493.113 6
  17935608.827   -30428350.241 6 -23477211.104 8
  16593738.632   -35310926.431 7 -27261250.590 6
  18550317.077   -16806951.352 6 -12992476.497 6
  17714841.101   -23705093.479 6 -18140131.832 8
  17305253.827   -26869778.699 6 -20716355.127 8
  20204784.413     -855800.400 4   -190636.050 4
 94  2  3  4  1 29.9870000  0  8 24  2  7 13 12  9  4  5
  18919662.921   -10727182.565 5  -8242127.944 6
  18534389.991   -16058489.949 6 -12380470.300 6
  17940033.398   -30405097.270 6 -23459091.909 8
  16586010.218   -35351542.222 7 -27292899.256 6
  18527224.788   -16928295.013 6 -13087029.993 6
  17696236.444   -23802867.955 6 -18216319.735 8
  17286851.374   -26966478.547 6 -20791705.643 8
  20181509.366     -978113.538 4   -285944.969 5
 94  2  3  4  1 59.9870000  0  8 24  2  7 13 12  9  4  5
  18892740.015   -10868671.046 5  -8352378.672 6
  18537131.687   -16044087.474 6 -12369247.624 6
  17944488.905   -30381691.224 6 -23440853.424 8
  16578381.171   -35391634.369 7 -27324139.883 6
  18504184.616   -17049392.225 6 -13181391.450 6
  17677721.499   -23900166.364 6 -18292136.676 8
  17268543.640   -27062679.908 6 -20866667.732 8
  20158242.702    -1100401.641 4   -381234.379 5
 94  2  3  4  2 29.9870000  0  8 24  2  7 13 12  9  4  5
  18865857.788   -11009929.320 5  -8462450.044 6
  18539918.718   -16029439.903 6 -12357833.967 6
  17948972.718   -30358129.458 6 -23422493.603 8
  16570849.819   -35431207.209 7 -27354975.860 6
  18481187.476   -17170243.292 6 -13275561.109 6
  17659298.468   -23996982.671 6 -18367577.953 8
  17250335.968   -27158362.872 6 -20941225.875 8
  20134973.843    -1222681.631 4   -476517.454 4
 94  2  3  4  2 59.9870000  0  8 24  2  7 13 12  9  4  5
  18839023.601   -11150952.078 5  -8572337.893 6
  18542750.046   -16014553.985 6 -12346234.570 6
  17953488.046   -30334401.074 6 -23404003.966 8
  16563418.046   -35470262.322 7 -27385408.418 6
  18458236.155   -17290846.131 6 -13369537.337 6
  17640963.734   -24093323.333 6 -18442648.601 8
  17232230.257   -27253516.714 6 -21015371.714 8
  20111697.898    -1344971.989 4   -571808.620 3
 94  2  3  4  3 29.9870000  0  8 24  2  7 13 12  9  4  5
  18812233.702   -11291738.977 5  -8682041.948 6
  18545630.444   -15999425.983 6 -12334446.547 6
  17958034.648   -30310507.319 6 -23385385.460 8
  16556085.280   -35508793.104 7 -27415432.397 6
  18435334.327   -17411189.561 6 -13463311.429 7
  17622723.155   -24189180.797 6 -18517342.733 8
  17214223.968   -27348134.316 6 -21089099.701 8
  20088421.812    -1467288.552 4   -667120.206 5
 94  2  3  4  3 59.9870000  0  8 24  2  7 13 12  9  4  5
  18785484.444   -11432300.673 5  -8791570.538 6
  18548554.218   -15984052.212 6 -12322467.024 6
  17962613.179   -30286446.153 6 -23366636.504 8
  16548854.866   -35546798.402 7 -27445046.919 6
  18412484.288   -17531268.922 6 -13556879.756 7
  17604575.069   -24284560.344 6 -18591664.463 8
  17196322.038   -27442204.219 6 -21162400.913 8
  20065140.585    -1589652.864 5   -762468.976 5
 94  2  3  4  4 29.9870000  0  8 24  2  7 13 12  9  4  5
  18758785.413   -11572618.445 6  -8900909.048 6
  18551528.523   -15968422.265 6 -12310287.871 6
  17967228.085   -30262198.534 6 -23347742.264 8
  16541722.640   -35584275.434 7 -27474249.779 6
  18389685.101   -17651077.254 6 -13650236.892 6
  17586515.913   -24379461.174 6 -18665613.160 8
  17178527.101   -27535722.524 6 -21235272.309 8
  20041849.546    -1712048.018 5   -857841.802 4
 94  2  3  4  4 59.9860000  0  8 24  2  7 13 12  9  4  5
  18732126.221   -11712707.585 5  -9010069.405 6
  18554553.463   -15952535.374 6 -12297908.512 6
  17971870.838   -30237794.097 6 -23328725.816 8
  16534689.221   -35621237.337 7 -27503051.237 6
  18366936.885   -17770620.919 6 -13743387.791 7
  17568546.119   -24473893.755 6 -18739196.991 8
  17160831.682   -27628714.386 6 -21307733.489 8
  20018553.502    -1834470.552 5   -953235.976 4
 94  2  3  4  5 29.9860000  0  8 24  2  7 13 12  9  4  5
  18705507.775   -11852574.192 5  -9119056.359 6
  18557624.947   -15936382.469 6 -12285321.866 6
  17976545.994   -30213233.311 6 -23309587.543 8
  16527753.619   -35657681.087 7 -27531448.948 6
  18344242.010   -17889898.335 6 -13836331.224 7
  17550668.338   -24567846.832 6 -18812407.181 8
  17143234.424   -27721181.266 6 -21379785.592 8
  19995253.338    -1956904.478 4  -1048639.014 4
 94  2  3  4  5 59.9860000  0  8 24  2  7 13 12  9  4  5
  18678938.408   -11992209.016 5  -9227862.702 6
  18560749.666   -15919972.105 6 -12272534.607 6
  17981249.260   -30188514.385 6 -23290326.053 8
  16520915.244   -35693613.306 7 -27559448.067 6
  18321593.947   -18008909.255 6 -13929066.997 7
  17532880.033   -24661320.467 6 -18885243.784 8
  17125741.229   -27813114.691 7 -21451422.022 8
  19971957.018    -2079329.432 5  -1144035.059 4
 94  2  3  4  6 29.9860000  0  8 24  2  7 13 12  9  4  5
  18652410.971   -12131608.234 6  -9336485.462 6
  18563924.557   -15903296.870 6 -12259540.958 6
  17985981.400   -30163639.046 6 -23270942.682 8
  16514174.807   -35729035.017 7 -27587049.399 6
  18298996.213   -18127650.553 6 -14021592.677 7
  17515185.408   -24754306.879 6 -18957700.732 8
  17108347.158   -27904516.290 7 -21522644.031 8
  19948664.385    -2201740.338 4  -1239420.150 5
 94  2  3  4  6 59.9860000  0  8 24  2  7 13 12  9  4  5
  18625928.947   -12270775.495 6  -9444927.481 6
  18567144.080   -15886366.098 6 -12246348.189 6
  17990744.932   -30138617.760 6 -23251445.589 8
  16507530.885   -35763948.594 7 -27614254.768 6
  18276452.713   -18246120.110 6 -14113906.615 7
  17497584.400   -24846803.155 6 -19029775.752 8
  17091055.033   -27995392.585 7 -21593456.718 8
  19925365.932    -2324157.041 5  -1334809.766 4
 94  2  3  4  7 29.9860000  0  8 24  2  7 13 12  9  4  5
  18599492.354   -12409697.351 6  -9553178.270 6
  18570410.643   -15869189.916 6 -12232964.203 6
  17995533.236   -30113449.224 6 -23231833.754 8
  16500983.510   -35798355.930 7 -27641065.659 6
  18253960.322   -18364316.065 6 -14206007.350 7
  17480075.682   -24938815.512 6 -19101473.700 8
  17073860.174   -28085750.664 7 -21663865.603 8
  19902068.697    -2446583.139 4  -1430206.710 5
 94  2  3  4  7 59.9860000  0  8 24  2  7 13 12  9  4  5
  18573104.869   -12548367.003 6  -9661232.534 6
  18573726.869   -15851771.120 6 -12219391.157 6
  18000348.744   -30088147.600 6 -23212118.207 8
  16494531.166   -35832262.788 7 -27667486.558 6
  18231522.557   -18482239.819 6 -14297895.976 7
  17462655.729   -25030351.817 6 -19172800.691 8
  17056761.971   -28175603.251 7 -21733880.596 8
  19878770.893    -2569021.038 4  -1525612.823 5
 94  2  3  4  8 29.9860000  0  8 24  2  7 13 12  9  4  5
  18546770.861   -12686767.090 6  -9769076.750 6
  18577088.760   -15834103.363 6 -12205624.127 6
  18005188.565   -30062712.587 6 -23192298.724 8
  16488176.049   -35865660.672 7 -27693510.857 6
  18209138.072   -18599878.807 6 -14389562.716 7
  17445326.236   -25121402.654 6 -19243749.396 8
  17039757.588   -28264961.406 7 -21803510.314 8
  19855469.244    -2691469.550 5  -1621027.222 5
 94  2  3  4  8 59.9860000  0  8 24  2  7 13 12  9  4  5
  18520484.158   -12824895.402 6  -9876709.208 6
  18580495.166   -15816202.272 6 -12191675.287 6
  18010054.494   -30037146.904 6 -23172377.429 8
  16481915.315   -35898557.987 7 -27719145.117 6
  18186804.260   -18717237.140 6 -14481010.761 7
  17428094.283   -25211957.897 6 -19314311.924 8
  17022847.275   -28353829.602 7 -21872758.245 9
  19832168.354    -2813918.507 5  -1716441.966 5
 94  2  3  4  9 29.9860000  0  8 24  2  7 13 12  9  4  5
  18494252.674   -12962742.952 6  -9984122.874 6
  18583946.486   -15798061.885 6 -12177539.959 6
  18014944.111   -30011447.723 6 -23152352.095 8
  16475751.885   -35930952.297 7 -27744387.436 6
  18164526.268   -18834308.182 6 -14572234.942 7
  17410960.619   -25302001.475 6 -19384475.756 8
  17006033.502   -28442183.350 7 -21941605.307 8
  19808873.588    -2936340.811 5  -1811835.939 5
 94  2  3  4  9 59.9860000  0  8 24  2  7 13 12  9  4  5
  18468074.658   -13100310.012 6 -10091317.979 6
  18587444.174   -15779688.843 6 -12163223.341 6
  18019861.494   -29985614.201 6 -23132222.071 8
  16469682.697   -35962847.769 7 -27769241.040 7
  18142301.893   -18951091.676 6 -14663235.055 7
  17393924.361   -25391521.956 6 -19454231.985 8
  16989321.783   -28530006.513 7 -22010038.933 8
  19785582.502    -3058738.681 5  -1907210.859 4
 94  2  3  4 10 29.9860000  0  8 24  2  7 13 12  9  4  5
  18441944.869   -13237615.760 6 -10198309.477 6
  18590985.385   -15761088.793 6 -12148729.850 6
  18024802.150   -29959645.482 6 -23111986.700 7
  16463706.307   -35994253.228 7 -27793712.818 6
  18120133.033   -19067592.430 6 -14754014.863 7
  17376989.369   -25480521.781 6 -19523582.504 8
  16972712.525   -28617286.433 7 -22078049.245 8
  19762290.119    -3181134.548 5  -2002584.261 3
 94  2  3  4 10 59.9860000  0  8 24  2  7 13 12  9  4  5
  18415858.908   -13374687.326 6 -10305118.486 6
  18594564.752   -15742275.728 6 -12134070.346 6
  18029763.205   -29933569.377 6 -23091667.656 8
  16457818.963   -36025190.605 7 -27817819.850 6
  18098014.502   -19183827.900 6 -14844587.960 7
  17360148.775   -25569027.007 6 -19592547.617 8
  16956204.658   -28704026.420 7 -22145638.835 8
  19738991.650    -3303551.176 5  -2097973.815 5
 94  2  3  4 11 29.9860000  0  8 24  2  7 13 12  9  4  5
  18389825.979   -13511500.825 6 -10411726.411 6
  18598190.494   -15723220.953 6 -12119222.534 6
  18034749.299   -29907375.788 6 -23071257.100 8
  16452025.408   -36055637.268 7 -27841544.527 6
  18075948.346   -19299771.111 6 -14934933.327 7
  17343401.361   -25657041.144 6 -19661130.074 8
  16939805.635   -28790211.609 7 -22212796.120 8
  19715702.690    -3425977.078 5  -2193370.595 5
 94  2  3  4 11 59.9860000  0  8 24  2  7 13 12  9  4  5
  18363840.244   -13648061.121 6 -10518137.021 6
  18601860.775   -15703927.405 6 -12104188.639 6
  18039754.666   -29881064.316 6 -23050754.673 8
  16446323.049   -36085594.550 7 -27864887.852 6
  18053944.283   -19415419.270 6 -15025048.771 7
  17326740.565   -25744579.455 6 -19729341.739 8
  16923509.900   -28875851.569 7 -22279528.533 9
  19692399.486    -3548421.711 4  -2288781.950 5
 94  2  3  4 12 29.9860000  0  8 24  2  7 13 12  9  4  5
  18337898.775   -13784364.625 6 -10624347.536 6
  18605578.236   -15684389.979 6 -12088964.693 6
  18044783.065   -29854641.286 6 -23030165.314 8
  16440716.721   -36115066.427 7 -27887852.948 6
  18031992.729   -19530771.830 6 -15114933.876 7
  17310168.057   -25831661.293 6 -19797197.723 8
  16907315.596   -28960959.065 7 -22345846.051 9
  19669094.369    -3670876.476 5  -2384201.227 5
 94  2  3  4 12 59.9860000  0  8 24  2  7 13 12  9  4  5
  18312019.619   -13920383.114 6 -10730335.967 6
  18609346.135   -15664596.153 6 -12073540.979 6
  18049833.658   -29828098.481 6 -23009482.615 7
  16435201.541   -36144044.668 7 -27910433.395 6
  18010099.611   -19645816.445 6 -15204579.028 7
  17293689.369   -25918279.960 6 -19864692.795 8
  16891218.565   -29045529.133 7 -22411744.798 9
  19645796.057    -3793312.582 5  -2479605.951 5
 94  2  3  4 13 29.9860000  0  8 24  2  7 13 12  9  4  5
  18286189.572   -14056103.431 6 -10836092.060 6
  18613158.080   -15644557.744 6 -12057926.694 6
  18054910.096   -29801424.256 6 -22988697.510 7
  16429780.729   -36172534.428 7 -27932633.201 6
  17988267.190   -19760553.490 6 -15293984.510 7
  17277294.893   -26004418.898 6 -19931814.048 8
  16875231.549   -29129556.118 7 -22477220.351 9
  19622499.596    -3915731.864 5  -2574997.560 5
 94  2  3  4 13 59.9860000  0  8 24  2  7 13 12  9  4  5
  18260421.549   -14191522.366 6 -10941613.303 6
  18617018.541   -15624270.215 6 -12042118.270 6
  18060011.846   -29774612.085 6 -22967804.917 7
  16424450.885   -36200540.207 7 -27954455.888 6
  17966490.596   -19874983.447 6 -15383150.707 7
  17260998.424   -26090056.974 6 -19998545.022 8
  16859345.940   -29213034.017 6 -22542268.055 9
  19599208.377    -4038133.302 5  -2670375.268 5
 94  2  3  4 14 29.9860000  0  8 24  2  7 13 12  9  4  5
  18234713.174   -14326635.095 6 -11046895.948 6
  18620931.049   -15603724.700 6 -12026108.805 6
  18065142.088   -29747653.726 6 -22946798.414 7
  16419212.815   -36228063.255 7 -27975902.412 6
  17944773.690   -19989102.956 6 -15472074.997 7
  17244802.385   -26175176.470 6 -20064871.904 8
  16843564.393   -29295954.147 6 -22606881.129 9
  19575917.275    -4160525.598 5  -2765745.873 5
 94  2  3  4 14 59.9860000  0  8 24  2  7 13 12  9  4  5
  18209056.760   -14461442.788 6 -11151940.891 6
  18624888.205   -15582922.958 6 -12009899.693 6
  18070301.572   -29720542.698 6 -22925672.952 7
  16414067.729   -36255103.383 7 -27996972.635 6
  17923120.815   -20102907.535 6 -15560753.883 7
  17228705.557   -26259756.192 6 -20130778.187 8
  16827894.166   -29378312.522 6 -22671056.470 9
  19552627.377    -4282918.088 5  -2861116.623 5
 94  2  3  4 15 29.9860000  0  8 24  2  7 13 12  9  4  5
  18183463.846   -14595956.002 6 -11256756.368 6
  18628896.385   -15561864.070 5 -11993490.205 6
  18075488.955   -29693275.343 6 -22904425.674 7
  16409013.783   -36281660.616 7 -28017666.570 6
  17901523.455   -20216392.815 6 -15649183.967 7
  17212715.705   -26343791.788 6 -20196260.479 8
  16812326.377   -29460115.345 7 -22734798.921 9
  19529337.416    -4405311.208 5  -2956487.851 5
 94  2  3  4 15 59.9860000  0  8 24  2  7 13 12  9  4  5
  18157918.440   -14730194.804 6 -11361358.031 6
  18632951.713   -15540552.469 5 -11976883.810 6
  18080704.580   -29665873.439 6 -22883073.541 7
  16404050.799   -36307744.352 7 -28037991.561 6
  17879987.713   -20329563.530 6 -15737368.930 7
  17196821.908   -26427299.712 6 -20261331.586 8
  16796866.400   -29541369.414 6 -22798113.773 9
  19506043.424    -4527708.193 5  -3051862.103 5
 94  2  3  4 16 29.9860000  0  8 24  2  7 13 12  9  4  5
  18132419.119   -14864182.275 6 -11465763.843 6
  18637047.924   -15519012.552 5 -11960099.492 5
  18085939.518   -29638364.651 6 -22861638.118 7
  16399173.557   -36333370.047 7 -28057959.624 7
  17858509.760   -20442430.777 6 -15825317.435 7
  17181032.432   -26510299.878 7 -20326007.042 8
  16781504.002   -29622081.268 6 -22861006.110 9
  19482749.963    -4650127.798 5  -3147253.989 5
 94  2  3  4 16 59.9860000  0  8 24  2  7 13 12  9  4  5
  18106974.190   -14997903.751 6 -11569962.384 6
  18641191.197   -15497236.083 5 -11943130.843 6
  18091194.635   -29610753.862 6 -22840123.219 7
  16394386.940   -36358528.983 7 -28077563.974 6
  17837093.690   -20554981.482 6 -15913019.289 7
  17165330.143   -26592788.168 7 -20390283.640 8
  16766253.908   -29702240.487 6 -22923467.824 9
  19459451.682    -4772560.711 5  -3242656.243 5
 94  2  3  4 17 29.9860000  0  8 24  2  7 13 12  9  4  5
  18081576.830   -15131359.411 6 -11673953.802 7
  18645382.713   -15475221.579 5 -11925976.725 6
  18096463.650   -29583055.651 6 -22818540.207 7
  16389687.236   -36383221.850 7 -28096805.153 6
  17815733.150   -20667211.649 6 -16000471.369 7
  17149734.088   -26674768.283 7 -20454164.253 8
  16751104.596   -29781833.456 6 -22985488.308 9
  19436152.041    -4895012.880 5  -3338073.493 5
 94  2  3  4 17 59.9860000  0  8 24  2  7 13 12  9  4  5
  18056231.307   -15264554.491 6 -11777742.167 7
  18649616.190   -15452981.563 5 -11908646.878 6
  18101747.111   -29555293.483 6 -22796907.366 7
  16385075.322   -36407461.640 7 -28115693.284 6
  17794437.557   -20779129.951 6 -16087680.433 7
  17134227.533   -26756241.625 6 -20517649.979 8
  16736067.018   -29860862.316 6 -23047069.222 9
  19412842.963    -5017492.421 5  -3433512.088 5
 94  2  3  4 18 29.9860000  0  8 24  2  7 13 12  9  4  5
  18030941.025   -15397460.873 6 -11881305.569 7
  18653893.596   -15430501.020 5 -11891129.590 6
  18107045.604   -29527451.269 6 -22775212.139 7
  16380549.768   -36431241.012 7 -28134222.644 7
  17773201.549   -20890724.374 6 -16174637.124 7
  17118820.815   -26837204.870 6 -20580738.223 8
  16721132.783   -29939336.296 6 -23108217.768 9
  19389535.236    -5139978.424 5  -3528955.708 5
 94  2  3  4 18 59.9860000  0  8 24  2  7 13 12  9  4  5
  18005707.018   -15530052.787 6 -11984623.935 7
  18658217.252   -15407769.487 5 -11873416.755 5
  18112363.205   -29499512.660 6 -22753441.801 7
  16376113.205   -36454559.015 7 -28152392.511 7
  17752029.346   -21001989.757 6 -16261337.424 7
  17103512.307   -26917655.444 6 -20643426.994 8
  16706304.713   -30017262.326 6 -23168939.344 9
  19366228.307    -5262448.795 5  -3624387.152 5
 94  2  3  4 19 29.9860000  0  8 24  2  7 13 12  9  4  5
  17980541.690   -15662313.252 6 -12087684.029 7
  18662596.408   -15384774.213 5 -11855498.387 6
  18117696.752   -29471475.065 6 -22731594.326 7
  16371762.963   -36477413.763 7 -28170201.410 7
  17730919.900   -21112919.321 6 -16347776.037 7
  17088301.705   -26997581.041 6 -20705706.680 8
  16691584.275   -30094635.297 6 -23229229.958 9
  19342928.666    -5384878.964 5  -3719787.292 5
 94  2  3  4 19 59.9860000  0  8 24  2  7 13 12  9  4  5
  17955436.830   -15794225.608 6 -12190472.869 7
  18667021.205   -15361516.793 5 -11837375.766 5
  18123053.572   -29443325.099 6 -22709659.307 7
  16367501.697   -36499810.535 7 -28187653.433 7
  17709874.033   -21223513.840 6 -16433953.571 7
  17073193.275   -27076986.199 6 -20767580.832 8
  16676962.002   -30171464.307 6 -23289096.709 9
  19319645.088    -5507257.352 5  -3815147.043 5
 94  2  3  4 20 29.9860000  0  8 24  2  7 13 12  9  4  5
  17930407.729   -15925765.716 6 -12292971.644 7
  18671499.057   -15337982.130 5 -11819037.097 5
  18128435.385   -29415041.958 6 -22687620.509 7
  16363329.494   -36521735.903 7 -28204738.127 7
  17688895.635   -21333755.312 6 -16519856.016 7
  17058183.283   -27155862.024 6 -20829042.507 8
  16662449.299   -30247729.055 6 -23348523.766 9
  19296365.705    -5629590.475 5  -3910471.567 5
 94  2  3  4 20 59.9860000  0  8 24  2  7 13 12  9  4  5
  17905439.947   -16056974.468 6 -12395212.226 7
  18676027.916   -15314188.913 5 -11800496.956 5
  18133840.471   -29386645.820 6 -22665493.657 7
  16359242.080   -36543214.160 7 -28221474.422 7
  17667980.940   -21443663.717 6 -16605498.920 7
  17043272.502   -27234213.425 6 -20890095.565 8
  16648046.768   -30323419.478 6 -23407503.297 9
  19273087.541    -5751917.079 5  -4005790.988 5
 94  2  3  4 21 29.9860000  0  8 24  2  7 13 12  9  4  5
  17880537.252   -16187843.522 6 -12497188.098 7
  18680607.447   -15290110.379 5 -11781734.489 5
  18139268.979   -29358116.281 6 -22643262.851 7
  16355245.690   -36564215.443 7 -28237839.042 7
  17647135.760   -21553204.609 6 -16690855.455 7
  17028468.627   -27311998.970 6 -20950707.684 8
  16633760.127   -30398493.984 6 -23466002.899 9
  19249813.018    -5874219.778 5  -4101091.771 5
 94  2  3  4 21 59.9860000  0  8 24  2  7 13 12  9  4  5
  17855689.525   -16318406.740 6 -12598925.669 7
  18685241.080   -15265776.350 5 -11762772.927 5
  18144721.174   -29329459.183 6 -22620932.651 7
  16351336.424   -36584756.537 7 -28253845.083 7
  17626360.533   -21662389.908 7 -16775934.908 7
  17013772.174   -27389240.556 6 -21010895.941 8
  16619587.377   -30472967.781 6 -23524034.416 9
  19226540.338    -5996519.358 5  -4196390.144 5
 94  2  3  4 22 29.9860000  0  8 24  2  7 13 12  9  4  5
  17830898.158   -16448689.399 6 -12700444.611 7
  18689916.674   -15241197.400 5 -11743620.535 5
  18150195.775   -29300697.479 6 -22598520.956 7
  16347513.822   -36604846.153 7 -28269499.315 7
  17605647.572   -21771223.926 7 -16860740.633 7
  16999179.096   -27465938.197 6 -21070660.342 8
  16605527.979   -30546846.197 6 -23581601.996 9
  19203267.479    -6118819.138 5  -4291688.666 5
 94  2  3  4 22 59.9860000  0  8 24  2  7 13 12  9  4  5
  17806159.502   -16578689.948 6 -12801743.727 7
  18694640.565   -15216376.999 5 -11724279.986 5
  18155688.627   -29271825.346 6 -22576023.205 7
  16343775.986   -36624486.778 7 -28284803.687 6
  17585005.744   -21879704.427 7 -16945270.890 7
  16984689.221   -27542079.596 6 -21129991.306 8
  16591580.260   -30620144.193 6 -23638717.306 9
  19179998.486    -6241093.942 5  -4386967.717 5
 94  2  3  4 23 29.9860000  0  8 24  2  7 13 12  9  4  5
  17781479.338   -16708386.099 6 -12902805.652 7
  18699405.010   -15191330.150 5 -11704762.988 5
  18161201.830   -29242861.290 6 -22553453.816 7
  16340124.627   -36643681.936 7 -28299760.947 6
  17564431.877   -21987830.452 7 -17029524.934 7
  16970303.150   -27617670.197 6 -21188893.083 8
  16577739.369   -30692886.987 6 -23695399.988 9
  19156737.197    -6363330.979 5  -4482217.358 5
 94  2  3  4 23 59.9850000  0  8 24  2  7 13 12  9  4  5
  17756863.521   -16837738.812 6 -13003599.971 7
  18704216.724   -15166057.849 5 -11685070.319 5
  18166732.755   -29213797.785 6 -22530806.953 7
  16336556.294   -36662427.599 7 -28314367.963 7
  17543924.247   -22095590.335 7 -17113493.690 7
  16956022.247   -27692704.535 6 -21247361.409 8
  16564004.192   -30765073.158 6 -23751648.946 9
  19133489.763    -6485513.574 5  -4577424.564 5
 94  2  3  4 24 29.9850000  0  8 24  2  7 13 12  9  4  5
  17732316.138   -16966734.375 6 -13104115.976 7
  18709065.802   -15140555.746 5 -11665198.582 5
  18172279.294   -29184647.342 6 -22508092.323 7
  16333073.638   -36680733.503 7 -28328632.306 7
  17523483.825   -22202995.142 7 -17197185.739 7
  16941851.607   -27767189.488 6 -21305401.632 8
  16550368.638   -30836719.734 6 -23807477.428 9
  19110243.997    -6607662.048 5  -4672605.179 5
 94  2  3  4 24 59.9850000  0  8 24  2  7 13 12  9  4  5
  17707842.849   -17095349.280 6 -13204335.369 7
  18713967.450   -15114816.221 5 -11645141.860 5
  18177842.482   -29155410.903 6 -22485310.688 7
  16329673.513   -36698600.044 7 -28342554.288 7
  17503118.294   -22310037.693 7 -17280595.525 7
  16927779.810   -27841131.689 6 -21363018.939 8
  16536835.685   -30907821.563 6 -23862881.443 9
  19087006.122    -6729775.449 5  -4767758.452 5
 94  2  3  4 25 29.9850000  0  8 24  2  7 13 12  9  4  5
  17683438.419   -17223594.287 6 -13304266.534 7
  18718910.146   -15088850.746 5 -11624909.058 5
  18183418.567   -29126109.139 6 -22462478.152 7
  16326354.442   -36716037.551 7 -28356141.961 7
  17482814.450   -22416723.521 7 -17363727.337 7
  16913809.114   -27914559.977 6 -21420235.790 8
  16523410.482   -30978380.553 7 -23917862.458 9
  19063770.263    -6851873.527 5  -4862899.814 5
 94  2  3  4 25 59.9850000  0  8 24  2  7 13 12  9  4  5
  17659103.419   -17351470.224 6 -13403910.115 7
  18723897.357   -15062629.038 5 -11604476.577 5
  18189012.919   -29096707.113 6 -22439567.492 7
  16323121.630   -36733030.201 7 -28369382.980 7
  17462585.685   -22523032.336 7 -17446565.370 8
  16899935.817   -27987461.734 6 -21477042.352 8
  16510090.396   -31048370.253 7 -23972399.863 9
  19040540.989    -6973949.375 5  -4958023.821 5
 94  2  3  4 26 29.9850000  0  8 24  2  7 13 12  9  4  5
  17634836.286   -17479003.410 6 -13503286.612 7
  18728936.450   -15036146.130 5 -11583840.595 5
  18194625.263   -29067214.647 6 -22416586.354 7
  16319970.286   -36749590.146 7 -28382286.820 7
  17442425.646   -22628971.690 7 -17529115.516 8
  16886160.763   -28059845.333 6 -21533445.157 9
  16496880.153   -31117791.106 6 -24026494.021 9
  19017312.466    -7096019.310 5  -5053143.229 5
 94  2  3  4 26 59.9850000  0  8 24  2  7 13 12  9  4  5
  17610627.942   -17606215.537 6 -13602412.940 7
  18734024.364   -15009406.932 5 -11563004.919 5
  18200255.911   -29037626.420 6 -22393530.599 7
  16316901.208   -36765718.473 7 -28394854.334 6
  17422336.771   -22734537.785 7 -17611374.802 7
  16872487.185   -28131701.390 6 -21589436.901 9
  16483781.896   -31186629.815 6 -24080134.558 9
  18994084.677    -7218081.240 5  -5148256.395 5
 94  2  3  4 27 29.9850000  0  8 24  2  7 13 12  9  4  5
  17586478.732   -17733114.062 6 -13701294.892 7
  18739161.028   -14982416.951 5 -11541973.806 5
  18205905.692   -29007944.546 6 -22370401.897 7
  16313911.966   -36781422.208 7 -28407090.993 7
  17402317.528   -22839733.095 7 -17693345.171 8
  16858915.864   -28203017.799 6 -21645008.132 9
  16470794.849   -31254883.840 7 -24133319.497 9
  18970859.060    -7340138.180 5  -5243365.679 5
 94  2  3  4 27 59.9850000  0  8 24  2  7 13 12  9  4  5
  17562396.567   -17859675.184 6 -13799913.936 7
  18744349.325   -14955156.178 5 -11520731.656 5
  18211572.646   -28978157.401 6 -22347191.146 7
  16311006.044   -36796694.404 7 -28418991.401 7
  17382372.919   -22944545.922 7 -17775017.494 8
  16845453.575   -28273765.354 6 -21700136.113 9
  16457920.192   -31322530.910 7 -24186031.488 9
  18947636.325    -7462174.723 5  -5338459.082 5
 94  2  3  4 28 29.9850000  0  8 24  2  7 13 12  9  4  5
  17538381.739   -17985882.075 6 -13898256.960 7
  18749582.161   -14927644.026 5 -11499293.649 5
  18217257.591   -28948282.016 6 -22323911.624 6
  16308179.833   -36811543.543 7 -28430562.145 7
  17362500.036   -23048980.229 7 -17856394.872 8
  16832098.521   -28343946.252 6 -21754822.536 9
  16445161.302   -31389579.864 7 -24238277.415 9
  18924412.833    -7584193.364 5  -5433538.532 5
 94  2  3  4 28 59.9850000  0  8 24  2  7 13 12  9  4  5
  17514432.997   -18111719.330 6 -13996311.950 7
  18754866.247   -14899891.683 5 -11477668.490 5
  18222960.028   -28918317.801 6 -22300562.888 6
  16305435.161   -36825965.440 7 -28441799.987 7
  17342699.888   -23153027.029 7 -17937470.304 8
  16818853.388   -28413555.708 6 -21809063.681 9
  16432513.708   -31456041.363 7 -24290065.585 9
  18901203.927    -7706185.267 5  -5528597.137 5
 94  2  3  4 29 29.9850000  0  8 24  2  7 13 12  9  4  5
  17490555.122   -18237199.906 6 -14094089.013 7
  18760189.841   -14871922.876 5 -11455874.675 5
  18228672.169   -28888301.724 6 -22277173.737 6
  16302767.005   -36839996.367 7 -28452733.177 7
  17322969.989   -23256717.943 7 -18018268.423 8
  16805708.294   -28482631.366 6 -21862888.869 9
  16419966.810   -31521966.384 7 -24341435.719 9
  18877987.021    -7828182.645 5  -5623660.025 5
 94  2  3  4 29 59.9850000  0  8 24  2  7 13 12  9  4  5
  17466746.896   -18362307.117 6 -14191575.137 7
  18765556.997   -14843719.878 5 -11433898.338 5
  18234401.435   -28858200.800 6 -22253718.484 7
  16300175.536   -36853612.543 7 -28463343.170 7
  17303309.692   -23360024.394 7 -18098766.951 8
  16792669.232   -28551155.682 6 -21916284.444 9
  16407528.833   -31587338.559 7 -24392375.068 9
  18854774.708    -7950170.766 5  -5718715.692 6
 94  2  3  4 30 29.9850000  0  8 24  2  7 13 12  9  4  5
  17443016.778   -18487044.278 6 -14288772.908 7
  18770965.013   -14815282.999 5 -11411739.792 5
  18240144.325   -28828011.217 6 -22230194.141 7
  16297662.708   -36866811.197 7 -28473627.832 7
  17283728.013   -23462939.009 7 -18178960.154 8
  16779733.653   -28619129.957 6 -21969251.419 9
  16395188.263   -31652162.181 6 -24442886.972 9
  18831561.192    -8072142.775 5  -5813758.801 6
 94  2  3  4 30 59.9850000  0  8 24  2  7 13 12  9  4  5
  17419346.271   -18611418.043 6 -14385687.515 7
  18776424.044   -14786599.297 5 -11389388.893 5
  18245905.372   -28797733.047 6 -22206600.767 7
  16295230.982   -36879594.413 7 -28483588.777 7
  17264217.153   -23565459.300 7 -18258846.094 8
  16766903.310   -28686549.177 6 -22021785.883 9
  16382964.646   -31716420.252 6 -24492958.188 9
  18808357.224    -8194083.160 5  -5908777.276 6
 94  2  3  4 31 29.9850000  0  8 24  2  7 13 12  9  4  5
  17395747.107   -18735425.776 6 -14482316.901 7
  18781932.489   -14757655.158 5 -11366835.061 5
  18251685.325   -28767364.547 6 -22182937.008 6
  16292877.989   -36891961.416 7 -28493225.404 7
  17244782.849   -23667579.734 7 -18338420.449 8
  16754178.794   -28753410.970 6 -22073885.985 9
  16370849.607   -31780082.185 7 -24542564.877 9
  18785160.966    -8315976.784 5  -6003759.314 6
 94  2  3  4 31 59.9850000  0  8 24  2  7 13 12  9  4  5
  17372216.575   -18859072.184 6 -14578664.731 7
  18787485.388   -14728467.376 5 -11344091.367 5
  18257479.849   -28736908.950 6 -22159205.378 6
  16290602.552   -36903918.666 7 -28502542.739 7
  17225428.114   -23769301.921 7 -18417684.479 8
  16741560.419   -28819721.358 6 -22125556.426 9
  16358852.505   -31843134.612 7 -24591696.622 9
  18761976.325    -8437824.412 5  -6098705.499 5
 94  2  3  4 32 29.9850000  0  8 24  2  7 13 12  9  4  5
  17348758.286   -18982345.239 6 -14674721.641 7
  18793086.942   -14699030.926 5 -11321153.900 5
  18263289.146   -28706386.374 6 -22135421.560 7
  16288402.872   -36915472.788 7 -28511545.946 7
  17206145.817   -23870627.895 7 -18496639.775 8
  16729044.239   -28885486.007 6 -22176801.615 9
  16346972.872   -31905572.615 6 -24640349.601 9
  18738800.239    -8559616.393 5  -6193608.354 6
 94  2  3  4 32 59.9850000  0  8 24  2  7 13 12  9  4  5
  17325374.661   -19105235.013 6 -14770479.890 7
  18798739.989   -14669336.602 5 -11298015.488 5
  18269111.317   -28675796.828 6 -22111585.570 6
  16286283.505   -36926617.107 7 -28520229.824 7
  17186940.950   -23971546.286 7 -18575277.479 8
  16716637.036   -28950695.453 6 -22227614.176 9
  16335208.966   -31967388.827 7 -24688518.066 9
  18715634.919    -8681345.310 5  -6288462.045 6
 94  2  3  4 33 29.9850000  0  8 24  2  7 13 12  9  4  5
  17302060.208   -19227750.380 6 -14865946.393 7
  18804432.208   -14639405.184 5 -11274692.350 5
  18274939.497   -28645161.583 6 -22087713.965 6
  16284236.825   -36937370.764 7 -28528609.288 7
  17167810.747   -24072071.711 7 -18653608.979 8
  16704332.021   -29015365.650 6 -22278006.541 9
  16323555.411   -32028621.912 7 -24736232.145 9
  18692475.044    -8803050.639 5  -6383297.365 6
 94  2  3  4 33 59.9850000  0  8 24  2  7 13 12  9  4  5
  17278818.075   -19349878.367 6 -14961111.047 7
  18810180.013   -14609221.422 5 -11251172.555 5
  18280780.732   -28614465.448 6 -22063794.905 6
  16282267.060   -36947717.942 7 -28536672.015 7
  17148764.317   -24172183.443 7 -18731618.119 8
  16692132.466   -29079467.378 6 -22327955.939 9
  16312015.083   -32089266.805 7 -24783487.889 9
  18669319.669    -8924721.739 5  -6478106.023 6
 94  2  3  4 34 29.9850000  0  8 24  2  7 13 12  9  4  5
  17255651.403   -19471633.561 6
  18815970.122   -14578776.980 5 -11227449.637 5
  18286630.982   -28583726.062 6 -22039842.149 6
  16280373.927   -36957667.443 7 -28544424.866 7
  17129788.411   -24271885.632 7 -18809308.137 8
  16680042.661   -29143001.249 6 -22377462.855 9
  16300585.482   -32149341.072 7 -24830298.998 9
  18646175.935    -9046353.876 5
 94  2  3  4 34 59.9850000  0  8 24  2  7 13 12  9  4  5
  17232554.841   -19593011.985 6 -15150565.777 7
  18821811.794   -14548081.404 5
  18292492.200   -28552924.917 6
  16278557.575   -36967217.747 7 -28551866.653 7
  17110894.138   -24371172.008 7 -18886674.138 8
  16668063.497   -29205948.561 6 -22426512.705 9
  16289260.216   -32208855.036 7 -24876673.503 9
  18623034.989    -9167952.537 5  -6667636.513 6
 94  2  3  4 35 29.9850000  0  8 24  2  7 13 12  9  4  5
  17209523.724   -19714028.740 6 -15244864.540 7
  18827701.208   -14517154.641 5
  18298365.333   -28522059.253 6
  16276811.497   -36976385.745 7 -28559010.550 7
  17092079.208   -24470054.738 7 -18963725.619 8
  16656196.896   -29268314.447 6 -22475109.502 9
  16278039.357   -32267817.504 7 -24922618.268 9
  18599902.575    -9289533.165 5  -6762374.653 6
 94  2  3  4 35 59.9850000  0  8 24  2  7 13 12  9  4  5
  17186565.802   -19834685.022 6 -15338882.417 7
  18833627.005   -14486000.817 5 -11155156.608 5
  18304254.591   -28491113.922 6 -21967676.889 6
  16275140.161   -36985168.034 7 -28565853.886 7
  17073339.810   -24568525.800 7 -19040456.307 8
  16644440.646   -29330099.995 6 -22523254.091 9
  16266924.989   -32326211.911 7 -24968120.387 9
  18576771.435    -9411074.031 5  -6857081.829 6
 94  2  3  4 36 29.9850000  0  8 24  2  7 13 12  9  4  5
  17163676.271   -19954957.665 6 -15432601.344 7
  18839598.692   -14454619.845 5 -11130703.924 5
  18310160.927   -28460083.889 6 -21943497.654 6
  16273542.919   -36993566.098 7 -28572397.837 7
  17054678.935   -24666581.827 7 -19116863.602 8
  16632789.442   -29391322.073 6 -22570959.611 9
  16255922.708   -32384037.741 7 -25013179.465 9
  18553651.208    -9532574.930 5  -6951757.851 6
 94  2  3  4 36 59.9850000  0  8 24  2  7 13 12  9  4  5
  17140866.474   -20074831.532 6 -15526009.546 8
  18845609.896   -14423011.879 5 -11106074.365 5
  18316084.966   -28428945.839 6 -21919234.249 6
  16272019.435   -37001570.791 7 -28578635.262 7
  17036102.497   -24764209.189 7 -19192936.868 8
  16621246.857   -29451976.051 6 -22618222.453 9
  16245032.442   -32441267.941 7 -25057774.413 9
  18530536.974    -9654035.148 5  -7046402.176 6
 94  2  3  4 37 29.9850000  0  8 24  2  7 13 12  9  4  5
  17118128.544   -20194317.675 6 -15619115.617 8
  18851670.372   -14391172.683 5 -11081264.632 5
  18322025.716   -28397724.947 6 -21894906.298 6
  16270569.857   -37009190.935 7 -28584573.040 7
  17017605.841   -24861411.747 7 -19268679.116 8
  16609807.349   -29512091.858 6 -22665065.947 9
  16234257.067   -32497893.110 7 -25101897.912 9
  18507433.044    -9775444.478 5  -7141006.850 6
 94  2  3  4 37 59.9850000  0  8 24  2  7 13 12  9  4  5
  17095466.255   -20313409.591 6 -15711914.501 8
  18857775.052   -14359102.962 5 -11056275.255 5
  18327980.122   -28366444.625 6 -21870532.019 6
  16269190.232   -37016434.854 7 -28590217.656 7
  16999189.122   -24958193.417 7 -19344093.410 8
  16598466.357   -29571688.272 6 -22711504.713 9
  16223594.255   -32553917.474 7 -25145553.249 9
  18484341.841    -9896798.696 5  -7235568.566 6
 94  2  3  4 38 29.9850000  0  8 24  2  7 13 12  9  4  5
  17072880.482   -20432100.834 6 -15804401.172 8
  18863926.286   -14326788.027 5 -11031094.829 5
  18333939.466   -28335121.698 6 -21846124.558 6
  16267883.403   -37023303.949 7 -28595570.201 7
  16980852.919   -25054550.794 7 -19419177.072 8
  16587226.286   -29630746.150 6 -22757523.847 9
  16213051.927   -32609329.607 7 -25188731.525 9
  18461256.302   -10018103.612 5  -7330091.875 6
 94  2  3  4 38 59.9850000  0  8 24  2  7 13 12  9  4  5
  17050370.185   -20550390.022 6 -15896574.550 8
  18870119.497   -14294226.038 5 -11005721.875 5
  18339906.880   -28303752.091 6 -21821680.717 6
  16266650.325   -37029790.032 7 -28600624.289 7
  16962598.833   -25150470.999 7 -19493920.089 8
  16576098.630   -29689233.657 6 -22803098.534 9
  16202624.388   -32664119.223 7 -25231424.721 9
  18438187.888   -10139343.326 5  -7424564.394 6
 94  2  3  4 39 29.9850000  0  8 24  2  7 13 12  9  4  5
  17027938.732   -20668265.170 6 -15988425.301 8
  18876363.638   -14261414.489 5 -10980154.454 5
  18345885.794   -28272341.062 6 -21797204.596 6
  16265486.325   -37035892.820 7 -28605379.706 7
  16944431.357   -25245949.026 7 -19568318.551 8
  16565081.005   -29747131.020 6 -22848213.360 9
  16192315.317   -32718293.965 7 -25273638.797 9
  18415128.552   -10260513.975 5  -7518983.069 6
 94  2  3  4 39 59.9850000  0  8 24  2  7 13 12  9  4  5
  17005589.552   -20785720.806 6 -16079949.168 8
  18882652.935   -14228365.863 5 -10954402.306 5
  18351870.403   -28240885.743 6 -21772693.957 6
  16264397.482   -37041626.514 7 -28609847.513 7
  16926343.778   -25340994.403 7 -19642379.885 8
  16554176.685   -29804427.045 6 -22892859.627 9
  16182121.560   -32771871.855 7 -25315387.788 9
  18392078.474   -10381644.054 5  -7613370.141 6
 94  2  3  4 40 29.9850000  0  8 24  2  7 13 12  9  4  5
  16983318.232   -20902751.132 6 -16171141.621 8
  18888989.364   -14195073.071 5 -10928459.913 5
  18357870.060   -28209367.137 6 -21748134.001 6
  16263376.778   -37046984.716 7 -28614022.730 7
  16908343.552   -25435596.193 7 -19716095.562 8
  16543391.997   -29861106.865 6 -22937025.730 9
  16172035.778   -32824863.326 7 -25356679.834 9
  18369038.263   -10502726.371 5  -7707719.997 6
 94  2  3  4 40 59.9850000  0  8 24  2  7 13 12  9  4  5
  16961130.692   -21019363.556 6 -16262008.450 8
  18895363.200   -14161546.700 5 -10902335.506 5
  18363880.669   -28177776.471 6 -21723517.908 6
  16262427.630   -37051976.265 7 -28617912.248 7
  16890423.216   -25529758.455 7 -19789468.756 8
  16532717.825   -29917196.075 6 -22980731.617 9
  16162060.708   -32877292.166 7 -25397533.465 9
  18346004.880   -10623755.396 5  -7802028.319 6
 94  2  3  4 41 29.9850000  0  8 24  2  7 13 12  9  4  5
  16939015.138   -21135564.413 6 -16352554.567 8
  18901792.489   -14127777.058 5 -10876021.529 5
  18369905.567   -28146114.684 6 -21698846.399 6
  16261547.075   -37056607.786 7 -28621521.219 7
  16872588.169   -25623483.100 7 -19862500.943 8
  16522155.692   -29972712.366 6 -23023991.075 9
  16152187.747   -32929163.718 7 -25437952.848 9
  18322985.716   -10744731.458 5  -7896295.383 6
 94  2  3  4 41 59.9850000  0  8 24  2  7 13 12  9  4  5
  16916982.630   -21251341.169 6 -16442770.214 8
  18908269.357   -14093751.213 5 -10849507.929 4
  18375944.528   -28114374.794 6 -21674114.024 6
  16260736.192   -37060868.707 7 -28624841.421 7
  16854837.802   -25716754.996 7 -19935180.342 8
  16511697.560   -30027663.332 6 -23066810.018 9
  16142426.114   -32980460.651 7 -25477924.476 9
  18299979.232   -10865640.423 5  -7990510.142 6
 94  2  3  4 42 29.9840000  0  8 24  2  7 13 12  9  4  5
  16895029.633   -21366719.591 6 -16532675.462 8
  18914790.750   -14059479.881 5 -10822803.020 4
  18381994.899   -28082578.526 6 -21649337.732 6
  16259992.813   -37064768.599 7 -28627880.291 7
  16837174.602   -25809576.045 7 -20007508.439 8
  16501344.063   -30082059.993 6 -23109197.030 9
  16132775.563   -33031183.951 7 -25517449.115 9
  18276981.188   -10986474.715 5  -8084666.730 6
 94  2  3  4 42 59.9840000  0  8 24  2  7 13 12  9  4  5
  16873143.219   -21481711.928 6 -16622279.871 8
  18921358.625   -14024967.121 5 -10795909.985 5
  18388055.883   -28050740.301 6 -21624528.734 6
  16259318.195   -37068315.672 7 -28630644.236 7
  16819597.758   -25901955.766 7 -20079492.639 8
  16491100.024   -30135910.837 6 -23151158.727 9
  16123232.461   -33081318.936 7 -25556515.330 9
  18253998.227   -11107259.925 5  -8178785.070 6
 94  2  3  4 43 29.9840000  0  8 24  2  7 13 12  9  4  5
  16851342.688   -21596288.069 6 -16711559.976 8
  18927974.883   -13990204.863 5 -10768822.533 5
  18394120.453   -28018860.983 6 -21599687.720 6
  16258713.547   -37071498.539 7 -28633124.380 7
  16802102.531   -25993875.253 7 -20151118.206 8
  16480959.039   -30189189.344 6 -23192674.457 9
  16113813.383   -33130833.889 7 -25595098.396 9
  18231022.352   -11227993.438 5  -8272863.123 6
 94  2  3  4 43 59.9840000  0  8 24  2  7 13 12  9  4  5
  16829619.086   -21710452.417 6 -16800519.196 8
  18934634.477   -13955200.009 5 -10741546.059 4
  18400194.609   -27986952.808 6 -21574824.212 6
  16258175.156   -37074330.775 7 -28635331.303 7
  16784698.734   -26085343.328 7 -20222392.027 8
  16470930.516   -30241899.197 6 -23233747.075 9
  16104504.367   -33179741.506 7 -25633208.227 9
  18208052.109   -11348699.065 5  -8366919.460 6
 94  2  3  4 44 29.9840000  0  8 24  2  7 13 12  9  4  5
  16807972.430   -21824201.502 6 -16889154.835 8
  18941340.172   -13919946.677 5 -10714075.954 4
  18406272.766   -27955004.642 6 -21549929.544 6
  16257702.672   -37076812.821 7 -28637265.351 7
  16767381.352   -26176355.872 7 -20293310.886 8
  16461007.649   -30294028.301 6 -23274367.160 9
  16095311.484   -33228049.502 7 -25670850.788 9
  18185091.734   -11469370.607 6  -8460949.223 6
 94  2  3  4 44 59.9840000  0  8 24  2  7 13 12  9  4  5
  16786407.703   -21937507.706 6 -16977445.375 8
  18948094.774   -13884456.513 5 -10686421.303 4
  18412359.859   -27923012.807 6 -21525000.842 6
  16257296.453   -37078945.283 7 -28638926.994 7
  16750149.086   -26266908.798 7 -20363871.610 8
  16451200.258   -30345579.026 6 -23314536.566 9
  16086233.734   -33275756.889 7 -25708025.386 9
  18162135.117   -11590002.814 6  -8554948.370 6
 94  2  3  4 45 29.9840000  0  8 24  2  7 13 12  9  4  5
  16764932.766   -22050369.814 6 -17065389.862 8
  18954894.555   -13848735.418 5 -10658586.708 5
  18418456.766   -27890968.504 6 -21500031.273 6
  16256958.336   -37080728.539 7 -28640316.550 7
  16733003.938   -26356997.752 7 -20434070.793 8
  16441501.602   -30396540.708 6 -23354246.966 9
  16077267.844   -33322878.797 7 -25744743.745 9
  18139191.602   -11710574.995 6  -8648900.694 6
 94  2  3  4 45 59.9840000  0  8 24  2  7 13 12  9  4  5
  16743542.117   -22162786.196 6 -17152987.025 8
  18961734.930   -13812789.444 5 -10630576.876 5
  18424570.930   -27858848.983 6 -21475003.088 6
  16256682.977   -37082160.442 7 -28641432.326 7
  16715949.313   -26446616.303 7 -20503903.433 8
  16431915.836   -30446913.251 6 -23393498.309 9
  16068409.586   -33369422.339 7 -25781011.426 9
  18116264.180   -11831064.563 6  -8742788.662 6
 94  2  3  4 46 29.9840000  0  8 24  2  7 13 12  9  4  5
  16722233.992   -22274765.909 6 -17240243.936 8
  18968611.156   -13776655.547 5 -10602420.626 5
  18430696.649   -27826666.967 6 -21449926.207 6
  16256475.352   -37083253.183 7 -28642283.810 7
  16698983.711   -26535771.763 7 -20573375.213 8
  16422438.789   -30496716.090 6 -23432305.724 9
  16059664.789   -33415385.391 7 -25816826.783 9
  18093351.719   -11951466.218 6  -8836608.131 6
 94  2  3  4 46 59.9840000  0  8 24  2  7 13 12  9  4  5
  16701006.352   -22386309.453 6 -17327160.956 8
  18975519.625   -13740338.134 5 -10574121.372 5
  18436827.438   -27794431.642 6 -21424807.775 6
  16256332.188   -37084010.790 7 -28642874.149 7
  16682108.617   -26624463.733 7 -20642485.842 8
  16413072.539   -30545942.700 6 -23470664.128 9
  16051028.422   -33460762.659 7 -25852185.681 9
  18070456.695   -12071780.027 6  -8930359.142 6
 94  2  3  4 47 29.9840000  0  8 24  2  7 13 12  9  4  5
  16679861.219   -22497425.389 6 -17413744.792 8
  18982472.586   -13703813.702 5 -10545660.804 5
  18442974.125   -27762132.141 6 -21399639.337 6
  16256250.438   -37084434.931 7
  16665321.391   -26712689.077 7 -20711232.853 8
  16403812.250   -30594592.917 6 -23508573.395 9
  16042505.063   -33505555.107 7 -25887088.884 9
  18047576.203   -12192009.709 6  -9024044.601 6
 94  2  3  4 47 59.9840000  0  8 24  2  7 13 12  9  4  5
  16658799.039   -22608106.571 6 -17499989.860 8
  18989464.102   -13667063.605 4 -10517024.376 4
  18449131.234   -27729772.786 6 -21374424.267 6
  16256235.570   -37084522.328 7
  16648621.609   -26800440.347 7 -20779610.457 8
  16394668.781   -30642666.259 6 -23546033.152 9
  16034093.703   -33549752.567 7 -25921528.455 9
  18024710.906   -12312168.492 6  -9117674.821 6
 94  2  3  4 48 29.9840000  0  8 24  2  7 13 12  9  4  5
  16637818.445   -22718360.179 6 -17585901.751 8
  18996505.008   -13630073.630 5 -10488201.016 5
  18455294.313   -27697385.134 6 -21349187.157 6
  16256278.906   -37084280.308 7
  16632012.172   -26887719.953 7 -20847620.534 8
  16385627.297   -30690159.814 6 -23583041.135 9
  16025797.063   -33593360.144 7 -25955508.375 9
  18001858.266   -12432261.506 6  -9211253.790 6
 94  2  3  4 48 59.9840000  0  8 24  2  7 13 12  9  4  5
  16616919.766   -22828182.126 6 -17671477.286 8
  19003592.133   -13592827.279 5 -10459177.902 4
  18461464.320   -27664969.304 6 -21323928.081 6
  16256387.813   -37083710.363 7 -28642640.107 7
  16615493.492   -26974525.150 7 -20915260.949 8
  16376704.391   -30737064.165 6 -23619589.983 9
  16017606.953   -33636390.281 7 -25989038.339 9
  17979018.820   -12552284.968 6  -9304778.549 6
 94  2  3  4 49 29.9840000  0  8 24  2  7 13 12  9  4  5
  16596103.992   -22937567.125 6 -17756712.339 8
  19010728.805   -13555319.256 5 -10429950.893 5
  18467639.313   -27632526.279 6 -21298647.804 6
  16256561.414   -37082807.976 7 -28641936.956 7
  16599066.641   -27060846.787 7 -20982524.565 8
  16367887.156   -30783380.812 6 -23655680.884 9
  16009531.633   -33678839.091 7 -26022115.322 9
  17956195.281   -12672228.973 6  -9398241.418 6
 94  2  3  4 49 59.9840000  0  8 24  2  7 13 12  9  4  5
  16575372.149   -23046515.710 6 -17841607.324 8
  19017913.219   -13517569.777 4 -10400535.723 5
  18473816.000   -27600076.821 6 -21273362.526 6
  16256792.172   -37081583.245 7 -28640982.629 7
  16582731.688   -27146690.282 7 -21049415.593 8
  16359186.719   -30829117.355 6 -23691319.757 9
  16001559.461   -33720716.341 7 -26054746.938 9
  17933383.586   -12792096.929 6  -9491645.014 6
 94  2  3  4 50 29.9840000  0  8 24  2  7 13 12  9  4  5
  16554727.531   -23155008.227 6 -17926146.932 8
  19025144.602   -13479572.729 4 -10370927.635 5
  18479993.555   -27567602.159 6 -21248057.592 6
  16257085.797   -37080031.689 7 -28639773.633 7
  16566489.508   -27232046.804 7 -21115927.166 8
  16350591.695   -30874274.597 6 -23726507.218 9
  15993706.313   -33762002.699 7 -26086918.118 9
  17910591.922   -12911862.656 6  -9584968.956 6
 94  2  3  4 50 59.9840000  0  8 24  2  7 13 12  9  4  5
  16534166.195   -23263055.144 6 -18010339.322 8
  19032418.078   -13441346.237 4 -10341140.778 4
  18486179.453   -27535097.292 5 -21222729.140 6
  16257444.039   -37078169.788 7 -28638322.802 7
  16550335.883   -27316928.412 7 -21182068.678 8
  16342108.422   -30918866.686 6 -23761254.308 9
  15985959.742   -33802700.005 7 -26118630.300 9
  17887820.430   -13031547.496 6  -9678229.860 6
 94  2  3  4 51 29.9840000  0  8 24  2  7 13 12  9  4  5
  16513694.992   -23370630.834 6 -18094164.539 8
  19039739.274   -13402862.372 4 -10311153.355 3
  18492376.469   -27502530.571 6 -21197352.485 6
  16257858.555   -37075976.310 7 -28636613.605 7
  16534279.078   -27401309.439 7 -21247820.129 8
  16333731.797   -30962864.931 6 -23795538.666 9
  15978332.828   -33842786.358 7 -26149866.410 9
  17865059.820   -13151143.385 6  -9771421.454 6
 94  2  3  4 51 59.9840000  0  8 24  2  7 13 12  9  4  5
  16493314.758   -23477722.248 6 -18177612.372 8
  19047113.477   -13364119.551 4 -10280964.197 4
  18498583.906   -27469891.959 6 -21171919.804 6
  16258341.508   -37073453.346 7 -28634647.656 7
  16518318.742   -27485187.064 7 -21313179.322 8
  16325475.445   -31006271.292 6 -23829361.817 9
  15970818.641   -33882258.476 7 -26180623.898 9
  17842317.406   -13270654.140 6  -9864546.710 6
 94  2  3  4 52 29.9840000  0  8 24  2  7 13 12  9  4  5
  16473026.180   -23584345.889 6 -18260695.716 8
  19054533.828   -13325124.400 4 -10250578.403 4
  18504810.508   -27437183.318 6 -21146432.557 5
  16258882.242   -37070606.809 7 -28632429.564 7
  16502450.742   -27568563.259 7 -21378147.782 8
  16317327.524   -31049084.290 6 -23862722.603 9
  15963424.617   -33921121.427 7 -26210906.716 9
  17819591.672   -13390079.371 6  -9957605.322 6
 94  2  3  4 52 59.9840000  0  8 24  2  7 13 12  9  4  5
  16452826.953   -23690508.623 6 -18343419.911 8
  19061997.734   -13285894.162 4 -10220009.399 4
  18511047.055   -27404416.046 6 -21120899.624 6
  16259486.547   -37067439.395 7 -28629961.438 7
  16486681.524   -27651436.014 7 -21442723.952 8
  16309292.977   -31091305.971 6 -23895622.619 9
  15956139.328   -33959399.985 7 -26240734.155 9
  17796880.430   -13509431.344 6 -10050606.858 6
 94  2  3  4 53 29.9840000  0  8 24  2  7 13 12  9  4  5
  16432710.313   -23796223.140 6 -18425794.840 8
  19069504.836   -13246458.576 4 -10189280.383 3
  18517287.492   -27371622.098 5 -21095345.906 6
  16260144.250   -37063973.939 7 -28627261.070 7
  16471003.445   -27733823.778 7 -21506922.215 8
  16301363.359   -31132975.144 6 -23928092.130 9
  15948961.938   -33997127.762 7 -26270132.411 9
  17774178.149   -13628728.633 6 -10143565.757 6
 94  2  3  4 53 59.9840000  0  8 24  2  7 13 12  9  4  5
  16412678.031   -23901484.493 6 -18507816.663 8
  19077051.313   -13206819.360 4 -10158392.725 4
  18523532.500   -27338799.809 5 -21069770.109 6
  16260860.274   -37060207.138 7 -28624325.890 7
  16455419.508   -27815718.922 7 -21570736.610 8
  16293537.805   -31174090.467 6 -23960130.065 9
  15941888.086   -34034290.905 7 -26299090.693 9
  17751490.188   -13747951.119 6 -10236466.376 6
 94  2  3  4 54 29.9840000  0  8 24  2  7 13 12  9  4  5
  16392731.953   -24006296.633 6 -18589488.437 8
  19084632.063   -13166975.486 4 -10127345.592 4
  18529782.742   -27305950.165 5 -21044172.992 6
  16261634.563   -37056137.123 7 -28621154.439 7
  16439930.031   -27897114.937 7 -21634162.069 8
  16285825.805   -31214632.513 6 -23991721.280 8
  15934922.578   -34070895.216 7 -26327613.526 9
  17728820.539   -13867088.777 6 -10329300.905 6
 94  2  3  4 54 59.9840000  0  8 24  2  7 13 12  9  4  5
  16372876.586   -24110640.784 6 -18670795.548 8
  19092255.117   -13126915.396 4 -10096129.957 3
  18536041.086   -27273070.694 5 -21018552.648 6
  16262468.219   -37051764.350 7 -28617747.068 7
  16424538.149   -27978008.120 7 -21697195.705 8
  16278216.867   -31254590.040 6 -24022857.028 8
  15928064.977   -34106937.994 7 -26355698.798 9
  17706165.961   -13986139.702 6 -10422067.847 6
 94  2  3  4 55 29.9840000  0  8 24  2  7 13 12  9  4  5
  16353111.227   -24214508.644 6 -18751731.527 8
  19099922.781   -13086613.320 4 -10064725.734 3
  18542304.477   -27240155.874 5 -20992904.750 6
  16263359.836   -37047080.842 7 -28614097.569 7
  16409241.328   -28058386.063 7 -21759827.865 8
  16270736.867   -31293933.386 6 -24053514.194 8
  15921318.617   -34142388.789 7 -26383322.781 9
  17683530.156   -14105083.172 6 -10514751.066 7
 94  2  3  4 55 59.9840000  0  8 24  2  7 13 12  9  4  5
  16333435.289   -24317923.220 6 -18832314.299 8
  19107636.984   -13046081.046 4 -10033142.180 5
  18548570.289   -27207219.623 5 -20967240.137 5
  16264306.492   -37042101.599 7 -28610217.648 7
  16394040.859   -28138259.507 7 -21822066.910 8
  16263364.406   -31332654.893 6 -24083686.811 9
  15914683.297   -34177260.034 7 -26410495.168 9
  17660918.492   -14223916.925 6 -10607348.755 6
 94  2  3  4 56 29.9840000  0  8 24  2  7 13 12  9  4  5
  16313840.461   -24420874.054 6 -18912535.718 8
  19115391.172   -13005310.674 3 -10001373.092 4
  18554844.250   -27174257.152 5 -20941555.099 5
  16265312.188   -37036818.826 7 -28606101.207 7
  16378942.008   -28217616.147 7 -21883903.264 8
  16256114.992   -31370754.243 6 -24113374.630 9
  15908160.930   -34211538.295 7 -26437205.497 9
  17638326.289   -14342635.241 6 -10699856.525 6
 94  2  3  4 56 59.9840000  0  8 24  2  7 13 12  9  4  5
  16294340.617   -24523348.252 6 -18992385.731 8
  19123193.750   -12964301.845 3  -9969418.170 2
  18561123.508   -27141264.413 5 -20915846.478 5
  16266376.719   -37031231.275 7 -28601747.267 7
  16363939.625   -28296450.722 7 -21945332.799 8
  16248976.016   -31408258.540 6 -24142598.770 9
  15901753.125   -34245206.715 7 -26463440.615 9
  17615756.406   -14461243.590 6 -10792278.591 6
 94  2  3  4 57 29.9840000  0  8 24  2  7 13 12  9  4  5
  16274927.281   -24625368.508 6 -19071882.021 9
  19131037.008   -12923082.897 3  -9937299.536 4
  18567404.852   -27108255.700 5 -20890125.399 5
  16267493.406   -37025361.768 7 -28597173.624 7
  16349032.024   -28374781.332 7 -22006369.645 8
  16241946.734   -31445213.586 6 -24171394.931 9
  15895457.500   -34278289.733 7 -26489219.585 9
  17593201.781   -14579763.355 6 -10884631.651 6
 94  2  3  4 57 59.9840000  0  8 24  2  7 13 12  9  4  5
  16255605.063   -24726903.666 6 -19151000.319 9
  19138930.680   -12881636.950 3  -9905004.000 2
  18573694.086   -27075197.244 5 -20864365.577 5
  16268664.063   -37019192.149 7 -28592366.131 7
  16334229.133   -28452585.773 7 -22066996.480 8
  16235019.188   -31481613.980 6 -24199758.883 9
  15889278.524   -34310771.517 7 -26514530.051 9
  17570669.672   -14698179.404 6 -10976903.883 6
 94  2  3  4 58 29.9840000  0  8 24  2  7 13 12  9  4  5
  16236379.477   -24827941.081 6 -19229730.758 9
  19146859.774   -12839968.374 4  -9872534.997 4
  18579992.305   -27042098.680 5 -20838574.500 6
  16269895.695   -37012734.645 7 -28587334.308 7
  16319518.664   -28529871.928 7 -22127219.460 8
  16228195.172   -31517482.889 6 -24227708.692 9
  15883207.969   -34342661.100 7 -26539379.068 9
  17548148.836   -14816516.314 6 -11069114.451 6
 94  2  3  4 58 59.9840000  0  8 24  2  7 13 12  9  4  5
  16217247.578   -24928476.565 6 -19308070.093 9
  19154833.547   -12798066.584 3  -9839884.252 2
  18586300.766   -27008957.563 5 -20812750.257 5
  16271178.141   -37005995.019 7 -28582082.657 7
  16304911.320   -28606641.540 7 -22187039.941 8
  16221473.641   -31552797.395 6 -24255226.480 9
  15877250.484   -34373969.563 7 -26563775.273 9
  17525646.383   -14934767.217 6 -11161257.997 6
 94  2  3  4 59 29.9840000  0  8 24  2  7 13 12  9  4  5
  16198213.359   -25028506.900 6 -19386015.799 9
  19162849.328   -12755927.985 3  -9807049.006 3
  18592614.578   -26975776.536 5 -20786894.919 5
  16272512.609   -36998974.353 7 -28576612.006 7
  16290401.391   -28682891.144 7 -22246455.226 8
  16214867.250   -31587521.707 6 -24282284.381 9
  15871405.891   -34404693.073 7 -26587715.661 9
  17503166.594   -15052905.870 6 -11253314.081 7
 94  2  3  4 59 59.9840000  0  8 24  2  7 13 12  9  4  5
  16179275.016   -25128022.972 6 -19463560.780 9
  19170911.461   -12713550.652 3  -9774027.712 3
  18598932.695   -26942559.292 5 -20761011.358 5
  16273904.766   -36991666.042 7 -28570917.215 7
  16275993.078   -28758610.140 7 -22305457.046 8
  16208378.774   -31621622.093 6 -24308856.112 8
  15865670.258   -34434817.888 7 -26611189.539 9
  17480710.086   -15170918.693 6 -11345272.106 6
 94  2  3  5  0 29.9840000  0  8 24  2  7 13 12  9  4  5
  16160432.984   -25227047.169 6 -19540722.479 9
  19179024.375   -12670947.143 3  -9740830.183 4
  18605258.649   -26909323.044 5 -20735112.987 5
  16275348.805   -36984083.022 7 -28565008.375 7
  16261682.195   -28833807.253 7 -22364052.195 8
  16202005.859   -31655094.680 6 -24334938.655 8
  15860048.664   -34464364.972 7 -26634213.224 9
  17458277.125   -15288806.622 6 -11437132.821 7
 94  2  3  5  0 59.9840000  0  8 24  2  7 13 12  9  4  5
  16141677.945   -25325593.585 6 -19617511.876 9
  19187166.758   -12628126.510 3  -9707463.465 3
  18611587.047   -26876067.220 5 -20709199.366 5
  16276842.602   -36976223.382 7 -28558883.958 7
  16247474.742   -28908476.335 7 -22422235.884 8
  16195760.820   -31687931.629 6 -24360525.901 9
  15854535.219   -34493328.784 7 -26656782.423 9
  17435869.063   -15406561.086 6 -11528889.520 7
 94  2  3  5  1 29.9830000  0  8 24  2  7 13 12  9  4  5
  16123017.245   -25423664.847 6 -19693931.035 8
  19195356.823   -12585113.520 3  -9673946.862 4
  18617918.769   -26842798.176 5 -20683275.444 6
  16278388.167   -36968092.117 7 -28552547.903 7
  16233366.456   -28982615.629 7 -22480006.758 8
  16189623.433   -31720169.055 6 -24385645.994 9
  15849135.855   -34521718.156 7 -26678904.007 9
  17413483.831   -15524189.278 6 -11620547.833 7
 94  2  3  5  1 59.9830000  0  8 24  2  7 13 12  9  4  5
  16104441.886   -25521268.764 6 -19769986.024 8
  19203577.761   -12541903.820 3  -9640276.973 4
  18624254.191   -26809511.210 5 -20657337.561 6
  16279990.441   -36959688.191 7 -28545999.383 7
  16219358.550   -29056225.194 7 -22537364.861 8
  16183600.386   -31751830.761 6 -24410317.474 9
  15843838.706   -34549548.670 7 -26700590.113 9
  17391117.659   -15641716.354 6 -11712127.361 7
 94  2  3  5  2 29.9830000  0  8 24  2  7 13 12  9  4  5
  16085958.972   -25618404.237 6 -19845675.985 8
  19211838.870   -12498495.959 3  -9606452.670 1
  18630589.472   -26776210.166 5 -20631388.707 5
  16281637.620   -36951021.797 7 -28539246.349 7
  16205449.745   -29129308.493 7 -22594312.883 8
  16177678.558   -31782946.928 6 -24434563.866 9
  15838649.776   -34576826.485 7 -26721845.542 9
  17368772.269   -15759146.119 6 -11803631.065 7
 94  2  3  5  2 59.9830000  0  8 24  2  7 13 12  9  4  5
  16067565.441   -25715054.215 6 -19920987.641 8
  19220132.706   -12454882.417 3  -9572468.085 1
  18636931.362   -26742892.514 5 -20605426.924 5
  16283337.667   -36942090.073 7 -28532286.561 7
  16191645.355   -29201858.711 7 -22650845.527 8
  16171859.487   -31813528.678 6 -24458393.814 9
  15833566.698   -34603532.817 7 -26742655.672 9
  17346443.808   -15876482.404 6 -11895061.945 7
 94  2  3  5  3 29.9830000  0  8 24  2  7 13 12  9  4  5
  16049266.120   -25811216.864 6 -19995919.568 8
  19228480.847   -12411045.297 3  -9538309.306 2
  18643273.120   -26709556.185 5 -20579450.571 5
  16285086.925   -36932895.860 7 -28525122.238 7
  16177942.167   -29273874.453 7 -22706961.696 8
  16166140.636   -31843569.650 6 -24481802.380 9
  15828592.714   -34629676.908 7 -26763027.684 9
  17324136.269   -15993716.287 6 -11986413.013 7
 94  2  3  5  3 59.9830000  0  8 24  2  7 13 12  9  4  5
  16031064.003   -25906885.631 6 -20070466.639 9
  19236875.495   -12366959.849 3  -9503957.023 2
  18649623.425   -26676196.901 5 -20553456.341 5
  16286888.089   -36923433.188 7 -28517748.725 7
  16164340.659   -29345345.708 7 -22762653.577 8
  16160535.659   -31873038.405 6 -24504765.049 9
  15823724.644   -34655242.770 7 -26782949.130 9
  17301850.769   -16110826.937 6 -12077668.045 7
 94  2  3  5  4 29.9830000  0  8 24  2  7 13 12  9  4  5
  16012947.066   -26002079.146 6 -20144643.387 8
  19245304.534   -12322640.229 3  -9469422.238 2
  18655971.378   -26642822.137 5 -20527450.045 5
  16288737.776   -36913719.761 7 -28510179.817 7
  16150841.847   -29416286.090 7 -22817931.775 8
  16155032.323   -31901937.944 6 -24527284.153 9
  15818968.691   -34680245.349 7 -26802431.652 9
  17279588.191   -16227825.433 6 -12168835.695 7
 94  2  3  5  4 59.9830000  0  8 24  2  7 13 12  9  4  5
  15994923.737   -26096796.566 6 -20218449.149 8
  19253778.323   -12278083.794 3  -9434702.941 1
  18662330.714   -26609421.234 5 -20501423.374 5
  16290635.456   -36903750.769 7 -28502411.780 7
  16137445.151   -29486686.839 7 -22872789.494 8
  16149647.870   -31930247.011 6 -24549343.159 9
  15814316.206   -34704685.473 7 -26821475.899 9
  17257344.839   -16344698.706 6 -12259905.773 7
 94  2  3  5  5 29.9830000  0  8 24  2  7 13 12  9  4  5
  15976988.409   -26191039.465 6 -20291885.158 9
  19262299.941   -12233307.768 3  -9399812.549 2
  18668693.394   -26575986.816 5 -20475370.576 5
  16292579.878   -36893526.861 7 -28494445.102 7
  16124151.269   -29556544.682 7 -22927224.162 8
  16144373.081   -31957960.918 6 -24570938.421 9
  15809773.230   -34728576.224 7 -26840092.062 9
  17235132.558   -16461439.511 6 -12350872.622 7
 94  2  3  5  5 59.9830000  0  8 24  2  7 13 12  9  4  5
  15959146.386   -26284801.667 6 -20364946.601 9
  19270867.964   -12188323.024 3  -9364759.485 2
  18675062.589   -26542521.847 5 -20449293.973 5
  16294574.691   -36883049.649 7 -28486281.043 7
  16110960.464   -29625857.195 7 -22981233.911 8
  16139212.323   -31985090.374 6 -24592078.264 9
  15805329.855   -34751909.206 7 -26858273.597 9
  17212939.737   -16578054.579 6 -12441741.503 7
 94  2  3  5  6 29.9830000  0  8 24  2  7 13 12  9  4  5
  15941397.480   -26378070.642 6 -20437623.715 9
  19279460.886   -12143130.878 3  -9329544.849 2
  18681432.472   -26509026.140 5 -20423193.438 5
  16296618.097   -36872317.833 7 -28477918.584 7
  16097876.855   -29694619.406 7 -23034814.850 8
  16134155.425   -32011643.817 6 -24612769.276 9
  15800997.628   -34774677.574 7 -26876015.182 9
  17190772.276   -16694549.822 6 -12532517.005 7
 94  2  3  5  6 59.9830000  0  8 24  2  7 13 12  9  4  5
  15923745.573   -26470850.571 6 -20509919.750 9
  19288099.651   -12097747.800 3  -9294181.434 1
  18687808.706   -26475524.581 5 -20397088.334 5
  16298702.706   -36861347.055 7 -28469369.922 7
  16084892.097   -29762842.851 7 -23087975.976 8
  16129212.722   -32037639.741 6 -24633025.855 9
  15796772.261   -34796889.946 7 -26893323.516 9
  17168625.878   -16810930.057 6 -12623202.885 7
 94  2  3  5  7 29.9830000  0  8 24  2  7 13 12  9  4  5
  15906182.276   -26563132.416 6 -20581827.669 9
  19296772.167   -12052165.604 3  -9258662.842 2
  18694181.628   -26442028.966 5 -20370987.883 5
  16300838.105   -36850133.113 7 -28460631.782 7
  16072014.855   -29830519.345 7 -23140710.900 8
  16124369.120   -32063076.263 6 -24652846.528 9
  15792651.026   -34818540.282 7 -26910193.904 9
  17146503.120   -16927188.254 6 -12713793.677 7
 94  2  3  5  7 59.9830000  0  8 24  2  7 13 12  9  4  5
  15888717.605   -26654919.567 6 -20653350.099 9
  19305482.620   -12006381.756 3  -9222987.113 2
  18700554.394   -26408548.330 5 -20344899.103 5
  16303015.941   -36838685.411 7 -28451711.496 7
  16059238.980   -29897654.448 7 -23193023.965 8
  16119637.730   -32087960.285 6 -24672236.694 9
  15788639.269   -34839618.396 7 -26926618.401 9
  17124402.636   -17043321.590 6 -12804287.166 7
 94  2  3  5  8 29.9830000  0  8 24  2  7 13 12  9  4  5
  15871347.151   -26746199.328 6 -20724477.174 9
  19314235.144   -11960397.094 3  -9187154.910 1
  18706926.808   -26375061.870 5 -20318805.781 5
  16305240.651   -36826994.731 7 -28442601.877 7
  16046569.480   -29964235.076 7 -23244904.978 8
  16115006.784   -32112281.745 6 -24691188.491 9
  15784739.901   -34860113.835 7 -26942588.867 9
  17102329.066   -17159314.631 6 -12894671.336 7
 94  2  3  5  8 59.9830000  0  8 24  2  7 13 12  9  4  5
  15854071.534   -26836979.366 6 -20795214.854 9
  19323018.542   -11914227.267 3  -9151178.456 2
  18713299.730   -26341576.233 5 -20292713.100 5
  16307507.831   -36815069.934 7 -28433309.828 7
  16034005.464   -30030266.309 7 -23296357.895 8
  16110485.980   -32136042.750 6 -24709703.579 9
  15780949.198   -34880037.783 7 -26958114.022 9
  17080285.480   -17275162.639 6 -12984942.509 7
 94  2  3  5  9 29.9830000  0  8 24  2  7 13 12  9  4  5
  15836891.331   -26927264.247 6 -20865566.693 9
  19331838.222   -11867878.205 3  -9115062.307 1
  18719671.878   -26308084.906 5 -20266615.961 5
  16309822.175   -36802920.553 7 -28423842.780 7
  16021543.675   -30095754.094 7 -23347387.339 8
  16106069.292   -32159243.957 6 -24727782.463 9
  15777264.933   -34899392.786 7 -26973195.829 9
  17058265.019   -17390870.927 6 -13075104.799 7
 94  2  3  5  9 59.9830000  0  8 24  2  7 13 12  9  4  5
  15819797.331   -27017083.666 6 -20935555.840 8
  19340685.714   -11821378.957 2  -9078829.149 2
  18726042.878   -26274608.701 5 -20240530.609 5
  16312167.894   -36790585.048 7 -28414230.706 7
  16009179.276   -30160732.940 7 -23398020.214 8
  16101755.456   -32181917.534 6 -24745450.214 9
  15773685.511   -34918211.388 7 -26987859.675 9
  17036266.956   -17506483.043 6 -13165192.145 7
 94  2  3  5 10 29.9830000  0  8 24  2  7 13 12  9  4  5
  15802800.331   -27106400.944 6 -21005153.701 9
  19349571.823   -11774684.731 2  -9042444.028 2
  18732413.144   -26241128.617 5 -20214442.228 5
  16314556.081   -36778038.755 7 -28404454.374 7
  15996914.901   -30225174.464 7 -23448234.385 8
  16097549.151   -32204033.873 6 -24762683.743 9
  15770205.808   -34936490.267 7 -27002102.942 9
  17014287.730   -17621981.390 6 -13255190.844 7
 94  2  3  5 10 59.9830000  0  8 24  2  7 13 12  9  4  5
  15785905.386   -27195203.719 6 -21074350.654 8
  19358512.605   -11727774.936 3  -9005891.000 2
  18738788.605   -26207633.248 5 -20188341.956 5
  16316985.511   -36765272.482 7 -28394506.632 7
  15984756.456   -30289065.650 7 -23498019.721 8
  16093450.370   -32225569.223 6 -24779464.569 9
  15766829.026   -34954235.287 7 -27015930.234 9
  16992333.175   -17737350.086 6 -13345088.513 7
 94  2  3  5 11 29.9830000  0  8 24  2  7 13 12  9  4  5
  15769103.847   -27283486.463 6 -21143142.390 8
  19367467.331   -11680634.820 2  -8969158.443 2
  18745167.425   -26174112.523 5 -20162221.927 5
  16319455.550   -36752278.129 7 -28384381.158 7
  15972704.894   -30352395.119 7 -23547367.367 8
  16089464.823   -32246520.707 6 -24795790.420 9
  15763554.816   -34971442.638 7 -27029338.547 9
  16970405.198   -17852587.121 6 -13434883.604 7
 94  2  3  5 11 59.9830000  0  8 24  2  7 13 12  9  4  5
  15752400.362   -27371262.896 6 -21211539.599 8
  19376485.862   -11633273.004 2  -8932253.110 1
  18751546.175   -26140574.660 5 -20136088.540 5
  16321973.136   -36739066.299 7 -28374086.228 7
  15960759.472   -30415169.443 7 -23596282.426 8
  16085582.081   -32266909.974 6 -24811678.153 9
  15760381.112   -34988128.510 7 -27042340.523 9
  16948498.956   -17967695.776 6 -13524578.661 7
 94  2  3  5 12 29.9830000  0  8 24  2  7 13 12  9  4  5
  15735792.253   -27458537.843 6 -21279546.030 8
  19385531.714   -11585715.456 2  -8895195.264 1
  18757932.886   -26107017.346 5 -20109939.994 5
  16324528.487   -36725639.229 7 -28363623.567 7
  15948920.659   -30477387.325 7 -23644763.896 8
  16081811.542   -32286734.841 6 -24827126.094 9
  15757301.612   -35004302.592 7 -27054943.691 9
  16926623.800   -18082660.050 6 -13614161.193 7
 94  2  3  5 12 59.9830000  0  8 24  2  7 13 12  9  4  5
  15719276.401   -27545331.518 6 -21347177.459 8
  19394612.316   -11537990.396 2  -8858006.959 2
  18764322.409   -26073442.957 5 -20083778.162 5
  16327121.644   -36712005.080 7 -28352999.562 7
  15937185.245   -30539053.196 7 -23692815.236 8
  16078146.050   -32305994.406 6 -24842133.560 9
  15754324.441   -35019951.709 7 -27067137.815 9
  16904774.792   -18197478.154 6 -13703629.841 7
 94  2  3  5 13 29.9830000  0  7 24  7 13 12  9  4  5
  15702857.761   -27631615.335 6 -21414411.579 8
  18770719.550   -26039831.475 5 -20057587.404 5
  16329758.972   -36698143.005 7 -28342197.943 7
  15925560.339   -30600142.688 7 -23740417.429 8
  16074589.355   -32324680.209 6 -24856693.932 9
  15751452.151   -35035039.860 7 -27078894.807 9
  16882956.894   -18312121.963 6 -13792962.664 7
 94  2  3  5 13 59.9830000  0  7 24  7 13 12  9  4  5
  15686535.316   -27717381.003 6 -21481241.957 8
  18777120.706   -26006187.620 5 -20031371.437 5
  16332439.456   -36684060.228 7 -28331224.364 7
  15914045.441   -30660659.560 7 -23787573.442 8
  16071146.237   -32342790.370 6 -24870805.770 8
  15748685.620   -35049576.809 7 -27090222.303 9
  16861175.714   -18426595.647 6 -13882162.930 7
 94  2  3  5 14 29.9830000  0  7 24  7 13 12  9  4  5
  15670314.745   -27802628.883 6 -21547668.856 8
  18783522.808   -25972543.587 5 -20005155.326 5
  16335161.917   -36669766.600 7 -28320086.473 7
  15902635.183   -30720609.920 7 -23834287.991 7
  16067805.519   -32360323.644 6 -24884468.068 8
  15746021.456   -35063573.914 7 -27101129.121 9
  16839419.089   -18540915.421 6 -13971243.263 7
 94  2  3  5 14 59.9830000  0  7 24  7 13 12  9  4  5
  15654190.089   -27887355.809 6 -21613689.830 8
  18789923.831   -25938912.257 5 -19978949.114 5
  16337916.847   -36655269.154 7 -28308789.755 7
  15891335.737   -30779997.498 7 -23880564.023 8
  16064575.784   -32377305.029 6 -24897700.329 8
  15743463.448   -35077031.862 7 -27111615.833 9
  16817694.339   -18655086.470 6 -14060207.717 7
 94  2  3  5 15 29.9830000  0  7 24  7 13 12  9  4  5
  15638173.253   -27971535.317 6 -21679284.231 8
  18796323.917   -25905278.237 5 -19952740.794 5
  16340718.698   -36640550.548 7 -28297320.712 7
  15880144.081   -30838801.296 7 -23926385.172 7
  16061449.089   -32393736.795 6 -24910504.310 9
  15741005.651   -35089947.331 7 -27121679.835 9
  16796001.581   -18769079.770 6 -14149033.651 7
 94  2  3  5 15 59.9830000  0  7 24  7 13 12  9  4  5
  15622254.808   -28055182.672 6 -21744463.975 8
  18802719.339   -25871660.973 5 -19926545.535 5
  16343560.612   -36625622.580 7 -28285688.532 7
  15869065.612   -30897030.026 7 -23971758.218 8
  16058428.651   -32409618.676 6 -24922879.802 9
  15738646.136   -35102328.422 7 -27131327.441 9
  16774340.347   -18882912.045 6 -14237734.113 7
 94  2  3  5 16 29.9830000  0  7 24  7 13 12  9  4  5
  15606439.081   -28138303.092 6 -21809233.121 8
  18809116.042   -25838055.392 5 -19900359.378 5
  16346438.269   -36610484.964 7 -28273892.981 7
  15858094.566   -30954679.702 7 -24016680.047 8
  16055507.456   -32424955.168 6 -24934830.323 8
  15736396.956   -35114165.495 7 -27140551.135 9
  16752710.862   -18996570.644 6 -14326299.261 7
 94  2  3  5 16 59.9830000  0  7 24  7 13 12  9  4  5
  15590717.769   -28220904.419 6 -21873597.769 8
  18815511.620   -25804443.169 5 -19874168.046 5
  16349358.769   -36595146.641 7 -28261941.044 7
  15847233.683   -31011755.868 7 -24061154.978 8
  16052691.237   -32439755.670 6 -24946363.197 8
  15734247.831   -35125456.606 7 -27149349.393 9
  16731115.698   -19110062.086 6 -14414734.138 8
 94  2  3  5 17 29.9830000  0  7 24  7 13 12  9  4  5
  15575101.542   -28302975.325 6 -21937549.112 8
  18821911.941   -25770814.661 5 -19847964.041 5
  16352314.128   -36579606.032 7 -28249831.471 7
  15836482.378   -31068253.573 7 -24105179.152 8
  16049982.714   -32454002.330 6 -24957464.513 9
  15732202.862   -35136195.098 7 -27157717.049 9
  16709549.206   -19223400.586 6 -14503049.844 8
 94  2  3  5 17 59.9830000  0  7 24  7 13 12  9  4  5
  15559583.941   -28384524.987 6 -22001094.290 8
  18828308.323   -25737179.832 5 -19821755.113 5
  16355307.667   -36563878.102 7 -28237575.927 7
  15825837.839   -31124184.609 7 -24148761.773 8
  16047378.144   -32467691.344 6 -24968131.290 9
  15730264.659   -35146386.766 7 -27165658.609 9
  16688004.628   -19336608.668 6 -14591263.914 8
 94  2  3  5 18 29.9830000  0  7 24  7 13 12  9  4  5
  15544165.737   -28465537.417 6 -22064220.834 8
  18834719.566   -25703508.656 5 -19795517.865 4
  16358339.753   -36547948.356 7 -28225163.145 7
  15815306.417   -31179531.007 7 -24191888.835 8
  16044879.191   -32480810.253 6 -24978353.840 9
  15728431.292   -35156019.895 7 -27173164.937 9
  16666492.878   -19449651.748 6 -14679349.428 7
 94  2  3  5 18 59.9830000  0  7 24  7 13 12  9  4  5
  15528854.253   -28546009.232 6 -22126926.125 8
  18841130.901   -25669811.789 5 -19769260.588 5
  16361409.941   -36531817.309 7 -28212593.509 7
  15804886.011   -31234290.146 7 -24234558.300 7
  16042488.808   -32493355.726 6 -24988129.560 9
  15726704.534   -35165099.142 7 -27180239.678 9
  16645014.651   -19562525.025 6 -14767302.621 8
 94  2  3  5 19 29.9830000  0  7 24  7 13 12  9  4  5
  15513639.198   -28625963.526 6 -22189228.148 8
  18847539.816   -25636117.697 5 -19743005.470 4
  16364514.081   -36515499.241 7 -28199878.136 7
  15794574.769   -31288473.102 7 -24276778.785 8
  16040214.198   -32505340.103 6 -24997468.047 9
  15725074.972   -35173650.607 7 -27186903.152 9
  16623568.987   -19675230.790 6 -14855125.281 7
 94  2  3  5 19 59.9820000  0  7 24  7 13 12  9  4  5
  15498518.076   -28705413.257 6 -22251137.021 8
  18853951.537   -25602436.310 5 -19716760.237 4
  16367653.873   -36498994.767 7 -28187017.526 7
  15784375.795   -31342074.748 7 -24318546.308 8
  16038039.217   -32516766.944 6 -25006372.108 9
  15723547.537   -35181683.627 7 -27193162.649 9
  16602154.209   -19787749.200 6 -14942801.963 8
 94  2  3  5 20 29.9820000  0  7 24  7 13 12  9  4  5
  15483493.608   -28784365.786 6 -22312658.455 8
  18860361.186   -25568765.587 5 -19690523.331 4
  16370830.803   -36482303.956 7 -28174011.713 7
  15774286.443   -31395096.803 7 -24359862.193 8
  16035967.154   -32527645.565 6 -25014848.967 9
  15722116.826   -35189208.810 7 -27199026.428 9
  16580779.545   -19900086.294 6 -15030337.334 8
 94  2  3  5 20 59.9820000  0  7 24  7 13 12  9  4  5
  15468565.865   -28862810.522 6 -22373784.206 8
  18866763.904   -25535113.683 5 -19664301.103 4
  16374045.459   -36465427.700 7 -28160861.396 7
  15764307.311   -31447534.676 7 -24400722.873 7
  16033998.100   -32537980.546 6 -25022902.194 9
  15720777.983   -35196232.880 7 -27204499.721 9
  16559433.920   -20012256.895 6 -15117742.991 8
 94  2  3  5 21 29.9820000  0  7 24  7 13 12  9  4  5
  15453737.084   -28940741.370 6 -22434509.522 8
  18873167.467   -25501457.065 5 -19638075.179 5
  16377290.522   -36448361.876 7 -28147563.354 7
  15754442.686   -31499381.332 7 -24441122.867 8
  16032136.272   -32547772.078 6 -25030531.969 9
  15719540.334   -35202743.824 7 -27209573.187 9
  16538120.467   -20124255.798 6 -15205014.858 8
 94  2  3  5 21 59.9820000  0  7 24  7 13 12  9  4  5
  15439006.787   -29018156.267 6 -22494832.789 8
  18879571.990   -25467807.719 5 -19611854.933 4
  16380571.858   -36431123.989 7 -28134131.223 7
  15744685.334   -31550650.961 7 -24481073.222 8
  16030371.733   -32557042.568 6 -25037755.737 9
  15718398.162   -35208746.033 7 -27214250.231 9
  16516837.108   -20236093.333 6 -15292160.972 8
 94  2  3  5 22 29.9820000  0  7 24  7 13 12  9  4  5
  15424377.998   -29095029.024 6 -22554733.607 8
  18885978.342   -25434130.409 5 -19585612.897 5
  16383887.779   -36413698.794 7 -28120553.144 7
  15735041.756   -31601325.199 7 -24520559.641 7
  16028712.014   -32565774.453 6 -25044559.807 8
  15717356.608   -35214215.342 7 -27218512.026 9
  16495594.272   -20347734.378 6 -15379153.991 8
 94  2  3  5 22 59.9820000  0  7 24  7 13 12  9  4  5
  15409853.459   -29171355.194 6 -22614208.537 8
  18892393.662   -25400426.169 5 -19559349.880 4
  16387237.209   -36396092.360 7 -28106833.852 7
  15725512.490   -31651407.113 7 -24559584.511 7
  16027155.584   -32573970.072 6 -25050946.026 9
  15716417.514   -35219141.276 7 -27222350.413 9
  16474388.467   -20459164.924 6 -15465982.983 8
 94  2  3  5 23 29.9820000  0  7 24  7 13 12  9  4  5
  15395431.350   -29247139.225 6 -22673261.009 8
  18898811.678   -25366692.821 5 -19533064.164 4
  16390624.342   -36378310.225 7 -28092977.648 7
  15716093.350   -31700899.385 7 -24598149.921 8
  16025695.412   -32581627.969 6 -25056913.267 8
  15715584.686   -35223517.594 7 -27225760.523 9
  16453225.365   -20570377.601 6 -15552642.199 8
 94  2  3  5 23 59.9820000  0  7 24  7 13 12  9  4  5
  15381112.014   -29322385.948 6 -22731894.811 8
  18905233.670   -25332939.420 5 -19506762.845 5
  16394037.451   -36360358.250 7 -28078989.091 7
  15706788.584   -31749804.628 7 -24636257.908 8
  16024339.561   -32588750.064 6 -25062462.988 8
  15714853.631   -35227365.896 7 -27228759.197 9
  16432104.623   -20681374.153 6 -15639133.021 8
 94  2  3  5 24 29.9820000  0  8 24 20  7 13 12  9  4  5
  15366897.029   -29397095.281 6 -22790109.862 8
  19392287.443          -0.44213
  18911662.889   -25299163.029 4 -19480443.615 5
  16397485.318   -36342235.566 7 -28064867.518 7
  15697594.147   -31798119.420 7 -24673905.806 7
  16023087.068   -32595330.567 6 -25067590.694 8
  15714220.350   -35230703.383 7 -27231359.835 9
  16411022.693   -20792160.005 6 -15725459.648 8
 94  2  3  5 24 59.9820000  0  8 24 20  7 13 12  9  4  5
  15352784.881   -29471253.460 6 -22847895.443 8
  19365753.287     -139392.672 2
  18918092.311   -25265377.426 4 -19454117.190 5
  16400969.818   -36323938.116 7 -28050609.764 7
  15688512.904   -31845836.570 7 -24711088.005 7
  16021936.467   -32601363.829 6 -25072291.961 9
  15713679.358   -35233525.755 7 -27233559.081 9
  16389977.733   -20902755.903 6 -15811638.251 8
 94  2  3  5 25 29.9820000  0  8 24 20  7 13 12  9  4  5
  15338776.568   -29544869.646 6 -22905258.692 8
  19339241.693     -278798.016 3        -0.48111
  18924523.928   -25231590.371 4 -19427789.636 5
  16404481.272   -36305465.924 7 -28036215.850 7
  15679545.303   -31892953.160 6 -24747802.231 8
  16020892.506   -32606850.895 6 -25076567.592 8
  15713242.154   -35235845.780 7 -27235366.887 9
  16368966.436   -21013167.882 6 -15897673.553 8
 94  2  3  5 25 59.9820000  0  8 24 20  7 13 12  9  4  5
  15324869.912   -29617941.764 6 -22962197.996 8
  19312695.693     -418217.860 3   -108639.339 1
  18930950.951   -25197814.686 4 -19401470.959 5
  16408031.858   -36286823.439 7 -28021689.233 7
  15670695.615   -31939471.143 7 -24784050.011 7
  16019950.670   -32611795.706 6 -25080420.674 9
  15712893.350   -35237683.183 7 -27236798.633 9
  16347991.404   -21123392.861 6 -15983563.137 8
 94  2  3  5 26 29.9820000  0  8 24 20  7 13 12  9  4  5
  15311070.139   -29690464.836 6 -23018709.465 8
  19286163.889     -557656.786 3   -217293.073 1
  18937372.623   -25164060.450 4 -19375168.985 5
  16411610.904   -36268018.650 7 -28007036.154 7
  15661957.381   -31985395.463 7 -24819835.201 8
  16019111.326   -32616197.251 6 -25083850.438 9
  15712637.654   -35239023.345 7 -27237842.909 9
  16327050.514   -21233436.040 7 -16069311.052 8
 94  2  3  5 26 59.9820000  0  8 24 20  7 13 12  9  4  5
  15297372.779   -29762449.848 6 -23074801.675 8
  19259635.358     -697114.704 3   -325961.551 2
  18943792.240   -25130327.698 4 -19348883.748 4
  16415218.623   -36249055.069 7 -27992259.329 6
  15653328.865   -32030726.860 7 -24855158.366 8
  16018378.006   -32620058.908 6 -25086859.537 8
  15712476.193   -35239856.775 7 -27238492.334 9
  16306148.584   -21343281.632 7 -16154905.007 8
 94  2  3  5 27 29.9820000  0  8 24 20  7 13 12  9  4  5
  15283776.053   -29833899.087 6 -23130476.394 8
  19233087.912     -836585.128 3   -434639.845 2
  18950207.412   -25096604.116 4 -19322605.654 4
  16418854.545   -36229929.602 7 -27977356.366 7
  15644817.943   -32075459.559 7 -24890015.021 8
  16017750.709   -32623373.214 6 -25089442.145 8
  15712417.178   -35240188.680 7
  16285287.217   -21452906.102 7 -16240326.652 8
 94  2  3  5 27 59.9820000  0  8 24 20  7 13 12  9  4  5
  15270284.209   -29904803.919 7 -23185726.913 8
  19206550.420     -976069.965 3   -543329.331 2
  18956629.686   -25062878.196 4 -19296325.724 4
  16422526.358   -36210647.399 7 -27962331.290 7
  15636418.678   -32119596.035 6 -24924407.086 7
  16017222.248   -32626149.901 6 -25091605.824 8
  15712446.217   -35240019.409 7
  16264467.772   -21562310.429 7 -16325576.767 8
 94  2  3  5 28 29.9820000  0  8 24 20  7 13 12  9  4  5
  15256892.506   -29975169.425 6 -23240557.172 8
  19179997.225    -1115569.617 3   -652030.346 2
  18963047.076   -25029143.738 4 -19270039.150 4
  16426226.756   -36191212.368 7 -27947187.111 6
  15628130.686   -32163137.685 6 -24958335.648 7
  16016795.654   -32628400.138 6 -25093359.277 8
  15712572.818   -35239346.127 7 -27238094.420 9
  16243691.654   -21671497.151 7 -16410657.322 8
 94  2  3  5 28 59.9820000  0  8 24 20  7 13 12  9  4  5
  15243603.670   -30045004.918 6 -23294974.439 8
  19153446.858    -1255074.768 2   -760735.603 3
  18969463.240   -24995402.266 4 -19243747.110 5
  16429955.029   -36171618.755 7 -27931919.349 6
  15619962.943   -32206075.818 6 -24991793.931 8
  16016467.662   -32630127.386 6 -25094705.186 8
  15712793.818   -35238180.934 7 -27237186.481 9
  16222954.248   -21780458.780 7 -16495562.499 8
 94  2  3  5 29 29.9820000  0  8 24 20  7 13 12  9  4  5
  15230416.818   -30114306.023 6 -23348975.291 8
  19126906.709    -1394587.334 3   -869446.682 2
  18975886.858   -24961658.977 4 -19217453.680 4
  16433710.147   -36151871.725 7 -27916532.051 6
  15611904.061   -32248413.295 6 -25024784.170 7
  16016237.858   -32631339.356 6 -25095649.590 8
  15713113.076   -35236527.030 7 -27235897.722 9
  16202261.998   -21889204.549 7 -16580299.442 8
 94  2  3  5 29 59.9820000  0  8 24 20  7 13 12  9  4  5
  15217328.092   -30183078.622 6 -23402564.331 8
  19100355.467    -1534105.820 3   -978162.346 2
  18982308.623   -24927909.416 3 -19191155.348 4
  16437498.811   -36131973.187 7 -27901026.711 6
  15603964.201   -32290149.331 6 -25057305.760 7
  16016102.990   -32632048.095 6 -25096201.859 8
  15713520.404   -35234379.078 7 -27234224.001 9
  16181610.389   -21997732.210 7 -16664866.414 8
 94  2  3  5 30 29.9820000  0  8 24 20  7 13 12  9  4  5
  15204340.154   -30251336.213 6 -23455752.055 8
  19073804.365    -1673628.245 3  -1086881.071 2
  18988729.998   -24894171.109 4 -19164865.779 5
  16441312.740   -36111924.802 7 -27885404.619 6
  15596135.131   -32331283.028 6 -25089357.994 7
  16016060.936   -32632240.167 6
  15714025.772   -35231740.356 7 -27232167.850 9
  16161000.873   -22106040.442 7 -16749262.449 8
 94  2  3  5 30 59.9820000  0  8 24 20  7 13 12  9  4  5
  15191450.248   -30319078.274 6 -23508538.068 8
  19047256.006    -1813152.683 3  -1195601.353 2
  18995148.537   -24860441.953 4 -19138583.344 3
  16445154.748   -36091727.875 7 -27869666.762 6
  15588422.818   -32371813.068 6 -25120939.848 7
  16016125.686   -32631908.804 6
  15714621.842   -35228601.313 7 -27229721.845 9
  16140432.334   -22214126.419 7 -16833485.283 9
 94  2  3  5 31 29.9820000  0  8 24 20  7 13 12  9  4  5
  15178657.795   -30386299.233 6 -23560918.011 8
  19020696.420    -1952685.087 3  -1304327.886 2
  19001569.451   -24826710.255 4 -19112298.935 5
  16449024.522   -36071391.723 7 -27853820.405 6
  15580825.170   -32411746.603 6 -25152056.883 8
  16016287.162   -32631068.157 6 -25095438.310 8
  15715312.873   -35224964.500 7 -27226887.961 9
  16119904.998   -22321994.411 7 -16917538.231 8
 94  2  3  5 31 59.9820000  0  8 24 20  7 13 12  9  4  5
  15165964.490   -30452998.897 6 -23612891.749 8
  18994142.576    -2092220.975 3  -1413057.135 2
  19007985.983   -24792968.248 4 -19086006.491 4
  16452926.006   -36050915.432 7 -27837864.874 6
  15573338.967   -32451080.145 6 -25182706.398 8
  16016545.506   -32629705.814 6 -25094376.751 8
  15716093.818   -35220839.203 7 -27223673.451 9
  16099418.826   -22429654.372 7 -17001429.096 8
 94  2  3  5 32 29.9820000  0  8 24 20  7 13 12  9  4  5
  15153373.670   -30519166.441 6 -23664450.871 8
  18967592.983    -2231757.528 3  -1521786.889 2
  19014410.670   -24759218.217 4 -19059707.788 5
  16456845.389   -36030299.608 7 -27821800.604 6
  15565967.373   -32489812.053 6 -25212887.111 7
  16016905.553   -32627813.337 6 -25092902.096 8
  15716975.303   -35216223.404 7 -27220076.733 9
  16078971.912   -22537098.387 7 -17085151.676 9
 94  2  3  5 32 59.9820000  0  8 24 20  7 13 12  9  4  5
  15140887.740   -30584789.278 7 -23715585.542 8
  18941048.943    -2371293.993 3  -1630516.591 2
  19020837.967   -24725436.728 4 -19033384.566 4
  16460795.740   -36009546.830 7 -27805629.612 6
  15558709.975   -32527942.321 6 -25242599.025 8
  16017361.272   -32625410.899 6 -25091030.079 8
  15717948.967   -35211116.294 7 -27216097.165 9
  16058567.959   -22644320.710 7 -17168701.517 9
 94  2  3  5 33 29.9820000  0  8 24 20  7 13 12  9  4  5
  15128503.217   -30649865.897 7 -23766294.595 8
  18914491.858    -2510829.680 3  -1739245.663 2
  19027275.670   -24691631.428 4 -19007042.795 4
  16464767.764   -35988659.992 6 -27789354.162 6
  15551569.061   -32565471.760 6 -25271842.755 7
  16017918.787   -32622500.463 6 -25088762.207 8
  15719011.639   -35205535.906 7 -27211748.820 9
  16038208.490   -22751319.031 7 -17252076.817 9
 94  2  3  5 33 59.9820000  0  8 24 20  7 13 12  9  4  5
  15116225.850   -30714388.515 7 -23816571.971 8
  18887939.537    -2650356.941 3  -1847968.183 2
  19033710.350   -24657808.856 4 -18980687.574 2
  16468771.209   -35967634.747 6 -27772970.869 6
  15544543.498   -32602393.569 6 -25300613.028 8
  16018568.483   -32619071.819 6 -25086090.540 8
  15720159.975   -35199483.139 7 -27207032.380 9
  16017892.412   -22858073.957 7 -17335262.471 9
 94  2  3  5 34 29.9820000  0  8 24 20  7 13 12  9  4  5
  15104052.068   -30778350.910 7 -23866412.784 8
  18861388.045    -2789878.213 3  -1956686.022 1
  19040146.084   -24623984.982 3 -18954331.353 4
  16472797.818   -35946476.741 6 -27756484.100 6
  15537633.483   -32638711.416 6 -25328912.673 8
  16019315.420   -32615149.738 6 -25083034.389 8
  15721401.053   -35192964.347 7 -27201952.800 9
  15997628.201   -22964561.253 7 -17418239.581 9
 94  2  3  5 34 59.9820000  0  8 24 20  7 13 12  9  4  5
  15091986.850   -30841760.607 7 -23915822.919 8
  18834835.748    -2929398.225 3  -2065402.903 2
  19046583.943   -24590173.533 4 -18927984.787 4
  16476850.037   -35925194.213 6 -27739900.317 6
  15530837.248   -32674431.008 6 -25356746.142 7
  16020152.459   -32610745.944 6 -25079602.902 8
  15722724.998   -35185998.728 7 -27196525.044 9
  15977410.568   -23070806.467 7 -17501028.055 9
 94  2  3  5 35 29.9820000  0  8 24 20  7 13 12  9  4  5
  15080026.686   -30904610.316 7 -23964796.707 8
  18808288.287    -3068902.845 3  -2174107.804 1
  19053011.201   -24556380.882 4 -18901652.854 4
  16480923.881   -35903776.553 6 -27723211.267 6
  15524156.326   -32709539.648 6 -25384103.543 8
  16021086.170   -32605840.100 6 -25075780.182 8
  15724137.709   -35178579.545 7 -27190743.858 9
  15957239.834   -23176805.757 7 -17583624.901 9
 94  2  3  5 35 59.9820000  0  8 24 20  7 13 12  9  4  5
  15068170.326   -30966914.105 7 -24013345.105 8
  18781742.420    -3208402.540 3  -2282808.841 2
  19059432.068   -24522609.890 4 -18875337.789 3
  16485022.545   -35882237.622 6 -27706427.705 6
  15517588.045   -32744049.163 6 -25410994.084 7
  16022112.647   -32600444.914 6 -25071576.158 8
  15725635.756   -35170708.446 7 -27184610.530 9
  15937114.506   -23282569.912 7 -17666038.515 9
 94  2  3  5 36 29.9820000  0  8 24 20  7 13 12  9  4  5
  15056420.459   -31028666.668 7 -24061463.987 8
  18755204.443    -3347883.696 3  -2391495.433 2
  19065859.162   -24488843.767 4 -18849026.593 4
  16489143.240   -35860567.489 6 -27689541.890 6
  15511137.365   -32777947.369 6 -25437408.292 7
  16023239.170   -32594540.562 6 -25066975.388 8
  15727224.608   -35162358.617 7 -27178104.174 9
  15917030.389   -23388104.536 7 -17748273.279 9
 94  2  3  5 36 59.9820000  0  8 24 20  7 13 12  9  4  5
  15044771.436   -31089876.184 7 -24109159.705 8
  18728666.397    -3487346.877 4  -2500168.032 2
  19072283.873   -24455076.801 4 -18822714.711 4
  16493292.045   -35838770.276 6 -27672557.062 6
  15504803.006   -32811236.561 6 -25463347.930 8
  16024459.373   -32588121.067 6 -25061973.190 8
  15728907.068   -35153518.087 7 -27171215.453 9
  15896987.186   -23493431.970 7 -17830346.586 9
 94  2  3  5 37 29.9820000  0  8 24 20  7 13 12  9  4  5
  15033225.764   -31150543.641 7 -24156433.037 8
  18702129.561    -3626792.769 4  -2608827.157 3
  19078716.295   -24421302.398 3 -18796397.020 3
  16497464.061   -35816849.738 6 -27655476.144 6
  15498583.592   -32843918.412 6 -25488814.316 8
  16025779.201   -32581186.163 6 -25056569.345 8
  15730685.592   -35144177.326 7 -27163936.939 9
  15876986.162   -23598542.947 7 -17912251.243 9
 94  2  3  5 37 59.9820000  0  8 24 20  7 13 12  9  4  5
  15021780.490   -31210683.205 7 -24203295.029 8
  18675594.193    -3766224.462 4  -2717475.215 2
  19085145.881   -24387518.849 3 -18770072.192 2
  16501657.662   -35794812.420 6 -27638304.206 6
  15492479.951   -32875997.303 6 -25513810.863 8
  16027195.295   -32573746.082 6 -25050771.894 8
  15732556.615   -35134336.641 7 -27156268.878 9
  15857026.068   -23703430.495 7 -17993981.789 9
 94  2  3  5 38 29.9820000  0  8 24 20  7 13 12  9  4  5
  15010437.436   -31270299.365 7 -24249749.179 8
  18649064.998    -3905636.141 3  -2826107.683 2
  19091571.350   -24353727.698 3 -18743741.484 4
  16505875.936   -35772656.081 6 -27621039.540 6
  15486490.623   -32907469.138 6 -25538334.375 8
  16028705.053   -32565806.273 6 -25044585.066 8
  15734523.303   -35124009.446 6 -27148221.711 9
  15837109.514   -23808092.871 7 -18075536.882 9
 94  2  3  5 38 59.9810000  0  8 24 20  7 13 12  9  4  5
  14999194.837   -31329387.128 7 -24295791.579 8
  18622539.251    -4045022.179 4  -2934720.171 2
  19098003.103   -24319931.261 3 -18717406.610 3
  16510112.634   -35750383.826 6 -27603684.541 6
  15480616.509   -32938333.104 6 -25562384.214 8
  16030307.298   -32557386.787 6 -25038024.442 8
  15736576.564   -35113216.934 7 -27139811.949 9
  15817239.540   -23912510.273 7 -18156901.070 9
 94  2  3  5 39 29.9810000  0  8 24 20  7 13 12  9  4  5
  14988048.001   -31387956.161 7 -24341429.788 8
  18596019.915    -4184388.069 4  -3043316.951 2
  19104447.689   -24286112.816 4 -18691054.620 4
  16514372.298   -35727993.622 6 -27586237.624 6
  15474860.048   -32968589.118 6 -25585960.345 8
  16031999.228   -32548491.555 6 -25031093.109 8
  15738718.931   -35101968.847 7 -27131047.217 9
  15797419.548   -24016662.502 7 -18238058.648 9
 94  2  3  5 39 59.9810000  0  8 24 20  7 13 12  9  4  5
  14977002.751   -31446004.715 7 -24386662.413 8
  18569509.501    -4323727.046 4  -3151892.772 2
  19110881.087   -24252287.986 4 -18664697.639 2
  16518653.814   -35705487.593 6 -27568700.480 6
  15469217.228   -32998235.717 6 -25609061.595 7
  16033785.251   -32539120.201 6 -25023790.759 8
  15740941.720   -35090281.366 7 -27121940.096 9
  15777654.525   -24120528.304 7 -18318993.040 9
 94  2  3  5 40 29.9810000  0  8 24 20  7 13 12  9  4  5
  14966058.407   -31503506.719 7 -24431469.161 7
  18542997.751    -4463040.040 4  -3260448.339 3
  19117312.665   -24218472.216 4 -18638347.707 2
  16522958.610   -35682870.206 6 -27551076.544 6
  15463694.462   -33027275.309 6 -25631689.856 8
  16035654.626   -32529278.185 6 -25016121.654 8
  15743247.743   -35078165.955 7 -27112499.512 9
  15757944.290   -24224111.323 7 -18399707.071 9
 94  2  3  5 40 59.9810000  0  8 24 20  7 13 12  9  4  5
  14955228.126   -31560434.763 7 -24475828.650 7
  18516494.142    -4602315.017 4  -3368974.282 3
  19123747.915   -24184663.461 3 -18612003.232 3
  16527287.900   -35660132.801 6 -27533359.103 6
  15458283.642   -33055697.614 6 -25653837.105 8
  16037623.282   -32518953.005 6 -25008076.065 8
  15745635.032   -35065602.843 7 -27102710.071 9
  15738288.618   -24327399.474 7 -18480191.324 9
 94  2  3  5 41 29.9810000  0  7 24 20 13 12  9  4  5
  14944497.540   -31616816.476 7 -24519762.447 7
  18489996.962    -4741565.888 4  -3477481.439 4
  16531631.110   -35637292.759 6 -27515561.671 6
  15452989.485   -33083518.193 6 -25675515.487 8
  16039677.064   -32508145.456 6 -24999654.600 8
  15748112.204   -35052602.760 7 -27092580.139 9
  15718686.040   -24430412.742 7 -18560461.389 9
 94  2  3  5 41 59.9810000  0  7 24 20 13 12  9  4  5
  14933877.439   -31672630.642 7 -24563254.001 7
  18463503.525    -4880781.264 4  -3585960.932 3
  16536000.071   -35614342.493 6 -27497678.361 6
  15447810.509   -33110727.870 6 -25696717.835 8
  16041826.228   -32496845.051 6 -24990849.109 8
  15750669.962   -35039159.482 7 -27082104.854 9
  15699134.525   -24533157.037 7 -18640521.863 9
 94  2  3  5 42 29.9810000  0  7 24 20 13 12  9  4  5
  14923360.978   -31727890.660 7 -24606313.744 7
  18437016.814    -5019965.350 4  -3694416.057 3
  16540385.923   -35591289.039 6 -27479714.629 6
  15442751.915   -33137332.027 6 -25717448.336 8
  16044070.735   -32485073.092 6 -24981676.184 8
  15753310.720   -35025269.271 7 -27071281.305 9
  15679631.134   -24635644.378 7 -18720382.111 9
 94  2  3  5 42 59.9810000  0  7 24 20 13 12  9  4  5
  14912945.048   -31782627.837 7 -24648966.078 7
  18410539.751    -5159112.254 4  -3802842.194 2
  16544792.657   -35568130.173 6 -27461668.783 6
  15437803.275   -33163326.720 6 -25737703.945 8
  16046399.259   -32472824.152 6 -24972131.574 8
  15756040.610   -35010934.756 7 -27060111.556 9
  15660179.360   -24737868.604 7 -18800037.358 9
 94  2  3  5 43 29.9810000  0  7 24 20 13 12  9  4  5
  14902627.150   -31836855.438 7 -24691221.356 7
  18384065.251    -5298225.318 4  -3911241.976 4
  16549219.993   -35544872.747 6 -27443546.115 6
  15432971.220   -33188717.363 6 -25757488.872 8
  16048819.915   -32460113.528 6 -24962227.183 8
  15758849.532   -34996169.984 7 -27048606.541 9
  15640776.360   -24839827.153 7 -18879485.584 9
 94  2  3  5 43 59.9810000  0  7 24 20 13 12  9  4  5
  14892410.876   -31890540.417 7 -24733053.805 7
  18357602.829    -5437290.247 4  -4019604.241 4
  16553669.282   -35521505.936 6 -27425338.225 6
  15428256.767   -33213491.273 6 -25776793.231 8
  16051326.126   -32446941.469 6 -24951963.247 8
  15761739.782   -34980969.971 7 -27036762.391 9
  15621428.103   -24941505.295 7 -18958715.332 9
 94  2  3  5 44 29.9810000  0  7 24 20 13 12  9  4  5
  14882292.915   -31943702.685 7 -24774478.940 8
  18331143.415    -5576322.363 4  -4127940.925 5
  16558130.626   -35498048.223 6 -27407059.501 6
  15423657.743   -33237665.800 6 -25795630.532 7
  16053915.392   -32433320.209 6 -24941349.282 7
  15764711.868   -34965357.386 7 -27024596.746 9
  15602130.509   -25042915.771 7 -19037736.492 9
 94  2  3  5 44 59.9810000  0  7 24 20 13 12  9  4  5
  14872276.735   -31996335.769 7 -24815491.713 8
  18304692.493    -5715320.251 4  -4236250.950 4
  16562611.743   -35474502.028 6 -27388711.816 6
  15419171.056   -33261241.731 6 -25814001.388 7
  16056598.290   -32419231.815 6 -24930371.305 7
  15767762.048   -34949334.817 7 -27012111.619 9
  15582884.235   -25144052.212 7 -19116544.084 9
 94  2  3  5 45 29.9810000  0  7 24 20 13 12  9  4  5
  14862364.439   -32048423.069 7 -24856079.222 8
  18278252.743    -5854274.282 4  -4344526.798 5
  16567108.087   -35450861.115 6 -27370290.318 6
  15414800.517   -33284211.279 6 -25831899.747 8
  16059370.415   -32404667.640 6 -24919022.600 7
  15770891.275   -34932889.997 7 -26999297.480 9
  15563695.462   -25244891.839 7 -19195120.410 9
 94  2  3  5 45 59.9810000  0  7 24 20 13 12  9  4  5
  14852556.985   -32099967.553 7 -24896243.744 8
  18251818.048    -5993184.192 5  -4452768.276 4
  16571626.681   -35427128.639 6 -27351797.468 6
  15410545.673   -33306576.169 6 -25849326.938 8
  16062233.228   -32389610.532 6 -24907289.805 7
  15774101.603   -34916015.907 7 -26986148.843 9
  15544565.259   -25345425.947 7 -19273458.670 9
 94  2  3  5 46 29.9810000  0  7 24 20 13 12  9  4  5
  14842847.970   -32150986.801 7 -24935998.994 8
  18225392.275    -6132046.073 4  -4560972.342 4
  16576158.493   -35403303.956 6 -27333232.804 6
  15406403.626   -33328334.501 6 -25866281.488 8
  16065195.532   -32374056.602 6 -24895169.875 8
  15777398.556   -34898696.500 7 -26972653.215 9
  15525493.884   -25445644.834 7 -19351551.300 9
 94  2  3  5 46 59.9810000  0  7 24 20 13 12  9  4  5
  14833235.931   -32201497.960 7 -24975358.331 8
  18198977.392    -6270864.947 4  -4669142.862 3
  16580706.610   -35379395.541 6 -27314602.880 6
  15402377.243   -33349493.414 6 -25882768.961 8
  16068243.767   -32358033.115 6 -24882684.045 8
  15780780.564   -34880927.965 7 -26958807.605 9
  15506483.446   -25545552.329 7 -19429401.287 9
 94  2  3  5 47 29.9810000  0  7 24 20 13 12  9  4  5
  14823722.673   -32251490.043 7 -25014313.198 8
  18172570.962    -6409638.999 5  -4777278.487 4
  16585273.837   -35355404.718 6 -27295908.728 6
  15398463.884   -33370053.064 6 -25898789.478 7
  16071376.853   -32341563.990 6 -24869850.966 8
  15784246.306   -34862713.872 7 -26944614.812 9
  15487526.196   -25645164.820 7 -19507021.398 9
 94  2  3  5 47 59.9810000  0  7 24 20 13 12  9  4  5
  14814312.220   -32300940.119 7 -25052845.712 7
  18146173.634    -6548360.181 4  -4885372.890 4
  16589857.235   -35331327.139 6 -27277146.980 6
  15394667.204   -33390007.720 6 -25914338.575 7
  16074594.478   -32324656.481 6 -24856676.280 8
  15787799.126   -34844046.816 7 -26930069.056 9
  15468623.462   -25744500.645 7 -19584425.943 9
 94  2  3  5 48 29.9810000  0  7 24 20 13 12  9  4  5
  14805006.790   -32349853.117 7 -25090959.736 8
  18119781.634    -6687031.576 5  -4993428.524 4
  16594452.548   -35307169.294 6 -27258322.710 6
  15390985.251   -33409362.687 6 -25929420.379 7
  16077891.704   -32307340.418 6 -24843183.240 7
  15791430.837   -34824950.527 7 -26915188.838 9
  15449768.954   -25843581.274 7 -19661631.620 9
 94  2  3  5 48 59.9810000  0  7 24 20 13 12  9  4  5
  14795807.618   -32398195.105 7 -25128628.819 8
  18093409.142    -6825632.916 5  -5101429.559 3
  16599069.673   -35282914.221 6 -27239422.648 6
  15387417.814   -33428099.750 6 -25944020.689 8
  16081266.650   -32289599.822 6 -24829359.368 7
  15795145.157   -34805427.678 7 -26899976.225 9
  15430965.985   -25942393.451 7 -19738628.106 9
 94  2  3  5 49 29.9810000  0  7 24 20 13 12  9  4  5
  14786714.142   -32445973.035 7 -25165858.359 7
  18067043.462    -6964178.961 5  -5209387.498 5
  16603700.431   -35258579.985 6 -27220460.902 6
  15383967.657   -33446236.050 6 -25958152.883 8
  16084724.962   -32271431.924 6 -24815202.547 8
  15798935.993   -34785505.877 7 -26884452.754 9
  15412210.165   -26040951.558 7 -19815426.613 9
 94  2  3  5 49 59.9810000  0  7 24 20 13 12  9  4  5
  14777728.407   -32493190.877 7 -25202651.478 8
  18040690.360    -7102657.583 5  -5317292.920 4
  16608345.173   -35234158.082 6 -27201430.841 6
  15380634.040   -33463761.636 6 -25971809.196 8
  16088268.540   -32252807.069 6 -24800689.669 8
  15802804.704   -34765188.170 7 -26868620.780 9
  15393509.564   -26139225.747 7 -19892003.898 9
 94  2  3  5 50 29.9810000  0  7 24 20 13 12  9  4  5
  14768844.103   -32539883.786 7 -25239035.556 8
  18014348.595    -7241090.361 5  -5425162.596 4
  16613008.743   -35209673.395 6 -27182351.892 6
  15377409.025   -33480700.677 6 -25985008.458 8
  16091894.650   -32233743.673 6 -24785835.105 8
  15806737.650   -34744507.984 7 -26852506.357 9
  15374861.696   -26237215.975 7 -19968359.908 9
 94  2  3  5 50 59.9810000  0  7 24 20 13 12  9  4  5
  14760059.501   -32586046.069 7 -25275006.156 8
  17988017.876    -7379471.328 5  -5532991.919 5
  16617677.610   -35185123.586 6 -27163222.184 6
  15374297.993   -33497049.571 6 -25997747.869 8
  16095608.650   -32214227.957 6 -24770628.079 7
  15810745.923   -34723456.803 7 -26836102.844 9
  15356273.556   -26334902.850 7 -20044479.542 9
 94  2  3  5 51 29.9810000  0  7 24 20 13 12  9  4  5
  14751377.064   -32631674.703 7 -25310560.938 8
  17961698.759    -7517785.037 5  -5640768.824 4
  16622363.978   -35160496.763 6 -27144032.479 6
  15371300.235   -33512795.347 6 -26010017.313 8
  16099411.353   -32194250.717 6 -24755061.407 8
  15814824.931   -34702019.804 7 -26819398.689 9
  15337745.345   -26432264.517 7 -20120345.768 9
